GFSSW_sfc_thetae_000.txt.gz
Theta_e
322 322 322 322 322 323 323 323 323 324 325 325 324 323 324 324 322 325 320 329 335 353 352 335 331 334 335 334 336 335 319 315 316 318 321 328 325 330 332 331 334 337 336 341 344
321 321 321 321 322 322 322 323 323 322 323 323 323 323 324 322 322 321 335 353 354 353 329 324 325 328 328 329 328 323 316 317 322 324 322 324 327 330 330 330 331 331 339 342 344
319 320 320 319 321 320 321 322 322 321 321 322 322 323 323 322 321 319 345 352 355 349 327 328 327 327 326 327 324 322 316 321 325 327 328 325 330 332 330 327 332 331 336 340 341
318 318 319 318 319 319 320 320 320 320 321 322 322 323 322 323 310 326 354 354 357 329 327 327 323 323 324 319 323 319 325 324 323 328 325 324 330 326 326 328 338 337 339 340 339
318 318 319 318 318 319 319 319 318 319 322 322 323 322 321 317 317 333 352 350 328 325 323 324 319 325 321 320 320 321 323 324 327 327 326 328 328 332 326 336 337 337 339 339 339
317 318 318 318 318 318 319 318 317 318 322 323 322 319 319 313 327 331 325 324 324 324 324 324 322 328 323 320 319 324 324 323 325 324 326 325 328 331 334 338 336 336 337 338 339
317 317 317 317 317 317 317 316 316 318 322 321 321 321 321 316 327 331 327 321 324 325 322 324 326 326 323 319 326 324 320 322 322 325 324 326 324 327 335 338 336 337 338 339 340
316 317 317 317 317 317 316 316 316 320 322 321 322 324 319 329 329 329 327 322 322 325 324 326 331 325 322 324 322 320 321 314 322 324 322 325 319 331 336 336 335 337 339 340 342
316 316 316 316 316 315 314 314 316 323 322 322 324 324 321 328 322 329 328 319 320 323 324 327 329 321 321 316 317 318 312 315 318 323 322 321 320 331 335 334 333 336 337 340 341
315 315 315 315 315 314 313 314 322 324 325 327 326 321 327 323 322 326 328 322 320 320 320 323 322 316 316 315 308 312 313 316 316 321 323 320 320 328 330 331 332 334 335 337 338
315 314 314 314 313 312 313 317 325 326 327 322 320 318 321 328 327 322 325 319 319 317 314 320 313 310 313 316 318 318 316 315 318 323 322 320 320 325 327 329 331 333 334 334 335
314 314 314 313 312 312 313 314 322 323 316 322 324 324 325 324 317 318 323 315 314 311 316 315 310 315 317 318 316 315 314 314 318 322 321 321 320 325 326 327 330 332 333 334 336
314 314 313 312 311 314 317 322 327 325 316 317 321 319 322 323 317 316 319 316 312 312 313 311 313 317 316 314 313 314 311 312 314 319 319 318 318 318 325 328 329 331 334 335 335
314 313 312 310 310 314 315 325 329 327 309 311 315 318 321 321 315 320 321 317 314 311 314 313 317 315 314 312 313 309 314 314 313 313 308 318 306 318 321 323 327 328 330 332 334
313 313 311 309 310 310 317 321 323 322 297 313 314 324 321 317 317 316 321 317 312 313 313 310 312 313 312 313 315 311 315 313 313 311 310 311 309 315 323 319 322 326 329 331 333
313 312 311 312 313 317 321 322 319 308 298 310 315 314 314 316 315 317 316 318 318 314 314 313 317 315 314 315 315 316 316 314 313 310 304 309 311 312 317 324 322 324 328 331 333
311 309 309 312 308 316 316 315 305 301 312 308 310 313 313 312 311 314 311 310 308 306 306 311 312 316 317 313 316 315 312 305 303 303 302 312 309 315 321 324 327 327 328 331 334
308 307 312 314 315 314 315 307 300 308 308 314 313 313 309 312 310 311 310 307 312 311 308 305 304 313 316 314 312 312 312 305 300 301 304 312 307 314 320 326 331 332 333 332 332
307 314 314 321 320 317 309 301 304 307 313 311 313 308 308 311 310 310 309 307 311 313 308 306 307 316 316 317 317 312 309 314 308 309 304 308 312 317 320 319 320 323 324 330 332
309 311 312 318 323 315 305 300 307 312 313 315 308 311 306 308 307 309 308 311 311 315 317 313 308 314 315 317 317 315 316 307 308 302 300 305 307 308 318 317 319 319 321 326 334
312 311 318 320 323 309 300 304 309 313 315 313 312 311 309 308 309 309 309 312 314 314 317 315 313 311 314 312 310 312 311 311 311 308 302 301 305 319 321 321 319 320 323 324 327
309 303 319 323 310 308 303 308 308 311 316 315 315 313 312 313 309 309 309 312 316 316 312 316 313 308 310 316 317 315 313 313 307 307 309 308 306 320 320 319 320 322 323 327 330
305 308 319 321 304 305 309 309 311 310 313 313 311 314 315 313 310 311 311 316 318 316 315 316 311 306 308 312 315 311 314 313 312 312 310 305 307 323 320 320 323 322 325 334 337
306 303 309 314 312 308 307 308 308 313 313 315 313 315 312 312 315 311 311 314 317 317 327 319 312 311 303 309 313 310 311 312 311 308 309 309 312 317 319 321 327 326 329 331 338
309 305 313 307 307 308 309 310 310 308 313 316 313 312 312 311 312 311 313 313 315 319 317 316 313 311 310 311 311 311 311 311 309 311 308 311 313 318 321 322 323 324 327 329 334
306 303 308 306 311 313 307 309 311 312 312 311 310 312 313 311 315 314 316 317 313 316 314 316 312 312 308 311 311 309 311 312 312 311 311 312 314 320 324 325 323 322 323 327 330
310 307 306 305 308 308 310 311 312 314 314 314 314 314 312 314 320 321 320 320 319 318 316 317 311 312 306 310 310 306 310 311 312 314 313 311 319 323 321 320 321 324 325 328 330

GFSSW_sfc_thetae_006.txt.gz
Theta_e
320 320 320 320 321 321 321 322 322 322 322 322 322 323 323 323 323 320 311 320 324 352 349 324 325 325 327 322 329 329 314 310 314 313 314 319 322 332 335 336 336 337 337 342 346
319 319 319 319 320 320 321 321 322 321 321 321 321 323 324 324 317 314 328 344 348 355 323 317 313 316 312 317 321 321 314 315 321 321 318 321 323 326 329 331 331 335 340 346 347
318 318 318 319 319 319 320 320 320 320 320 321 321 323 324 321 313 312 348 342 352 349 320 317 315 314 309 313 316 320 316 322 322 324 326 325 327 331 328 326 331 330 334 343 344
317 317 317 318 318 319 319 319 319 319 320 320 321 324 324 316 296 316 352 355 356 329 320 315 313 310 308 308 315 317 323 323 322 329 323 324 325 321 328 329 336 336 339 342 341
316 317 317 317 317 318 318 319 318 318 319 320 322 324 316 309 309 323 356 354 336 320 316 312 312 312 309 310 315 318 321 324 326 324 324 325 321 323 328 334 336 336 337 338 340
317 317 317 317 317 318 318 318 318 317 318 320 323 323 311 300 314 320 327 324 319 314 312 313 313 315 311 309 310 321 323 324 325 324 324 320 321 322 331 335 334 334 334 335 336
316 317 317 317 317 317 317 317 316 317 318 319 323 321 314 305 316 320 317 313 314 312 309 314 316 312 311 308 314 322 318 320 323 323 324 329 322 322 329 334 332 333 334 335 335
316 316 317 316 317 316 316 315 315 317 319 319 323 318 305 320 320 318 315 313 314 311 312 314 317 312 308 311 312 312 311 306 315 323 325 323 315 324 331 331 329 332 334 334 335
315 315 316 316 315 315 314 314 316 321 320 323 315 313 309 329 319 319 318 314 311 309 309 317 313 308 309 306 301 304 302 307 310 318 322 320 317 325 328 328 327 330 332 333 333
315 314 314 314 314 313 313 313 316 321 322 324 322 308 311 315 319 320 318 317 309 308 309 307 305 305 304 301 295 300 304 309 308 313 317 319 318 325 327 327 327 328 330 331 332
314 314 314 314 313 312 309 304 303 307 318 312 312 312 315 318 323 317 318 316 308 304 299 304 300 298 304 305 306 306 308 309 312 314 319 318 319 323 327 328 328 328 330 331 332
313 313 313 313 312 311 308 299 302 306 303 315 318 318 320 318 316 319 315 311 304 299 302 300 298 306 311 311 307 305 307 309 313 315 312 318 319 323 326 328 329 329 331 332 334
313 313 313 312 311 308 306 307 312 307 301 307 312 312 313 316 314 314 311 310 303 300 301 298 303 312 311 309 307 303 307 309 310 315 315 317 313 317 325 328 328 330 333 334 334
313 313 312 310 301 303 302 305 309 308 295 302 304 310 313 315 309 319 315 310 303 301 301 300 307 308 309 307 307 298 308 314 313 311 303 313 301 309 318 319 321 326 329 332 334
313 312 311 309 301 302 305 307 308 307 289 308 308 317 312 308 308 309 315 307 303 303 301 300 305 305 305 308 309 304 308 307 313 309 305 308 302 310 312 309 313 321 328 330 334
312 311 310 304 302 304 308 306 303 296 290 306 309 306 306 307 309 311 309 308 308 303 302 303 310 308 308 311 309 311 305 301 301 299 295 304 302 301 308 313 315 318 328 329 332
310 309 308 307 297 301 302 301 294 290 304 303 300 305 303 302 306 307 303 301 300 294 295 301 304 308 310 302 306 304 296 290 290 290 290 295 303 305 314 318 316 318 327 329 332
308 307 306 307 305 305 299 294 288 299 299 305 304 305 301 303 303 306 301 299 301 298 294 294 294 304 307 304 301 299 297 291 287 290 293 298 295 302 316 321 320 322 328 330 330
307 301 302 305 307 301 296 287 291 296 303 303 302 299 299 303 304 304 300 300 303 300 296 293 295 306 307 309 305 300 296 301 295 295 293 296 302 311 316 317 318 318 321 325 329
302 298 301 307 309 300 292 289 294 302 304 303 296 300 297 299 300 301 301 303 303 304 301 297 293 302 307 307 306 304 304 296 293 289 287 294 297 300 310 313 317 317 317 320 327
296 296 304 310 306 296 287 289 296 301 302 301 299 299 300 299 301 301 302 305 307 306 302 301 296 300 302 300 300 301 298 297 297 294 290 289 294 306 314 315 317 318 321 319 323
294 290 305 310 297 295 291 294 299 298 302 301 303 302 301 303 301 302 301 303 309 308 301 300 295 295 298 305 306 304 301 298 294 292 293 293 296 311 313 314 319 320 322 319 321
291 293 303 303 292 293 298 300 301 299 298 299 301 304 305 302 299 304 306 312 309 308 304 303 294 293 294 298 301 303 302 300 297 295 293 293 297 311 310 310 312 312 314 316 320
293 291 298 299 295 295 294 297 299 306 303 304 303 305 303 302 305 302 303 309 311 309 318 310 294 295 294 295 300 298 302 302 299 294 294 296 300 304 309 311 312 313 315 317 320
295 295 294 290 293 292 292 298 300 301 306 304 301 306 304 298 301 303 309 310 312 316 312 302 295 297 299 304 305 304 304 302 298 299 298 299 301 304 310 312 313 315 317 318 318
295 294 295 292 292 294 294 295 298 299 302 301 303 307 305 300 306 305 305 302 304 307 301 299 296 299 300 303 305 302 304 305 305 304 303 302 304 309 313 315 313 315 315 316 318
298 300 296 292 291 292 293 296 297 299 305 309 307 306 304 306 309 309 308 307 308 303 302 300 298 295 294 301 302 300 303 304 306 310 306 299 303 311 310 312 311 312 313 314 316

GFSSW_sfc_thetae_009.txt.gz
Theta_e
319 319 319 319 320 320 321 321 322 322 322 322 322 322 323 324 322 319 310 319 321 349 344 325 329 325 326 321 328 328 310 307 311 310 313 326 325 336 338 334 334 337 336 339 347
318 318 318 318 319 319 320 320 321 321 321 321 321 322 323 324 316 312 326 342 347 351 322 317 312 313 310 316 322 319 309 312 319 318 316 322 327 329 331 330 331 333 340 343 346
317 317 317 318 318 318 319 319 320 320 320 320 321 322 324 321 309 309 341 343 348 348 320 316 313 311 307 310 315 319 314 319 320 322 319 321 324 328 329 325 330 331 336 340 342
316 317 317 317 318 318 318 318 319 318 319 319 321 322 324 314 297 309 351 355 348 337 318 313 310 307 306 307 311 310 320 321 321 327 322 322 325 327 328 328 335 339 341 341 341
316 316 316 317 317 317 317 317 317 318 318 319 321 323 314 304 305 320 352 352 341 322 315 311 310 310 308 308 310 310 317 322 323 324 324 322 322 325 326 333 337 341 342 341 342
316 317 317 317 316 316 317 317 317 316 317 319 320 323 308 298 311 318 325 334 325 316 313 311 309 313 310 307 306 317 320 321 322 321 322 321 325 327 330 335 334 339 339 341 341
316 316 316 316 317 316 316 316 315 316 317 319 320 321 312 305 313 313 315 314 313 314 308 312 312 309 309 307 311 322 317 321 321 320 318 325 318 323 331 333 332 336 337 339 340
316 316 316 316 316 316 315 315 315 317 320 320 322 316 303 316 319 319 313 311 312 310 309 310 314 310 308 310 316 315 312 311 317 322 324 322 313 326 331 329 328 331 334 336 338
315 315 315 315 315 314 313 314 315 323 321 321 313 311 306 323 320 322 315 312 310 308 309 316 310 306 306 303 301 305 307 306 313 320 321 319 314 325 330 329 327 329 331 332 332
314 314 314 314 314 313 312 313 314 319 321 322 321 307 308 308 317 318 315 314 308 307 307 305 303 300 301 299 295 306 303 310 311 319 318 317 316 325 328 327 327 329 330 331 332
314 314 313 313 313 311 308 301 301 303 314 308 307 310 312 316 318 317 316 311 306 302 299 301 298 296 299 304 304 306 305 310 314 315 317 316 317 321 326 326 325 327 328 329 331
314 313 313 312 312 310 305 299 300 303 297 307 310 311 317 316 312 314 316 308 302 298 299 297 296 302 305 307 305 304 303 306 310 317 316 315 316 321 323 324 325 326 326 328 330
313 313 312 312 310 306 300 301 306 302 296 303 308 309 311 315 310 312 313 307 303 298 297 294 299 306 307 306 305 301 301 303 307 312 318 317 312 317 323 325 326 328 329 330 330
313 313 312 309 299 301 301 301 303 302 293 299 303 307 310 312 307 317 314 308 303 301 299 298 303 304 305 305 306 297 306 308 310 308 304 315 302 310 318 321 324 327 328 330 332
313 312 310 309 300 299 301 303 302 303 287 303 305 313 307 307 307 310 314 307 302 300 299 297 301 301 302 305 308 304 307 305 308 306 305 306 302 307 315 314 320 325 327 331 333
312 311 309 303 300 302 305 302 301 293 287 302 307 304 303 304 306 308 308 308 308 301 299 300 305 304 303 307 309 309 303 299 299 299 296 305 302 300 310 316 320 323 325 331 332
310 309 307 306 296 299 299 298 291 287 300 300 299 302 299 298 303 305 301 300 298 293 291 298 300 302 307 301 304 302 295 289 291 293 294 300 301 303 312 320 322 322 323 329 332
308 307 305 306 305 304 296 292 286 295 296 301 302 302 298 301 300 302 298 298 298 296 293 291 292 300 304 302 299 298 296 290 285 287 293 296 298 306 314 320 323 324 324 328 329
307 298 299 302 305 299 294 285 289 294 301 301 299 297 296 301 300 300 297 298 301 298 293 290 292 302 304 305 304 297 293 298 291 291 290 293 298 306 312 313 319 319 319 325 328
301 296 297 306 306 296 290 286 290 299 301 300 294 298 294 296 297 296 297 301 301 301 300 296 290 298 302 304 303 302 301 293 291 287 286 291 294 297 305 309 315 316 317 323 327
294 291 297 306 300 293 285 286 292 298 298 296 296 296 295 295 297 295 297 303 305 304 302 295 293 294 300 298 297 298 295 293 294 291 288 288 293 302 306 311 313 316 319 323 326
291 284 301 303 293 290 288 291 297 295 297 296 298 297 296 299 297 296 297 301 308 306 298 297 293 293 295 300 302 300 298 297 294 290 290 291 294 306 309 314 316 317 318 319 324
293 289 301 299 289 290 294 297 299 298 298 296 295 299 301 299 294 298 301 308 310 305 301 297 290 288 291 293 297 297 299 295 294 293 292 292 295 307 308 311 315 316 317 318 320
293 287 294 295 293 291 290 293 296 305 303 304 298 301 301 297 303 299 302 307 310 306 317 307 290 294 293 293 297 296 300 299 297 292 292 294 298 303 307 309 310 313 316 318 319
294 291 292 289 291 289 289 294 296 296 301 303 298 300 302 297 300 301 304 307 311 315 310 300 294 292 298 300 299 300 300 300 298 299 298 298 299 304 307 309 311 313 313 315 317
295 291 295 293 291 291 291 292 295 296 296 297 297 303 303 298 302 303 306 302 305 305 301 297 293 295 295 299 300 299 301 302 302 299 299 298 300 306 310 310 310 312 313 314 315
295 296 295 294 291 290 292 294 296 297 298 299 303 302 302 304 307 307 308 307 307 302 300 295 296 291 294 297 299 295 300 301 303 305 303 298 302 307 308 310 311 311 314 315 316

GFSSW_sfc_thetae_012.txt.gz
Theta_e
318 319 319 319 319 320 320 320 321 321 321 321 322 322 322 322 322 316 306 318 320 347 351 345 337 332 332 321 326 325 307 306 309 311 314 326 327 334 337 332 335 336 334 339 346
318 318 318 318 319 319 319 319 320 320 320 320 321 321 321 324 315 311 324 342 350 352 318 316 312 314 311 314 322 315 308 310 316 315 318 324 329 330 329 329 330 333 340 345 346
317 317 317 317 318 318 319 319 319 319 319 319 320 321 321 322 305 304 338 342 349 344 317 317 312 311 306 310 316 317 312 317 318 318 326 324 326 328 327 323 329 329 336 342 343
316 316 316 317 317 317 318 318 318 318 318 319 319 321 323 313 298 307 351 353 350 330 315 312 308 306 305 305 310 310 318 319 320 323 321 322 326 327 327 326 334 335 339 341 341
315 315 315 316 316 317 317 317 317 317 318 318 319 320 313 302 305 312 347 351 341 324 313 309 306 307 306 307 308 308 309 319 322 320 321 325 323 326 325 332 337 338 340 339 340
315 315 315 315 315 316 317 317 317 316 317 318 319 320 307 298 311 314 329 331 325 314 312 310 309 311 309 307 305 308 315 319 321 320 320 321 323 326 329 336 337 336 337 339 340
314 314 315 316 315 315 316 316 315 316 318 319 319 319 310 304 312 315 313 317 320 311 310 311 311 309 308 305 308 319 315 319 319 317 320 324 318 321 330 335 335 336 337 339 341
315 314 314 314 314 315 315 314 314 317 323 320 321 314 300 315 316 320 313 309 313 309 309 310 311 306 306 308 315 312 313 309 316 319 321 319 310 325 331 330 332 336 337 339 340
315 315 315 315 315 314 313 314 315 322 321 322 313 307 304 322 314 318 314 311 308 306 308 315 310 304 305 304 306 305 305 306 313 319 319 317 312 325 330 329 330 334 335 337 338
314 314 314 314 314 312 312 313 313 317 321 321 320 307 309 307 312 317 314 311 306 306 307 303 301 299 299 303 300 302 305 305 310 316 319 315 314 324 327 327 327 330 332 334 335
314 314 313 313 312 311 308 299 300 300 308 304 305 308 310 312 315 315 314 309 304 300 296 299 297 294 300 303 308 306 309 309 312 316 314 314 315 322 325 325 325 326 328 330 331
314 313 313 312 311 310 303 296 300 298 293 302 304 307 311 312 308 312 314 307 303 297 297 296 294 300 304 305 305 307 306 307 310 316 315 315 315 321 325 325 325 326 327 328 330
313 312 312 310 309 303 297 296 303 301 293 300 303 304 305 310 306 309 312 306 301 297 295 293 297 303 305 303 302 300 301 304 309 314 316 315 311 314 322 324 326 327 328 329 329
312 312 310 309 298 299 298 300 300 300 292 298 301 306 308 310 305 314 314 308 301 299 297 296 301 303 302 303 304 297 304 305 309 310 302 312 298 310 316 319 322 324 325 327 329
312 311 309 308 299 297 299 300 300 299 285 301 302 311 306 303 302 307 312 306 301 300 298 297 298 299 300 303 306 302 306 305 308 305 304 307 300 304 316 314 318 322 325 327 329
311 310 309 303 300 301 303 300 298 291 286 298 306 301 302 302 304 306 307 308 307 301 297 300 302 302 302 305 308 306 301 299 298 299 294 303 303 300 309 316 320 323 326 328 330
308 308 307 305 295 299 298 296 289 285 298 297 296 299 298 298 301 302 301 299 298 293 292 296 298 301 305 300 302 299 295 289 289 292 293 299 301 305 311 320 321 322 325 329 331
307 306 303 305 301 302 294 290 283 293 294 299 299 298 296 298 297 301 298 297 297 296 290 291 290 298 302 300 298 297 296 290 286 287 294 299 299 306 316 317 322 323 325 327 330
306 298 296 300 304 298 290 282 286 292 299 299 297 294 293 298 299 298 295 296 299 297 294 289 290 299 302 303 302 295 293 296 290 287 289 293 298 306 309 310 316 319 322 323 328
300 297 294 304 303 293 286 285 288 296 298 297 292 295 291 293 295 294 294 299 298 300 297 294 288 296 300 302 301 299 299 293 289 285 285 290 293 297 303 308 310 314 318 322 326
293 288 295 304 296 290 283 284 289 295 297 293 294 293 293 293 294 293 295 300 302 301 298 294 291 292 297 296 296 295 293 292 292 290 287 286 291 300 304 308 310 313 319 320 323
294 283 298 300 291 286 286 288 295 294 296 294 295 294 294 296 293 294 295 299 305 303 296 296 294 291 293 297 300 299 296 295 292 288 289 289 292 304 307 308 313 314 318 318 323
290 290 298 297 287 288 292 295 297 296 295 296 295 295 295 293 291 295 297 304 305 303 298 296 289 288 289 291 295 295 296 292 292 291 289 290 293 305 306 309 313 314 315 317 322
293 286 292 293 289 287 287 290 293 302 300 300 297 297 295 294 295 294 298 305 307 306 319 306 289 292 292 292 295 294 297 296 294 290 290 293 297 301 307 308 311 315 316 316 320
295 290 292 288 289 289 287 291 294 294 298 299 296 298 297 292 296 295 299 302 308 313 306 297 292 291 298 297 297 297 298 297 295 295 294 298 298 303 307 309 311 316 317 317 317
294 291 294 291 292 289 289 288 293 295 294 294 295 299 297 295 298 296 299 302 302 304 301 296 292 292 296 298 298 297 299 299 299 299 297 298 298 304 308 311 311 313 315 317 318
294 295 295 292 290 288 289 291 294 296 297 298 297 295 296 301 302 303 303 305 307 303 300 295 292 289 291 295 293 291 298 298 299 301 301 297 304 305 307 309 311 312 314 317 318

GFSSW_sfc_thetae_015.txt.gz
Theta_e
318 319 318 318 319 320 320 320 320 321 321 321 321 322 323 322 322 320 313 321 324 354 354 344 337 343 341 335 333 329 319 314 315 319 321 331 329 336 339 334 335 338 337 339 347
318 318 318 318 318 319 319 319 320 320 320 320 320 321 322 323 317 314 329 338 345 355 337 328 326 329 324 319 328 326 319 316 321 324 325 330 332 334 333 331 331 335 341 345 347
317 317 317 317 318 318 318 319 319 319 319 319 320 320 322 323 312 312 343 342 349 345 327 322 319 316 313 318 323 324 319 322 323 325 330 330 331 335 331 327 332 334 339 343 344
316 316 316 316 317 317 318 318 318 318 318 319 319 320 322 319 304 313 350 345 348 336 320 318 315 312 311 311 319 319 323 324 324 327 329 328 333 330 331 328 336 340 342 343 342
315 315 315 316 316 316 317 317 317 317 317 318 319 320 317 309 310 317 346 352 341 326 316 315 312 312 310 313 314 314 316 322 326 327 330 332 329 329 330 334 339 342 342 341 342
315 315 315 315 316 316 317 317 317 316 317 319 320 320 312 303 316 323 336 336 333 322 316 316 314 316 314 315 314 315 317 321 326 325 329 327 328 330 331 338 338 340 340 341 342
314 315 315 315 315 315 316 316 315 316 317 321 321 319 311 309 317 318 323 325 328 320 314 317 317 317 317 313 315 324 320 324 324 325 325 329 324 325 334 338 336 337 339 341 343
314 314 314 314 315 315 315 314 314 316 320 322 322 320 309 317 320 320 322 317 323 319 319 319 317 314 313 317 322 319 321 315 322 324 326 325 316 327 335 336 334 335 337 339 342
314 314 314 315 315 314 313 313 316 321 322 323 319 314 311 326 319 322 323 315 318 318 317 316 317 312 312 315 316 317 312 314 318 325 325 323 318 328 335 335 333 334 336 338 341
314 314 314 314 313 312 311 313 314 320 322 323 322 313 317 314 317 320 321 315 313 313 312 311 310 308 309 313 305 311 313 315 316 321 324 321 321 328 333 333 333 335 337 338 340
313 313 313 312 311 310 310 308 309 308 313 312 312 313 313 317 318 318 319 313 312 311 306 308 304 302 307 314 316 316 315 315 319 323 321 320 321 326 331 332 331 334 337 338 339
313 312 312 311 310 310 306 301 303 302 297 303 304 307 312 315 309 316 319 313 308 304 304 304 301 307 310 311 314 316 315 315 319 322 322 320 320 325 329 330 332 333 335 337 339
312 312 311 310 309 306 301 303 305 305 297 302 304 305 308 310 307 309 316 313 310 305 303 302 304 307 307 308 308 314 314 315 315 319 322 321 317 321 328 331 332 333 335 336 337
312 311 310 307 303 302 303 306 306 304 299 303 305 309 312 311 306 314 316 315 309 307 303 303 306 305 306 307 310 307 315 318 316 315 309 320 307 318 324 326 329 331 332 333 335
311 310 309 307 303 301 303 306 306 305 290 304 307 315 313 309 308 310 318 314 308 307 306 303 302 304 304 307 311 310 313 315 317 315 313 314 310 314 322 321 326 330 332 334 335
310 309 308 305 303 305 306 305 306 298 290 301 309 307 306 308 308 311 311 315 314 308 305 307 307 307 307 310 312 311 310 310 313 313 304 311 311 309 317 321 325 329 332 333 335
308 307 306 306 300 305 305 302 296 291 301 300 302 304 304 304 305 307 306 306 305 302 302 305 305 307 308 306 312 310 308 301 300 301 300 309 310 312 319 324 326 327 330 333 335
306 306 306 307 308 308 302 296 289 295 298 302 303 303 300 303 304 305 305 303 308 308 304 300 297 304 308 307 306 307 307 302 296 297 300 306 304 311 322 324 327 330 331 333 334
306 304 302 304 307 306 296 288 292 296 302 300 302 299 300 302 303 304 304 304 306 309 302 300 300 304 306 309 310 306 303 311 303 300 301 305 310 314 319 320 322 325 329 331 334
302 299 298 307 308 300 292 289 293 300 303 302 298 301 298 299 300 301 302 306 306 308 312 304 298 304 306 309 308 307 310 301 302 298 295 300 303 305 315 318 323 323 326 330 334
300 293 301 308 302 296 288 290 293 298 302 299 299 299 300 299 300 299 300 305 306 306 310 307 304 301 304 303 303 304 303 304 306 304 299 297 301 315 317 321 322 324 326 329 333
297 287 303 306 296 294 291 293 295 297 299 300 299 301 300 300 299 299 299 304 308 307 303 306 304 300 302 306 307 307 305 306 302 301 302 302 303 314 317 320 322 324 326 328 332
293 294 303 302 291 294 297 297 299 299 298 298 297 300 301 298 295 298 301 306 308 307 308 305 301 297 299 303 305 303 305 306 306 306 305 299 302 317 316 317 320 321 326 328 331
295 289 298 298 296 293 293 294 296 302 301 303 301 301 301 300 302 300 301 306 309 308 319 311 305 303 298 302 305 301 302 304 304 301 302 302 306 312 315 318 322 323 326 328 329
296 293 296 293 295 295 294 293 293 294 301 302 302 302 301 298 300 300 303 304 306 312 313 311 304 304 305 307 305 304 302 303 302 305 302 305 306 313 317 320 323 328 329 327 328
293 293 294 293 295 294 293 293 294 296 297 298 299 302 303 300 302 300 303 304 305 311 311 307 303 303 301 304 305 302 304 304 304 304 305 306 308 317 321 321 321 324 326 327 328
298 299 294 291 292 292 293 293 294 296 299 301 299 298 298 301 304 306 308 308 310 310 312 311 304 302 300 304 302 299 303 304 305 307 307 304 311 319 316 318 322 327 327 328 331

GFSSW_sfc_thetae_018.txt.gz
Theta_e
318 318 318 318 319 320 320 320 321 321 321 321 321 322 323 323 323 326 320 328 329 356 359 342 343 342 344 339 340 334 322 317 316 316 322 330 329 335 338 335 336 338 336 342 345
317 318 318 318 318 319 319 320 320 320 320 320 320 321 322 323 323 319 336 339 351 359 339 336 330 338 333 330 332 328 323 319 322 325 324 328 329 334 333 332 332 336 340 344 345
317 317 317 317 318 318 318 319 319 319 319 320 320 321 322 323 318 317 342 347 352 356 331 331 329 331 320 320 325 327 322 324 324 326 329 328 330 334 329 328 332 334 338 343 344
316 316 316 317 317 317 318 318 318 318 318 319 320 320 322 324 305 318 346 345 352 343 326 325 320 317 314 315 322 321 326 326 326 327 329 327 332 330 330 329 335 338 342 343 343
315 315 316 316 316 317 317 318 318 317 317 319 320 321 322 315 314 324 345 347 333 330 320 318 315 316 313 317 319 319 321 322 324 326 328 331 330 328 330 334 338 340 342 342 342
315 315 316 316 316 317 317 317 317 316 317 318 320 321 318 308 321 324 331 334 330 324 320 319 316 318 316 317 317 320 319 320 323 326 329 329 329 331 332 336 338 340 341 341 342
314 314 315 316 315 316 317 316 315 315 317 319 322 321 316 313 321 324 325 324 327 326 319 320 320 317 318 316 321 321 318 323 324 327 328 331 326 327 334 337 339 339 341 341 342
314 314 314 314 314 315 315 314 314 317 320 323 323 323 313 322 325 322 324 323 326 329 323 322 322 318 318 321 318 318 319 316 325 327 329 330 319 329 337 336 337 338 339 339 342
314 313 314 314 314 314 312 312 316 323 322 323 324 322 313 325 322 327 327 320 323 322 323 321 320 316 317 315 315 317 313 315 322 328 327 327 320 329 337 336 336 336 337 338 341
314 313 313 313 312 311 311 313 318 322 325 327 325 318 320 317 323 323 328 322 320 318 316 315 315 312 313 313 308 312 313 315 316 324 327 324 323 329 334 335 334 336 337 337 339
314 313 313 312 311 310 311 314 315 316 322 315 316 317 317 321 323 322 325 318 318 315 308 312 308 306 310 315 317 317 316 315 319 326 324 323 322 328 333 334 333 335 337 337 337
313 312 312 311 310 309 311 307 306 306 302 311 310 312 317 318 312 319 325 314 314 308 311 308 305 311 314 315 315 316 315 315 320 326 325 323 322 326 330 333 334 335 337 338 338
312 312 311 310 309 310 308 310 311 310 303 308 311 310 311 313 311 313 321 317 312 309 309 306 308 311 311 312 312 315 314 315 317 323 325 322 321 324 328 332 335 336 337 340 339
312 311 310 308 307 308 309 313 312 310 302 307 308 312 314 315 309 317 320 317 313 309 308 308 311 308 308 308 313 311 317 317 318 318 313 323 309 319 324 326 331 335 335 336 340
311 311 309 307 306 306 308 310 311 310 294 308 310 320 317 313 313 313 319 317 311 310 311 306 307 306 306 308 313 312 318 317 318 318 317 317 313 317 323 323 327 333 335 335 337
311 309 308 309 309 309 311 311 311 301 293 304 311 310 310 313 312 313 313 317 317 312 312 310 312 310 309 311 313 316 315 316 317 317 309 315 314 314 318 323 326 331 335 336 335
309 307 307 309 305 311 311 305 298 295 305 303 306 310 309 308 310 311 309 308 307 304 305 308 308 310 311 308 312 314 312 306 304 305 305 316 313 315 320 323 326 325 333 337 336
307 305 309 309 313 311 307 298 293 299 301 307 307 308 305 308 308 308 307 305 310 310 306 303 300 308 310 309 308 310 312 306 300 301 305 314 308 313 323 325 326 328 330 336 338
305 307 306 312 312 310 301 292 295 299 304 303 306 304 305 307 307 308 307 306 309 311 305 304 303 311 310 311 312 309 308 315 309 310 306 309 314 319 322 322 324 326 330 333 337
304 304 304 311 314 307 297 292 298 302 304 305 300 305 302 305 304 306 307 309 308 312 315 310 304 310 310 311 312 311 315 307 309 303 300 306 309 310 317 319 322 323 327 331 336
304 298 308 315 312 302 293 295 298 302 303 303 302 303 304 304 305 305 306 309 311 311 314 312 308 307 309 306 306 307 307 310 312 309 303 302 306 317 317 320 320 322 327 330 333
301 293 309 311 299 300 296 299 297 299 302 301 303 304 303 304 304 304 304 308 312 313 309 313 310 304 304 310 311 311 309 311 305 306 308 307 307 319 321 321 321 322 324 326 331
297 297 309 306 292 295 299 298 300 299 299 299 299 302 304 303 302 305 306 309 310 311 311 314 308 302 304 307 308 306 309 310 311 311 310 304 307 320 320 321 323 324 325 329 335
298 292 299 304 302 297 297 297 297 302 301 302 301 302 301 301 305 302 303 306 309 310 323 313 309 306 301 305 308 304 305 307 308 306 306 307 311 316 318 319 321 324 328 329 334
298 294 299 292 297 299 300 299 296 297 303 304 301 302 300 299 300 301 303 307 310 314 312 311 306 309 309 309 309 308 306 306 305 306 305 309 310 315 318 319 321 324 325 327 334
295 295 299 294 296 294 294 294 295 297 300 300 300 301 302 300 302 301 304 305 305 309 309 313 309 311 307 310 309 307 309 308 307 306 307 308 309 318 320 321 321 322 324 326 333
300 300 296 293 291 290 292 295 294 299 300 302 302 301 302 303 308 310 311 311 310 309 310 311 309 309 304 309 308 304 309 309 309 309 308 305 311 316 316 319 322 326 327 328 332

GFSSW_sfc_thetae_021.txt.gz
Theta_e
318 319 318 319 319 320 320 320 321 321 321 322 322 322 323 323 323 327 324 331 334 361 361 342 340 337 340 337 339 338 320 317 316 318 319 326 325 330 336 332 333 336 339 343 348
318 318 318 318 318 319 319 320 320 320 320 321 321 321 323 323 323 321 340 353 357 359 341 332 329 333 331 332 335 330 318 319 323 325 324 325 325 329 329 330 331 333 341 345 347
317 317 317 317 318 318 319 319 319 319 319 320 320 321 322 324 320 319 346 350 357 356 333 332 331 332 326 329 328 328 323 324 324 327 329 326 326 330 328 325 331 331 338 341 343
316 316 316 317 317 317 318 318 319 318 318 319 320 321 323 324 308 327 349 348 358 339 332 328 327 324 324 320 325 323 327 326 327 326 328 325 330 325 326 328 334 337 341 341 342
315 315 315 315 316 316 317 318 318 317 317 318 319 321 323 317 316 331 349 346 337 333 325 324 322 321 320 320 323 322 325 325 325 327 327 329 327 325 325 331 335 339 340 340 341
315 315 316 316 315 316 317 317 316 316 317 318 319 320 319 310 323 328 326 333 329 327 324 322 321 323 320 320 320 324 324 322 323 325 327 326 327 327 328 334 335 338 339 340 340
314 315 315 315 315 315 316 315 314 315 317 320 321 323 317 316 323 324 329 327 327 327 321 322 322 319 320 318 323 323 318 323 323 324 324 328 323 324 331 335 334 336 338 338 340
314 314 315 315 315 314 314 314 314 316 321 323 323 324 315 325 327 323 324 323 326 327 326 324 322 320 319 322 321 319 321 315 322 324 326 325 317 326 333 332 333 334 337 338 339
314 315 314 314 314 313 312 313 314 321 324 324 326 324 316 326 321 323 324 320 323 324 327 324 321 316 318 314 314 317 312 315 317 325 326 324 318 327 333 331 330 334 335 337 339
314 314 314 313 313 311 311 313 319 323 326 329 328 320 321 319 324 326 328 325 320 321 319 318 316 312 313 313 307 312 313 316 318 321 325 322 322 328 333 331 328 332 334 335 337
313 313 313 312 311 310 312 319 317 320 323 319 319 317 319 323 326 322 326 322 320 318 311 314 309 306 311 315 317 318 317 315 319 322 322 322 323 327 332 332 330 329 332 334 335
313 313 312 311 310 309 313 312 310 309 304 312 314 316 320 323 316 320 326 315 315 310 312 310 306 312 315 316 315 316 316 316 319 322 322 321 321 327 331 332 333 332 331 333 335
313 312 311 310 309 312 310 313 314 313 305 309 314 313 315 317 314 316 322 316 312 311 310 308 309 313 313 313 313 314 315 316 316 322 324 321 319 322 328 333 334 334 334 335 334
312 312 311 308 307 311 311 315 315 313 302 307 310 313 315 316 311 319 322 318 313 310 311 310 313 310 310 311 314 311 318 318 317 316 313 321 311 320 324 326 331 334 335 334 336
312 311 310 307 308 308 311 314 314 312 295 312 312 321 318 313 316 315 321 319 312 311 312 309 309 309 308 310 315 312 319 318 317 316 316 315 312 316 323 321 325 331 334 336 336
312 311 309 309 312 313 314 313 311 301 295 308 313 312 312 314 315 317 315 320 319 313 313 312 315 313 311 313 314 316 317 317 317 315 307 315 312 315 316 322 325 329 333 337 337
310 308 307 310 306 314 313 308 298 295 309 307 309 312 311 311 312 313 311 310 308 305 307 310 310 313 313 309 314 313 312 306 305 306 305 317 313 317 322 325 327 327 329 335 339
307 305 310 312 315 314 309 300 293 302 304 310 310 311 308 311 311 311 310 307 311 311 308 305 303 310 312 310 309 310 311 306 301 303 306 315 310 316 326 327 329 329 329 332 338
306 310 309 312 315 312 304 293 297 302 308 307 309 306 308 310 310 311 310 308 311 312 307 306 306 314 313 313 311 310 308 315 309 311 307 311 315 320 324 325 326 326 326 327 335
306 307 308 313 315 309 299 294 301 305 308 307 303 308 305 307 307 308 309 312 310 313 315 311 306 312 312 313 312 310 315 308 311 304 303 308 310 312 319 321 323 324 325 327 331
306 301 311 316 314 305 295 297 301 304 305 304 304 305 307 307 309 307 308 312 313 312 314 312 310 309 313 309 307 307 308 311 312 310 304 303 309 320 321 323 322 324 326 327 329
305 297 312 314 300 301 297 301 301 303 307 304 304 305 306 307 307 308 307 310 315 314 309 313 310 306 309 314 314 311 309 310 310 308 310 308 309 321 322 323 324 325 326 328 329
301 302 310 307 293 295 300 301 303 302 303 303 302 304 306 306 305 308 309 313 313 313 312 313 308 304 306 310 312 309 310 310 311 313 311 306 308 322 323 323 324 324 325 327 329
301 295 301 304 304 298 296 297 298 304 303 304 302 304 303 302 307 305 307 311 313 313 323 317 310 307 304 307 310 306 307 309 309 307 308 309 312 318 320 321 323 324 326 327 328
299 297 300 295 298 297 297 300 296 296 302 304 302 302 301 299 301 302 306 310 311 315 313 314 308 310 310 311 311 309 307 307 306 309 306 310 311 316 320 322 324 325 326 326 327
296 296 299 297 299 296 295 295 293 294 298 297 298 301 302 299 301 300 304 308 307 310 310 314 308 311 308 310 310 308 310 309 308 308 308 310 310 319 322 324 324 324 325 325 326
304 304 299 295 295 294 292 293 294 298 298 301 298 300 302 303 306 307 310 310 309 310 310 310 309 307 304 309 309 305 309 310 311 312 310 306 311 317 318 321 324 329 326 326 327

GFSSW_sfc_thetae_024.txt.gz
Theta_e
318 318 318 319 319 320 320 321 321 321 321 322 322 322 323 323 322 324 321 329 334 359 357 340 341 340 338 332 336 335 319 318 317 316 317 325 322 331 334 330 334 337 336 341 344
318 318 317 317 318 318 319 320 320 320 320 320 321 322 323 323 319 317 329 352 357 357 328 328 329 333 326 327 331 323 317 319 323 323 320 325 324 326 326 327 329 335 340 342 343
317 317 317 317 317 317 317 318 319 319 319 320 320 321 322 323 316 318 353 358 359 350 324 326 329 327 323 327 328 324 317 324 326 326 325 323 324 326 326 323 328 333 337 339 340
316 317 316 316 316 316 316 317 317 317 318 318 319 320 322 320 306 321 349 356 358 333 325 323 324 322 322 322 327 321 326 325 326 327 327 323 326 323 327 326 333 338 341 341 339
315 316 316 316 315 316 316 317 317 316 317 318 319 320 321 314 315 326 353 349 335 328 323 323 321 322 318 323 324 321 325 326 326 325 326 327 325 322 325 331 334 338 339 339 339
314 315 316 316 316 316 317 316 316 316 316 318 320 320 317 306 322 327 327 332 325 326 323 323 322 324 321 322 320 322 323 324 323 323 324 325 325 324 325 331 332 335 336 338 338
315 315 315 315 316 315 316 315 315 315 316 319 323 321 314 311 326 329 326 323 326 325 320 323 324 321 322 318 323 321 318 320 321 322 322 326 321 321 327 330 331 332 335 336 338
315 315 315 315 315 315 314 313 314 315 318 323 324 321 311 321 325 323 323 324 327 326 325 324 324 319 318 321 319 316 317 313 320 322 323 323 316 323 329 327 328 332 334 335 337
315 315 315 314 314 313 312 312 314 318 322 324 323 323 314 329 322 324 324 319 322 322 324 325 321 316 315 312 311 314 309 312 316 322 322 320 318 325 330 327 327 330 332 334 337
314 314 314 313 313 312 311 312 319 320 325 327 326 320 323 318 323 323 323 321 317 319 317 318 316 311 311 310 303 308 310 313 314 320 321 319 320 323 327 327 327 329 332 334 334
314 313 313 313 312 310 309 314 316 315 321 319 319 314 318 325 326 323 323 320 320 317 310 315 309 305 309 311 313 313 313 313 317 321 319 320 321 321 327 327 325 328 329 331 334
313 313 313 312 311 309 311 312 312 310 303 311 313 317 324 325 317 320 324 317 314 309 313 310 305 310 313 313 312 313 312 314 318 322 322 319 322 324 329 328 327 327 329 330 333
313 312 312 311 309 312 312 310 318 314 303 307 311 310 315 322 316 317 320 318 312 309 310 306 309 312 310 310 311 311 311 313 315 319 321 318 316 319 327 330 331 331 330 331 332
312 312 311 309 309 309 309 317 315 314 299 305 310 311 313 315 310 319 321 318 312 309 311 309 312 310 308 308 312 308 315 315 314 315 309 319 308 319 323 326 327 329 330 330 332
312 312 310 309 305 307 313 315 314 311 292 312 312 320 316 311 313 313 319 317 312 309 311 308 309 308 307 308 313 311 316 315 314 313 315 316 310 316 322 322 326 328 330 331 334
312 311 310 308 310 312 315 314 311 298 292 308 313 311 310 311 311 317 313 317 318 312 312 311 315 312 311 312 313 316 314 314 314 313 306 314 311 314 318 319 323 329 330 334 334
310 309 308 309 304 313 313 308 296 293 309 307 309 312 310 308 308 313 310 308 307 305 305 309 309 313 313 309 312 311 309 304 303 305 304 315 313 316 323 325 325 325 327 334 337
308 306 309 311 314 314 310 300 291 301 302 312 311 311 308 311 309 310 310 305 309 310 306 304 302 309 313 310 307 308 308 304 299 301 304 313 308 316 326 327 326 326 328 333 335
307 310 310 312 314 313 303 293 295 301 307 307 309 307 308 310 311 310 309 308 309 310 306 305 305 313 313 313 311 308 305 311 306 309 306 309 314 319 325 323 327 326 328 328 335
305 306 309 315 315 310 299 293 300 304 306 306 302 307 304 308 307 308 308 312 310 312 314 310 305 312 313 314 312 309 312 304 305 300 301 307 310 312 320 320 325 325 326 328 332
305 303 310 315 313 304 295 296 300 305 305 301 300 300 303 306 308 308 308 312 313 312 313 310 309 308 313 309 308 307 305 307 308 307 303 302 308 321 323 326 325 326 327 328 328
303 296 311 314 299 300 296 300 301 303 306 304 304 303 301 303 304 307 308 310 315 315 309 312 308 305 307 314 314 311 307 307 302 305 307 308 309 321 323 325 328 327 328 329 330
298 299 309 308 294 295 299 299 300 300 302 302 302 304 305 302 301 305 308 314 315 314 311 314 307 303 304 309 313 309 309 309 307 307 307 304 307 321 326 322 324 327 328 330 331
298 293 300 303 302 297 296 297 297 303 301 303 302 304 303 301 304 303 305 310 314 314 323 316 309 306 302 306 310 308 308 309 307 303 305 308 312 317 321 323 325 327 328 331 339
299 295 298 292 296 297 297 296 294 295 301 303 300 301 300 297 300 300 304 306 310 316 314 312 308 310 308 309 311 310 308 308 307 308 305 308 312 317 320 323 326 329 332 332 336
295 294 299 296 297 295 294 293 293 294 296 295 296 299 301 298 300 296 299 304 306 312 311 314 307 309 307 309 309 308 309 309 309 308 309 309 309 319 323 325 326 323 325 329 332
303 305 296 294 294 292 292 293 293 295 296 300 298 297 296 298 302 303 303 305 307 307 311 310 308 308 303 308 308 303 309 310 309 310 309 306 312 319 319 320 324 332 331 330 330

GFSSW_sfc_thetae_027.txt.gz
Theta_e
318 318 318 318 318 318 318 319 319 320 320 321 321 322 322 323 322 318 316 322 328 355 355 340 340 337 338 336 337 335 318 313 315 313 314 321 324 332 337 333 335 337 337 340 345
318 318 318 318 317 317 318 317 318 318 319 320 320 320 322 323 316 310 324 342 346 356 332 328 326 331 325 326 328 326 315 316 323 321 315 322 326 327 329 330 331 334 339 343 343
316 316 316 316 316 316 317 318 317 317 318 318 319 320 322 321 311 310 354 343 348 352 326 321 320 322 320 321 323 325 318 322 323 325 324 319 321 325 323 325 330 330 334 340 341
315 315 315 315 316 316 316 317 318 317 317 317 319 320 322 317 299 316 355 358 357 339 324 317 314 312 313 313 325 319 323 323 323 326 322 320 322 322 324 325 336 336 335 336 339
315 316 316 316 315 316 316 317 317 317 316 317 318 320 317 310 309 320 352 354 342 328 320 316 311 312 311 315 322 321 323 324 325 325 323 323 320 323 324 335 338 337 336 335 334
316 316 316 316 316 317 317 316 316 316 315 317 319 321 314 300 314 318 331 331 327 321 317 316 315 317 315 316 315 323 325 324 322 322 324 321 320 323 327 336 336 336 335 335 334
316 316 316 316 316 316 316 315 315 315 315 317 320 320 312 305 317 320 323 322 324 320 316 319 319 315 315 313 318 317 314 322 321 316 321 324 318 319 327 333 333 334 335 336 336
316 316 315 315 315 315 314 314 314 315 317 319 323 318 307 317 317 315 315 319 324 320 319 318 319 314 311 313 313 310 308 304 313 316 318 319 311 320 325 328 329 332 333 335 335
315 315 315 314 314 314 313 313 315 318 319 323 318 315 310 327 316 317 317 315 317 318 318 324 316 310 311 305 301 303 300 303 309 317 318 316 312 322 323 326 326 329 331 332 333
314 314 314 313 313 312 311 312 315 319 321 324 323 312 319 313 317 320 320 319 314 315 313 311 309 305 304 301 295 298 300 304 306 315 317 314 314 321 322 323 326 327 329 330 331
314 313 313 312 312 311 308 305 306 306 315 315 313 312 312 319 321 319 320 315 312 307 303 307 301 300 302 304 305 306 305 305 309 318 316 315 315 318 320 321 322 326 327 329 330
313 313 312 312 311 310 307 305 306 306 299 307 308 311 318 320 315 318 319 309 306 302 306 303 300 306 309 308 306 305 304 305 310 317 315 318 316 318 319 319 322 324 327 328 330
313 312 312 311 310 309 303 304 310 308 297 301 305 305 306 310 310 314 315 311 307 305 306 301 304 311 308 306 305 304 303 305 307 315 318 317 315 314 319 322 324 325 327 329 329
313 312 311 309 306 303 304 312 313 309 291 298 303 306 307 308 307 319 319 313 309 305 306 304 309 308 305 304 305 300 309 309 309 310 305 317 305 313 317 320 323 323 324 326 329
313 312 310 309 302 302 308 311 311 305 285 307 307 313 308 304 309 313 320 314 307 307 304 303 306 305 303 304 306 304 310 309 309 306 309 310 305 309 319 317 320 322 324 325 327
312 311 309 306 304 306 309 309 306 291 286 302 310 305 303 304 306 310 313 313 313 309 307 305 311 309 306 308 308 309 307 307 307 305 298 307 306 306 310 318 320 323 325 326 327
310 308 307 307 299 308 307 304 289 287 304 304 304 307 304 301 303 304 305 303 301 299 300 305 305 308 311 303 306 305 299 296 294 296 295 308 307 308 316 320 324 325 325 326 328
308 306 307 309 310 308 305 295 286 297 297 305 305 307 303 305 303 304 302 300 304 303 299 298 296 305 309 305 300 301 300 296 289 292 296 303 302 309 320 323 327 326 326 325 329
307 304 304 307 311 308 299 289 290 296 302 299 300 300 302 307 306 303 301 302 304 304 298 299 299 309 309 310 306 300 298 301 294 297 295 300 304 311 320 320 322 322 324 325 326
302 301 303 310 313 305 296 290 295 300 300 298 293 298 295 297 297 303 302 305 306 307 307 302 297 307 309 310 308 304 302 296 298 290 291 298 300 303 311 317 319 320 321 323 327
302 297 305 309 308 301 290 292 296 301 302 298 296 296 296 296 298 297 299 307 309 308 308 304 301 302 307 304 302 299 300 297 297 298 292 292 298 307 315 319 319 321 324 325 326
299 291 305 307 294 297 293 296 298 298 301 300 300 298 297 298 296 296 297 301 311 312 304 306 301 297 301 308 309 307 301 297 294 290 295 295 298 312 313 321 322 322 323 324 326
294 295 304 303 288 291 296 296 298 296 297 298 297 299 300 297 294 298 300 305 307 305 307 307 301 294 297 302 306 304 305 302 301 296 295 293 298 311 312 320 321 319 322 325 324
296 288 295 299 298 293 292 292 293 299 297 298 297 298 296 296 299 297 298 304 306 305 320 316 304 299 295 298 301 301 304 304 301 295 294 297 298 306 310 315 318 321 323 322 324
297 291 294 288 291 292 293 293 291 290 296 297 295 295 294 290 294 295 299 299 302 307 305 301 299 303 303 304 305 305 305 305 301 301 295 298 299 304 308 315 317 319 320 321 325
292 292 294 291 293 291 291 290 290 291 293 292 291 294 294 293 294 292 295 295 295 299 297 299 297 303 301 304 304 302 305 306 305 304 303 302 301 306 310 319 320 320 321 320 321
301 302 296 291 289 288 288 290 291 293 295 296 295 293 292 294 298 299 299 298 298 296 296 296 295 298 296 302 302 297 302 304 306 307 305 300 304 308 308 313 317 321 319 319 319

GFSSW_sfc_thetae_030.txt.gz
Theta_e
317 317 317 317 317 318 318 318 319 319 319 319 320 320 322 322 321 319 310 316 322 351 357 350 344 340 343 340 335 334 318 312 315 315 317 330 328 334 336 332 333 337 334 337 341
317 317 316 316 317 317 317 318 318 318 318 318 319 319 321 322 316 310 321 339 343 353 332 336 332 333 323 326 331 322 316 316 321 319 316 327 329 330 330 330 331 333 338 340 341
316 316 316 316 316 317 317 317 317 317 317 318 318 319 321 320 308 306 345 343 345 353 328 325 325 328 320 321 326 324 317 321 323 324 322 328 329 332 329 326 330 330 335 339 339
316 316 315 316 316 316 317 317 317 316 317 317 318 319 321 315 295 311 351 358 345 337 325 319 313 307 307 309 323 317 322 322 321 324 320 327 330 329 329 329 335 337 339 339 338
315 315 316 315 315 315 316 316 316 316 316 316 317 319 314 307 306 313 348 352 341 330 321 316 310 306 305 309 321 318 321 324 325 322 321 322 322 328 327 333 337 339 339 338 337
316 316 316 316 316 317 317 316 316 316 315 316 317 319 310 295 309 314 320 329 326 320 317 315 311 310 308 310 315 323 323 323 323 321 323 317 321 323 330 335 335 336 336 337 339
316 316 315 315 316 316 316 315 315 315 316 317 318 318 311 301 312 312 319 320 322 318 313 316 315 310 310 309 314 315 315 322 323 321 319 321 318 324 332 334 331 331 334 338 339
315 315 315 315 315 315 314 314 314 315 318 318 319 317 304 315 314 312 311 312 320 318 318 317 316 312 308 310 309 303 303 299 310 320 322 317 311 327 332 331 328 330 332 333 336
315 315 315 314 314 313 312 313 315 317 320 321 315 310 304 324 314 314 311 311 314 317 314 321 313 308 308 302 298 298 295 299 303 312 319 316 310 326 332 330 329 329 331 332 332
315 314 314 313 313 312 311 312 313 316 320 323 321 307 309 309 318 315 312 313 310 310 311 310 306 302 298 297 292 294 295 298 301 308 318 312 311 322 330 329 329 330 331 331 332
314 314 313 313 312 310 307 301 300 299 311 308 309 310 310 313 319 316 315 312 309 306 302 304 298 298 300 300 301 300 299 299 304 309 315 313 313 316 325 327 327 328 329 330 331
314 314 313 312 311 310 305 301 303 302 294 303 307 309 314 314 311 316 316 308 304 299 300 298 297 302 305 304 302 301 299 300 303 308 313 313 314 316 321 324 326 327 328 329 331
313 313 312 311 309 304 299 299 307 305 292 298 303 303 304 309 307 310 311 307 303 298 300 297 300 306 305 303 302 301 299 300 301 306 315 314 311 313 318 321 325 327 329 329 329
313 313 312 309 300 301 301 305 306 305 288 294 297 301 303 304 300 312 314 309 303 300 300 299 305 304 303 302 303 295 305 304 304 301 302 312 300 311 315 314 317 323 326 327 329
313 312 311 309 299 299 303 305 306 297 285 304 302 307 303 301 304 306 313 308 303 303 301 300 303 303 302 303 306 300 305 304 304 300 300 306 301 305 314 313 314 319 324 327 329
313 311 310 302 299 302 304 303 298 288 284 297 305 300 298 299 302 309 310 311 310 306 304 304 308 306 305 307 307 307 301 300 299 298 295 301 305 301 310 314 317 321 322 327 328
311 309 307 306 296 302 303 299 285 283 298 300 296 299 297 296 299 302 307 305 301 296 298 302 303 304 308 301 303 302 293 289 289 290 291 300 301 306 313 319 321 321 322 325 328
308 307 305 304 303 303 299 290 281 292 293 299 297 300 297 297 297 298 298 303 305 297 296 296 294 302 305 303 300 296 297 291 285 286 290 297 297 306 315 320 324 325 326 325 325
307 299 300 299 304 302 292 284 284 291 295 295 295 294 294 299 297 297 297 298 305 301 294 293 296 305 307 306 305 297 293 298 290 291 290 294 300 307 315 316 323 324 325 324 325
301 295 297 304 304 298 288 286 289 296 297 297 290 294 290 293 294 294 293 300 300 303 302 297 292 302 307 307 306 302 299 292 287 287 287 291 295 299 305 313 316 322 324 325 325
298 290 298 301 299 293 286 287 293 298 299 294 292 291 292 292 294 293 294 299 302 302 304 302 295 297 301 301 300 299 296 294 293 292 290 286 294 302 304 309 314 321 324 324 325
292 285 298 302 286 287 289 291 296 296 299 296 296 294 293 293 292 292 293 297 304 303 297 300 297 294 297 303 306 305 300 295 293 288 290 294 295 305 306 311 318 320 323 325 326
290 288 298 295 282 285 290 293 296 295 294 295 294 296 295 292 289 294 296 303 303 301 298 300 294 291 292 298 302 298 301 301 291 291 293 290 293 304 303 312 317 318 320 323 322
289 284 287 290 295 288 288 290 290 297 295 296 294 295 293 291 293 291 294 300 301 301 309 300 295 293 293 294 298 295 301 300 298 295 293 295 293 298 302 310 316 319 321 321 322
290 285 288 284 287 289 289 289 288 288 293 293 291 292 291 287 290 291 294 295 298 303 298 294 287 292 296 300 302 301 301 302 297 299 295 297 296 298 300 308 314 319 321 321 321
291 288 292 289 288 287 289 287 287 290 291 290 290 292 291 287 290 288 290 290 291 296 293 293 288 291 294 301 302 300 302 303 302 301 300 296 296 301 304 306 311 316 318 318 316
299 300 294 288 284 284 283 287 288 291 293 294 292 291 290 291 294 295 294 295 294 292 292 290 289 289 287 297 299 296 301 302 302 304 302 297 299 303 304 309 311 315 316 318 317

GFSSW_sfc_thetae_033.txt.gz
Theta_e
317 317 317 317 317 318 318 318 318 318 318 319 319 319 320 321 320 318 303 313 318 362 362 354 347 346 345 339 338 336 314 310 314 318 320 330 328 334 336 330 332 334 332 336 340
317 317 316 316 317 317 317 318 318 318 318 318 318 318 319 321 314 310 320 337 347 361 350 344 335 342 334 335 331 320 311 314 319 320 324 329 329 330 329 328 330 331 335 339 341
316 316 316 316 316 317 317 317 317 317 317 317 318 318 319 320 304 302 346 339 346 358 341 338 336 333 320 325 329 323 316 320 322 322 329 328 328 331 328 323 329 328 331 336 338
315 315 315 315 316 316 316 316 316 316 316 317 317 318 320 313 294 307 355 355 347 334 325 325 321 320 315 315 327 318 323 323 321 326 327 327 330 327 328 327 333 334 335 336 336
315 315 315 315 315 315 315 315 315 315 316 316 317 318 312 304 302 309 347 349 339 327 318 314 309 307 303 306 317 319 320 321 324 322 328 331 328 327 329 333 335 336 335 335 335
316 316 316 316 316 316 316 316 315 314 315 316 317 317 307 292 306 312 314 330 328 322 316 314 311 309 305 306 311 319 320 318 321 321 329 327 327 328 330 334 335 335 334 335 336
316 316 316 316 316 316 315 315 315 315 315 317 317 315 309 298 309 309 313 317 325 318 314 315 314 309 307 304 311 313 311 315 320 319 320 324 319 324 330 332 333 333 334 336 337
316 316 315 316 315 315 314 313 314 315 318 319 319 313 300 313 313 309 309 306 317 316 312 315 315 309 306 308 307 302 301 297 306 315 319 318 310 323 331 330 330 333 334 335 336
315 315 315 315 314 313 312 313 314 317 320 321 313 308 299 319 315 315 309 307 311 312 313 321 312 306 305 301 296 296 294 297 301 312 315 314 309 325 330 329 329 331 333 334 335
315 314 314 314 313 312 311 313 313 316 321 320 319 304 307 305 316 314 309 311 308 310 310 309 305 299 297 296 292 294 294 296 299 305 312 310 311 325 328 328 327 330 332 333 334
315 314 314 313 312 310 308 302 299 297 303 305 307 307 308 311 316 314 311 307 306 304 299 302 298 295 299 299 300 299 297 297 301 309 311 309 311 323 326 326 325 326 328 331 333
314 314 313 312 311 310 302 297 300 298 292 301 301 303 308 309 305 308 311 304 302 298 300 297 296 301 303 302 301 298 297 298 300 305 304 307 310 323 325 325 326 326 327 328 330
313 313 312 311 310 302 299 298 303 298 290 296 300 300 301 306 303 305 308 305 301 298 298 298 298 303 302 300 299 297 296 298 298 303 307 309 307 315 324 327 328 329 330 330 330
313 313 311 310 299 300 298 302 302 301 286 293 295 299 301 305 300 310 313 307 301 299 298 296 302 302 299 299 300 293 301 302 300 298 293 309 298 306 317 321 324 326 328 329 330
312 312 310 309 298 297 300 303 304 294 284 302 298 304 300 300 300 304 312 306 300 300 299 296 298 299 298 300 302 299 304 301 300 296 293 299 299 303 312 314 317 322 326 328 330
311 310 309 302 297 300 302 302 295 287 283 297 301 297 296 297 299 304 305 307 306 301 300 301 304 302 301 304 304 304 300 297 296 293 289 297 299 300 308 312 315 318 324 327 329
310 308 306 305 295 300 301 296 285 282 296 296 294 297 295 293 297 301 300 300 298 294 294 298 300 302 304 299 301 299 292 287 285 286 288 295 295 300 307 316 318 318 319 326 328
307 306 304 303 300 301 296 288 279 290 290 297 296 297 295 296 294 296 300 298 303 297 296 293 292 300 303 300 298 295 295 286 282 283 288 293 292 299 311 315 320 322 322 323 327
306 299 296 298 302 299 290 282 283 288 294 294 294 292 291 295 295 295 292 300 303 300 294 294 294 303 305 303 303 295 293 297 287 288 286 291 296 304 309 311 314 319 321 322 324
299 295 293 301 301 295 287 284 287 295 296 294 288 292 287 290 291 291 292 296 296 304 298 295 291 299 303 304 302 300 297 290 284 284 284 287 292 296 304 308 311 316 319 322 324
293 288 296 298 296 290 282 284 291 296 296 292 290 289 289 289 291 290 291 297 301 300 299 292 292 294 300 297 299 295 294 291 291 287 286 283 291 299 304 309 311 316 321 323 324
289 283 296 297 285 284 285 289 295 294 297 293 294 292 290 292 290 290 291 295 302 301 295 297 288 292 296 300 305 301 297 291 288 287 288 292 292 301 306 307 310 314 319 324 326
287 286 296 295 284 284 289 292 294 293 293 292 292 294 294 290 287 292 294 301 300 297 296 298 289 285 288 292 295 297 298 299 297 289 292 288 290 301 303 304 309 312 316 321 325
289 284 287 289 290 287 285 287 288 295 293 293 292 295 292 290 290 289 292 298 298 298 306 297 288 288 287 289 294 293 297 299 296 291 294 294 292 296 299 302 307 313 316 318 321
293 285 286 282 284 286 287 287 286 289 293 293 289 291 290 284 288 288 292 292 296 301 296 292 285 288 292 295 296 297 297 299 295 297 294 297 295 298 299 302 306 311 316 317 318
291 289 292 288 290 283 286 286 286 288 289 289 289 289 289 286 288 285 289 288 289 293 290 290 287 289 290 296 297 296 298 300 300 300 297 296 294 299 303 301 302 306 311 315 317
297 298 293 289 288 285 282 285 286 289 291 293 291 288 287 290 292 292 292 292 291 290 288 287 287 286 284 292 293 292 297 299 300 302 301 296 297 300 300 301 302 304 309 314 317

GFSSW_sfc_thetae_036.txt.gz
Theta_e
317 317 317 317 317 318 318 318 318 319 319 319 319 319 319 320 319 316 302 309 315 354 359 350 346 340 343 337 339 335 314 310 315 316 320 329 326 332 334 329 331 333 331 335 342
317 316 316 316 316 317 317 317 318 318 318 318 318 318 319 320 313 308 318 335 346 362 349 340 338 339 333 334 331 320 310 313 318 322 321 328 328 328 327 326 328 329 336 339 341
316 316 316 316 316 316 316 316 316 316 317 317 318 318 318 319 301 300 338 337 357 359 349 346 343 336 327 329 328 321 316 319 320 322 328 328 328 331 327 322 327 327 332 336 338
316 316 315 316 316 316 316 316 316 316 316 316 317 318 318 312 293 307 352 342 360 351 345 336 339 327 319 315 329 318 323 325 322 322 326 327 330 327 327 325 332 333 335 337 336
316 316 316 315 315 316 316 316 316 315 315 316 317 317 310 302 299 325 354 342 353 335 333 327 330 323 309 312 320 321 323 322 324 322 328 329 327 327 327 332 334 334 335 336 337
317 317 316 316 316 316 317 316 316 314 315 316 317 317 304 289 303 309 332 331 335 326 325 316 324 316 306 304 311 315 322 321 317 318 325 326 326 327 329 332 331 332 332 335 336
317 316 316 316 316 316 316 315 314 314 315 317 317 313 307 295 306 307 327 325 328 320 312 313 313 313 306 302 308 309 306 310 316 317 322 328 321 323 330 332 329 330 332 334 335
315 315 316 316 316 315 314 313 314 316 318 319 319 311 295 309 311 309 306 310 322 317 311 314 312 307 304 305 305 300 299 296 303 316 321 324 314 325 330 330 329 330 331 332 334
315 315 315 315 314 313 312 313 315 321 321 321 310 305 296 317 312 311 306 305 312 312 311 318 311 304 303 299 295 295 293 296 301 312 313 319 309 319 329 328 329 330 331 332 333
314 314 314 314 313 311 311 313 314 319 318 318 317 302 306 304 312 313 307 309 306 307 308 307 303 299 296 295 290 293 292 295 299 303 310 310 309 317 327 327 328 329 330 332 333
314 313 313 312 311 310 307 299 296 296 297 305 304 305 307 309 312 310 308 306 306 303 298 302 297 295 297 297 298 298 296 297 300 305 308 306 308 319 325 326 326 328 329 331 332
313 313 312 311 310 310 300 297 296 296 290 299 299 300 307 305 303 306 308 301 300 297 299 295 296 301 302 300 300 297 296 296 299 303 301 301 308 321 324 325 327 329 329 331 332
313 312 311 310 309 301 297 297 300 297 289 295 298 299 300 303 300 302 305 302 299 296 298 298 296 303 302 299 298 295 296 296 297 300 302 306 304 314 323 325 327 328 331 332 332
312 312 310 309 298 298 295 299 300 299 285 292 294 298 301 301 297 307 308 304 299 299 296 295 302 302 298 298 299 291 299 300 299 295 292 304 294 306 318 320 323 325 325 328 331
312 311 309 308 296 295 297 301 301 292 282 300 294 302 300 298 298 301 310 304 298 298 297 296 298 298 298 300 300 297 302 299 298 294 291 296 296 301 314 316 320 324 326 328 329
311 310 309 301 296 298 300 299 293 287 282 295 298 294 295 295 297 303 304 305 304 299 298 298 301 302 300 301 302 302 298 295 293 291 287 293 295 293 304 316 320 324 327 329 330
310 308 306 304 294 299 299 293 284 281 294 293 292 295 294 292 294 298 298 299 297 291 292 296 298 299 301 297 298 298 292 285 284 285 289 292 293 298 306 314 320 323 325 328 331
307 306 301 302 301 299 294 287 278 289 288 295 295 295 292 293 293 295 295 297 299 296 293 291 289 298 300 297 295 295 292 285 281 282 287 291 290 295 306 315 318 322 325 326 328
306 296 295 298 301 297 289 279 281 286 293 292 292 290 289 293 293 293 291 296 299 295 292 290 291 300 301 301 301 292 292 294 286 286 284 288 294 302 306 307 315 317 319 320 324
297 296 292 300 297 293 286 282 285 293 294 292 286 290 286 289 290 289 290 296 296 300 296 293 290 298 301 302 301 296 297 290 284 282 281 285 289 293 301 305 308 311 317 320 322
291 287 293 298 295 289 280 283 289 295 295 290 288 288 287 288 289 288 289 295 299 298 299 292 291 292 298 297 297 293 291 288 291 286 284 282 288 297 302 305 307 310 315 319 321
287 282 294 295 284 283 285 287 294 293 294 292 292 290 289 291 289 289 291 294 299 298 294 295 286 289 292 297 302 302 295 290 287 285 287 285 289 300 302 306 308 309 313 318 322
287 288 294 294 279 280 285 288 292 292 291 290 289 293 292 289 285 291 293 298 297 296 296 295 287 283 287 294 295 295 297 296 294 287 289 287 290 301 301 303 305 309 312 318 321
286 283 286 291 286 283 282 284 286 293 292 292 291 293 290 288 290 288 291 296 297 298 304 296 287 285 285 287 292 290 295 296 296 292 292 292 293 297 299 301 304 306 310 312 316
288 285 290 280 283 287 284 285 285 285 291 293 290 289 287 282 286 286 290 291 294 299 294 291 285 287 290 293 294 294 294 295 294 296 293 295 295 297 299 301 304 305 310 315 317
290 290 292 287 290 287 286 282 285 286 287 287 288 289 287 283 286 284 286 286 287 292 289 288 285 287 288 294 294 292 295 296 296 296 296 297 295 300 303 302 303 306 308 312 316
298 298 292 289 285 285 285 286 286 287 289 292 290 287 286 289 291 291 291 290 290 287 286 286 285 285 283 290 291 289 294 296 296 298 297 294 298 301 300 301 303 305 305 307 312

GFSSW_sfc_thetae_039.txt.gz
Theta_e
317 317 317 317 317 317 318 318 318 318 318 318 319 319 319 320 319 317 306 314 317 349 356 347 344 342 345 341 340 336 323 319 318 319 323 333 329 334 336 332 333 335 334 338 343
317 317 317 317 317 317 317 317 318 317 317 318 318 318 319 320 314 309 321 331 337 357 346 337 335 339 335 336 337 331 323 320 325 324 325 332 332 331 330 329 329 333 337 341 342
317 317 316 316 317 317 317 317 317 317 317 317 317 318 318 318 306 306 334 335 347 357 345 340 340 336 331 335 333 330 324 326 325 326 330 332 331 334 330 326 330 331 335 338 339
317 317 316 316 316 316 317 317 317 317 317 317 317 317 318 315 299 315 353 339 357 347 343 339 337 330 327 327 334 324 329 329 328 327 328 330 334 330 331 328 334 337 338 338 338
316 316 316 316 316 316 317 317 317 316 316 316 317 317 314 305 301 332 344 342 356 345 336 335 331 329 323 325 327 327 326 326 329 327 327 333 331 332 331 333 337 339 337 337 338
316 316 316 316 316 316 317 316 316 315 316 316 316 315 307 295 307 312 330 340 344 342 336 336 332 332 324 316 321 323 324 322 324 322 328 328 329 332 333 336 336 336 335 337 337
315 315 316 316 316 316 315 315 314 315 316 317 317 313 307 301 310 321 330 337 343 335 332 332 331 330 316 312 316 315 310 312 316 319 321 330 325 327 334 336 334 334 335 336 338
314 315 315 315 315 314 313 313 315 320 319 318 319 313 301 310 313 309 325 326 339 334 328 329 328 328 312 312 310 308 309 306 312 318 322 327 315 328 335 333 331 332 334 336 338
314 314 314 314 313 312 311 312 317 322 322 320 313 310 300 318 309 310 318 321 331 328 320 323 319 315 313 309 304 305 304 304 308 318 322 324 316 325 334 333 331 332 333 335 337
314 314 313 313 312 311 311 311 316 320 318 319 315 305 307 306 313 312 312 321 318 318 313 313 312 307 307 305 297 301 302 305 306 312 318 321 319 321 332 333 332 332 333 334 335
314 313 313 312 311 309 308 306 303 303 301 309 309 306 310 313 318 311 309 314 313 311 304 309 304 301 304 305 306 304 304 305 309 311 311 313 317 320 327 331 332 332 332 333 334
313 313 312 311 310 309 305 300 297 299 294 302 300 302 309 311 306 309 310 304 305 302 306 303 300 305 307 305 303 303 302 304 308 308 308 310 311 316 325 328 331 333 333 333 335
313 312 311 310 309 304 301 300 304 303 294 299 301 302 304 306 304 307 308 306 303 301 301 301 303 307 305 304 303 302 301 304 304 306 308 309 308 314 325 329 332 334 336 336 336
312 312 310 309 303 302 299 303 305 303 292 297 298 302 303 306 302 310 311 307 304 301 302 302 307 304 303 302 304 300 305 304 303 303 301 310 302 311 319 325 328 331 334 335 337
312 311 309 308 302 299 301 305 305 300 285 300 298 306 305 304 304 304 312 309 303 303 303 301 302 302 302 302 306 302 306 305 305 304 303 304 302 308 318 320 325 329 332 335 337
311 309 308 304 303 304 305 304 301 291 285 298 300 298 299 302 301 305 306 311 310 304 305 304 306 306 305 307 307 308 305 304 303 303 296 303 302 305 310 319 324 329 332 333 336
309 307 306 305 298 305 304 299 290 286 297 295 296 299 298 298 299 302 302 302 302 298 298 302 302 306 308 304 306 306 302 295 293 294 294 305 301 304 312 319 321 327 331 333 335
307 306 303 304 306 303 301 292 285 290 291 297 297 297 296 297 298 299 300 299 305 304 300 297 294 302 306 305 302 303 302 296 290 292 295 302 298 304 313 316 322 326 331 334 335
306 302 301 303 304 303 296 284 287 290 292 292 295 293 294 295 296 297 298 300 304 305 300 298 298 304 305 307 307 302 299 305 298 296 295 299 304 309 312 313 319 323 327 331 334
301 297 298 303 302 302 293 285 289 294 295 294 289 292 289 292 294 295 297 298 300 303 304 302 297 304 304 307 307 304 306 297 299 291 290 296 299 302 309 312 315 320 323 327 332
298 294 300 302 301 296 287 287 290 296 296 292 291 290 291 291 293 293 295 297 299 300 304 302 301 300 304 302 301 300 301 302 301 299 293 292 297 309 312 316 315 317 321 325 327
295 289 301 301 290 291 287 288 293 294 297 294 295 294 293 293 292 293 293 296 300 303 299 301 299 299 300 306 308 305 303 302 297 296 298 298 298 309 313 316 318 319 322 324 328
291 291 301 300 285 286 289 288 291 291 292 293 292 294 296 293 290 294 295 299 299 301 299 301 297 296 298 302 304 302 304 304 304 303 299 294 298 312 312 312 315 316 319 322 327
295 287 293 294 293 287 285 286 287 293 292 293 293 294 292 292 295 291 293 297 298 301 304 301 297 297 296 298 299 298 301 304 303 299 299 299 302 307 310 311 315 316 319 321 327
296 290 292 286 288 289 289 287 286 286 291 293 288 289 287 287 290 290 292 293 297 300 299 298 293 294 295 296 296 297 298 299 299 302 300 302 304 306 310 312 316 319 321 320 322
293 291 293 288 290 289 287 286 286 287 288 287 289 289 289 288 288 288 291 292 291 296 295 297 292 295 292 295 296 295 298 299 299 300 301 302 302 310 313 315 315 318 319 318 320
300 301 293 289 288 287 287 287 287 289 290 291 289 288 287 290 292 294 294 294 294 292 292 292 292 291 288 294 294 292 298 299 300 302 302 299 305 311 310 312 314 319 321 321 323

GFSSW_sfc_thetae_042.txt.gz
Theta_e
318 318 318 318 318 318 319 319 319 319 319 319 319 319 319 320 320 320 312 319 322 346 354 342 346 346 347 343 344 339 326 321 320 321 327 336 333 337 338 335 336 338 338 343 347
317 317 317 317 318 318 318 318 318 318 318 319 319 319 319 319 317 312 326 338 337 353 334 335 334 340 337 337 340 332 325 322 327 327 328 334 334 334 332 333 333 336 341 345 345
317 317 317 317 317 317 317 317 317 317 318 318 318 318 319 320 312 311 334 338 341 355 330 336 334 335 329 334 334 330 324 327 327 329 332 334 334 337 331 328 333 334 338 342 343
316 316 316 316 316 316 316 317 317 317 317 317 318 318 318 318 302 319 347 339 344 335 329 332 332 329 325 326 332 325 328 330 329 328 329 332 336 334 333 331 337 340 341 342 341
315 315 316 316 315 316 317 317 316 316 316 317 317 317 317 310 307 323 339 339 335 331 328 329 328 326 321 325 327 327 325 328 330 329 327 332 332 332 334 336 338 342 341 341 342
315 316 316 316 316 316 316 315 315 315 316 317 317 316 313 303 314 315 326 333 334 331 327 329 328 328 323 323 323 326 326 325 327 327 326 327 330 334 336 339 337 339 339 341 341
315 316 315 315 315 316 315 314 314 315 320 320 318 317 311 310 313 315 325 332 336 332 325 329 331 327 324 321 321 324 317 318 319 323 321 329 325 329 337 339 338 337 339 340 342
315 315 315 315 315 314 313 313 314 320 321 318 319 317 310 317 319 320 323 326 336 335 329 331 330 329 322 319 315 314 315 311 319 321 322 325 318 331 338 338 337 337 338 338 341
315 315 315 314 314 313 311 313 318 322 320 320 317 315 309 316 309 314 327 323 331 332 331 330 328 322 323 313 310 311 308 311 316 320 321 323 319 328 338 337 336 338 337 337 339
314 314 314 313 312 311 311 313 321 322 321 322 318 309 312 310 314 312 324 324 326 326 320 322 318 313 315 313 303 307 308 312 313 318 321 321 321 325 333 335 336 337 337 338 338
313 313 313 312 311 310 310 312 311 312 308 312 315 312 313 316 318 310 318 323 327 319 308 313 307 305 307 311 312 311 310 310 315 319 317 318 320 323 327 332 332 336 337 338 338
313 312 312 311 310 310 311 305 302 301 297 306 306 309 318 317 312 312 318 312 314 308 310 307 304 309 311 310 309 309 308 309 315 316 315 316 316 321 324 328 332 335 337 338 339
312 312 311 310 309 309 307 304 309 308 298 304 308 307 308 312 310 311 312 312 310 308 307 305 307 310 309 308 307 307 307 309 310 314 315 314 313 316 320 325 330 334 338 339 339
312 311 310 308 308 308 304 309 311 309 296 301 302 306 309 312 307 317 311 311 309 307 308 307 310 308 307 306 308 304 309 309 309 309 306 314 306 316 319 322 327 330 335 338 340
312 311 309 307 307 304 306 310 310 307 288 304 303 312 310 309 312 310 316 309 306 306 309 305 306 306 305 306 308 305 310 308 308 307 308 309 307 312 319 318 324 329 333 337 340
311 310 308 308 309 308 310 310 308 294 288 301 302 302 302 306 308 311 311 312 311 307 308 307 311 310 308 310 309 310 308 308 307 306 300 307 308 309 313 318 322 328 332 336 339
309 307 308 308 303 310 309 305 292 288 300 298 300 302 303 303 305 306 306 305 305 301 301 305 306 310 311 307 310 308 305 298 297 298 298 309 306 310 316 319 323 325 330 335 339
307 305 307 308 310 309 306 296 286 293 295 300 299 300 299 303 303 304 304 303 307 307 304 300 298 306 310 308 306 306 305 300 294 296 299 307 302 308 318 320 322 326 328 335 338
306 308 308 308 310 309 300 289 289 294 296 295 298 297 300 300 301 302 303 304 307 310 304 303 303 309 310 310 310 306 303 308 302 304 300 304 307 313 316 318 320 321 324 328 335
306 304 304 309 310 306 295 288 292 296 297 297 292 296 295 297 298 300 302 303 306 310 311 309 303 308 308 311 311 309 310 301 303 296 295 301 303 305 311 314 318 319 323 327 332
305 299 305 309 308 299 290 290 292 296 297 294 293 294 296 296 298 299 300 301 304 307 308 308 307 306 308 305 305 306 305 306 306 303 298 297 302 313 313 317 317 320 324 328 332
302 293 305 307 296 296 291 292 293 294 297 296 297 294 295 297 297 298 298 300 303 305 304 309 307 304 304 309 311 310 307 307 301 301 303 303 304 313 314 316 320 321 324 328 331
298 298 306 304 289 290 293 292 293 292 292 293 294 296 297 295 294 297 299 302 302 304 304 308 303 300 303 306 309 306 308 308 307 307 304 300 303 315 316 315 319 321 323 326 329
299 292 299 300 299 292 290 290 290 294 293 293 292 296 295 293 298 295 297 299 301 302 304 304 305 304 301 304 307 304 306 307 306 303 304 304 306 311 312 314 318 319 321 323 326
300 293 295 289 291 292 290 290 288 287 293 294 291 290 290 291 293 293 296 298 300 302 303 303 301 303 306 302 302 306 305 306 305 307 303 307 308 312 314 315 317 319 320 321 324
296 293 297 294 293 290 290 288 288 289 289 289 289 289 290 289 291 290 293 296 296 300 299 302 299 300 300 302 301 300 304 305 307 308 308 308 309 316 317 318 318 319 319 320 321
304 302 297 292 291 288 289 288 289 290 292 293 292 291 290 291 294 296 298 298 298 296 297 297 297 297 296 302 301 297 302 304 306 308 308 305 311 315 315 315 317 319 321 321 323

GFSSW_sfc_thetae_045.txt.gz
Theta_e
318 318 318 318 318 318 318 319 319 319 320 320 320 320 320 321 320 321 314 322 326 346 349 335 339 345 345 340 343 341 325 318 319 320 324 331 327 333 338 336 338 339 342 345 348
317 317 317 317 317 317 317 317 318 318 318 319 319 320 320 320 318 314 327 343 346 349 336 329 333 339 336 335 336 332 322 320 328 328 325 331 330 329 331 333 334 338 345 346 347
316 316 316 316 316 316 316 316 317 317 317 318 318 319 319 321 316 315 348 341 344 345 327 331 332 334 330 332 332 331 323 325 327 330 331 330 332 333 328 329 333 336 341 343 345
316 316 315 315 316 316 316 316 316 316 316 317 318 319 319 320 305 328 348 346 344 324 324 325 328 327 326 325 331 325 328 329 327 330 329 328 334 332 331 329 337 340 344 343 343
315 315 316 316 316 316 317 317 316 315 316 316 318 318 318 314 312 327 342 343 327 320 321 321 323 324 322 325 328 326 326 329 332 330 329 331 330 332 331 334 338 341 343 342 343
315 316 316 316 316 317 317 316 316 315 316 318 319 318 315 309 323 321 324 327 322 324 321 324 323 327 325 325 324 327 327 327 330 329 328 327 330 332 335 337 337 339 340 342 343
315 316 316 316 316 316 315 315 314 317 321 322 322 318 315 315 321 318 324 325 327 327 321 326 327 326 327 323 327 327 322 325 327 328 326 328 324 327 336 338 336 338 339 341 342
315 315 315 315 315 315 314 314 315 321 321 321 320 318 314 325 328 319 321 326 332 332 328 328 329 326 325 327 323 321 322 317 323 324 326 326 317 328 337 338 336 338 338 339 341
314 314 314 314 314 313 312 313 316 322 319 320 320 318 315 321 316 322 321 320 330 331 331 328 326 323 323 318 315 316 311 315 318 324 324 322 319 322 337 337 336 338 338 337 339
314 314 314 313 312 312 311 313 320 320 323 324 323 313 317 315 319 318 322 322 323 327 324 323 321 317 318 316 306 309 310 314 314 321 322 320 320 327 334 334 335 338 339 338 337
314 313 313 312 311 310 312 314 311 315 318 314 316 314 317 321 320 315 322 322 323 324 316 320 314 311 312 317 317 314 312 312 317 322 320 320 320 324 330 332 331 335 338 338 338
314 313 312 312 311 310 312 307 305 306 299 307 307 308 316 321 315 313 320 316 318 315 318 313 310 314 315 314 315 314 312 312 316 320 320 319 320 325 326 330 332 333 337 338 339
313 312 311 310 310 310 309 307 312 311 300 303 308 308 309 317 314 315 315 317 316 315 312 308 312 315 311 310 310 313 311 312 312 317 321 318 317 319 325 327 332 332 339 339 340
313 312 311 309 307 310 307 311 313 312 296 301 306 308 311 312 311 320 315 317 316 314 313 310 313 310 309 308 310 306 313 313 312 312 309 317 307 317 321 322 326 329 334 337 340
312 311 309 307 311 308 308 311 312 309 288 306 306 315 313 308 313 314 318 315 310 311 314 308 309 309 308 308 311 308 313 312 312 311 312 312 310 315 320 318 322 327 329 336 339
311 310 309 310 311 310 311 311 309 295 288 303 306 305 306 308 310 315 314 314 316 311 313 312 315 313 311 312 312 313 310 310 310 309 303 310 311 312 315 320 322 327 330 332 338
309 307 308 310 305 311 311 306 292 287 302 301 301 306 306 306 306 311 310 305 304 302 304 308 310 313 314 309 312 310 307 300 299 300 300 310 308 312 319 321 324 325 329 332 338
307 306 311 311 311 311 308 298 286 293 296 302 301 301 299 305 307 308 308 306 307 307 306 303 300 310 312 310 308 308 307 301 296 297 301 309 305 311 320 323 325 328 329 332 335
306 312 311 309 311 310 302 290 290 294 296 295 298 299 300 305 305 307 306 306 308 308 303 304 304 312 312 312 312 308 305 310 305 306 303 305 310 315 319 320 322 323 327 330 333
309 308 310 310 311 307 298 291 292 296 296 296 291 297 296 301 302 304 305 309 309 311 313 310 305 311 311 313 312 311 312 303 305 299 299 304 306 307 313 316 320 321 324 328 333
308 302 308 310 310 302 291 292 294 297 297 294 292 293 294 294 298 302 304 306 308 311 313 311 310 310 312 308 307 307 308 308 308 306 301 300 305 315 316 318 318 321 324 326 329
306 297 309 310 297 300 292 293 294 295 297 295 296 296 294 296 296 298 300 304 305 308 307 312 309 306 308 312 313 312 309 309 304 304 305 306 307 317 318 318 320 321 324 326 330
302 302 310 306 292 293 295 294 295 294 293 293 292 295 298 295 293 297 301 305 305 307 307 312 307 303 306 309 311 309 310 311 310 309 306 302 306 318 317 318 321 321 324 328 331
302 295 301 302 300 294 292 292 290 296 293 295 294 297 295 294 297 296 297 302 304 305 307 308 307 306 304 307 309 306 308 310 310 306 306 307 309 313 315 316 320 322 325 327 331
301 296 299 293 295 295 294 293 289 289 294 296 293 293 291 290 293 291 296 301 304 304 307 307 304 307 309 311 310 309 308 309 307 309 306 309 310 314 316 318 320 323 324 324 326
297 295 297 295 296 293 292 291 290 290 292 291 290 292 293 291 292 287 294 297 297 303 303 307 301 307 306 310 307 306 309 309 309 309 310 310 311 319 320 320 320 321 321 321 322
304 302 298 294 293 291 292 292 291 294 294 295 294 292 291 293 297 299 299 300 299 298 298 301 302 304 301 307 306 302 307 309 310 312 311 308 314 319 318 318 319 321 322 321 324

GFSSW_sfc_thetae_048.txt.gz
Theta_e
317 317 317 317 317 317 318 318 318 319 319 319 319 320 321 322 321 319 311 318 324 344 344 331 325 334 343 341 340 338 324 317 319 319 321 329 328 334 338 336 339 342 339 342 345
317 317 317 317 317 317 317 317 318 318 318 318 319 319 320 321 317 314 325 340 346 345 318 323 320 328 333 334 333 330 321 319 325 325 324 327 326 330 330 331 335 339 343 343 344
316 316 316 316 316 317 317 317 317 317 317 317 318 319 319 320 314 314 350 337 343 342 319 325 325 327 329 331 330 328 322 323 327 327 330 327 326 332 329 326 337 336 339 341 342
315 315 316 316 316 316 316 317 317 316 317 317 317 318 319 318 305 321 350 351 344 323 318 320 323 323 325 324 329 323 328 328 326 330 329 328 331 326 329 329 339 341 342 342 341
315 316 316 316 315 316 317 317 317 316 316 317 318 319 317 312 312 324 350 347 328 318 315 317 319 321 320 324 326 324 327 329 330 330 331 330 326 327 327 334 340 342 342 341 341
316 316 316 316 316 317 317 316 316 316 318 321 320 319 313 308 326 327 325 330 321 316 315 318 317 324 323 323 322 326 327 327 330 328 329 328 329 328 328 334 337 339 339 341 341
316 316 316 316 316 316 316 316 315 315 320 324 323 319 312 312 327 322 324 325 326 320 314 319 319 321 323 321 326 325 320 324 326 327 326 327 324 326 331 333 333 336 338 339 342
316 316 315 315 315 315 314 314 314 316 324 322 324 318 309 327 326 325 318 320 324 323 319 322 322 321 320 325 324 320 320 315 324 326 327 325 316 328 331 330 332 334 336 338 339
315 315 315 314 314 313 313 313 315 318 323 320 319 315 312 328 321 325 322 318 322 324 324 325 323 318 320 316 315 317 311 314 317 326 324 323 317 327 332 328 333 333 334 337 339
315 314 314 314 313 312 311 313 320 320 321 323 323 314 317 316 322 323 325 318 320 323 322 321 318 313 315 313 306 310 311 314 314 321 321 319 318 326 327 328 332 334 335 336 337
315 314 313 313 312 311 311 313 306 313 308 308 314 312 315 323 323 319 322 317 318 322 314 318 311 308 311 314 315 315 314 311 315 321 318 317 320 323 326 327 328 332 336 334 336
314 313 312 312 311 311 310 306 304 306 299 306 306 307 312 318 312 316 320 312 311 311 317 314 309 314 315 315 314 314 312 311 314 319 319 318 318 325 325 324 328 333 332 337 336
313 313 311 311 310 311 310 307 311 310 299 300 305 305 306 310 309 315 315 314 310 309 313 311 313 317 314 313 310 312 311 311 311 315 320 318 314 320 327 330 326 327 337 338 338
313 312 311 309 308 311 307 310 311 310 293 298 303 307 307 308 306 319 317 316 313 309 312 313 316 313 312 310 311 306 315 314 313 311 306 318 306 318 321 323 327 331 335 335 338
312 311 310 308 308 308 307 310 310 308 285 306 307 315 311 305 309 310 321 314 310 311 313 312 313 311 310 310 312 308 314 313 313 310 310 310 310 314 322 319 322 328 330 336 337
311 310 309 311 311 311 310 310 307 293 285 301 308 306 306 306 306 311 313 316 316 313 314 313 318 313 311 313 312 313 310 310 311 309 303 308 310 310 315 320 321 326 328 335 337
310 308 307 312 306 311 310 305 291 286 298 296 297 301 301 303 305 306 308 307 305 303 306 311 313 313 313 309 311 310 306 299 298 299 300 309 308 313 319 323 323 325 327 331 338
308 306 313 313 312 310 307 297 286 292 293 298 297 297 297 302 304 306 304 306 307 308 305 302 302 311 312 310 308 307 306 300 294 296 299 308 304 310 321 324 326 327 328 331 334
306 312 312 312 311 309 301 290 290 292 295 293 294 293 295 299 300 303 304 305 308 308 304 304 304 313 314 313 312 307 303 309 303 304 300 304 308 314 319 320 323 323 328 330 331
307 309 310 313 311 307 298 291 293 297 296 294 288 292 288 292 293 296 300 308 308 309 311 308 303 310 312 314 312 310 311 302 304 297 297 302 306 307 313 317 320 321 323 328 333
308 304 309 312 310 302 293 293 294 297 297 293 291 290 290 290 292 293 299 304 307 310 312 308 306 307 311 308 306 307 307 306 306 304 299 299 303 316 317 318 320 322 324 326 331
305 299 312 310 297 298 294 295 295 295 298 296 296 292 291 293 292 293 295 301 308 306 305 311 306 302 306 313 313 310 308 309 303 302 305 305 305 317 319 321 321 322 325 326 330
300 303 310 308 292 293 296 295 296 294 294 293 292 293 294 291 289 294 295 303 304 304 303 306 305 300 303 310 311 308 309 309 310 307 305 301 304 319 318 320 322 322 324 328 333
302 295 302 302 301 296 294 293 291 297 294 294 294 295 292 290 293 291 293 299 303 304 313 308 305 304 301 306 311 307 308 309 308 305 305 306 308 313 315 316 321 324 325 328 332
301 296 298 292 295 295 295 293 291 290 296 295 293 293 291 287 289 290 293 295 298 306 306 307 302 306 308 310 311 308 307 308 307 309 305 309 310 314 316 318 322 326 328 328 331
297 294 297 295 296 294 294 292 291 292 292 291 291 293 293 289 291 289 292 292 293 299 300 305 302 306 305 308 309 308 308 308 309 309 310 310 311 319 320 323 324 326 325 328 330
305 302 295 292 293 291 292 293 293 295 295 295 294 292 291 292 296 297 297 297 297 296 297 300 301 301 299 307 307 304 308 309 310 311 311 308 315 320 319 320 323 326 325 326 325

GFSSW_sfc_thetae_051.txt.gz
Theta_e
317 317 317 317 317 318 318 318 318 319 319 319 319 319 320 321 320 316 309 314 318 336 349 332 325 325 339 339 342 341 321 315 317 318 321 329 329 337 340 335 337 338 336 334 336
316 316 316 316 317 317 317 317 318 318 318 319 318 319 319 321 314 310 321 334 336 340 320 312 319 318 319 333 334 330 319 321 325 324 323 327 327 329 333 334 332 335 339 337 336
316 316 317 316 316 316 317 317 317 317 318 318 318 318 319 318 310 311 341 335 339 346 321 315 314 316 313 325 328 327 319 327 325 328 329 325 324 331 331 329 333 331 334 337 337
316 316 316 316 316 316 316 317 317 317 317 317 318 318 318 314 302 316 347 347 339 331 319 314 310 312 311 315 327 320 325 326 326 328 324 322 328 327 329 334 339 338 338 338 339
316 317 317 317 317 317 317 318 317 316 317 318 321 318 314 306 307 323 350 351 331 325 315 309 308 312 310 318 324 321 323 328 328 328 324 327 325 327 333 339 340 339 339 338 339
317 317 317 316 317 317 317 317 316 315 317 319 323 318 309 301 320 322 330 331 326 319 313 311 311 314 314 318 320 323 323 325 326 328 328 324 325 326 335 340 337 337 337 338 339
317 316 316 316 316 316 316 316 316 316 316 319 323 318 309 303 320 321 324 321 319 316 310 312 315 311 316 313 321 322 317 320 326 327 325 328 321 324 332 338 336 336 337 338 339
316 316 316 316 315 315 315 314 315 317 317 321 323 317 305 318 318 317 319 322 319 316 313 312 314 312 309 317 317 314 315 310 318 324 327 325 315 324 332 334 333 336 337 338 337
315 315 315 314 314 313 313 313 317 322 318 321 316 312 305 325 315 319 320 315 319 317 315 318 312 308 309 307 306 308 305 308 313 322 322 321 318 325 331 331 330 332 336 336 337
315 314 314 313 313 312 312 314 318 318 321 321 319 308 313 309 317 321 322 320 313 314 313 310 308 305 305 304 297 302 305 308 309 317 320 317 320 324 328 329 330 332 332 333 336
314 313 313 312 312 311 308 304 299 301 302 296 299 306 302 314 314 319 321 317 311 311 305 309 304 301 304 306 308 310 309 308 312 317 316 315 318 322 326 324 325 330 328 332 333
313 313 312 312 311 310 308 301 300 301 294 301 302 302 305 307 303 310 320 311 306 304 310 308 303 309 310 309 308 309 307 308 312 316 314 315 316 322 325 325 327 330 327 328 333
313 312 312 310 310 309 306 302 306 304 293 297 300 300 301 303 300 303 310 312 305 303 309 305 308 314 310 307 306 307 305 307 307 312 312 311 314 316 321 325 325 329 328 328 331
312 312 311 309 306 305 305 308 306 305 288 295 297 303 305 303 299 309 312 311 308 301 306 309 313 311 309 306 307 302 311 311 310 307 300 311 300 313 317 320 322 325 326 330 331
312 311 309 308 303 303 307 309 306 302 280 300 300 310 304 299 301 303 311 309 304 304 304 304 310 309 307 308 310 306 311 309 310 307 302 305 304 310 320 317 319 323 326 327 332
311 310 309 307 307 308 309 307 303 287 282 294 299 297 296 298 301 307 305 309 310 306 307 306 314 313 311 313 313 313 308 306 307 305 297 302 301 304 312 318 320 322 324 328 332
309 307 307 309 303 309 309 301 287 282 295 292 292 294 293 293 297 299 298 300 300 296 299 305 307 313 315 308 311 308 302 294 293 294 294 300 298 301 313 319 322 323 325 331 334
307 306 310 311 311 310 302 293 283 290 290 295 293 293 290 294 294 294 293 295 304 302 298 297 297 307 314 308 304 305 301 291 285 289 293 299 296 302 313 317 323 326 330 333 334
307 308 309 311 313 308 296 286 286 289 293 291 291 287 288 291 292 292 292 293 301 305 296 297 298 312 312 312 307 301 298 301 292 296 291 294 300 306 310 312 317 320 323 331 333
304 305 307 313 309 302 293 289 292 295 294 292 285 289 286 288 289 289 290 296 297 302 301 300 294 307 311 314 309 304 304 295 296 288 288 294 296 299 304 307 311 313 320 325 333
303 300 307 312 306 298 289 291 293 296 295 291 289 287 288 288 290 289 290 294 300 298 300 298 298 298 306 306 305 301 299 299 295 293 289 289 295 307 307 309 310 313 318 323 331
301 294 309 311 296 296 291 293 295 294 296 293 293 291 289 289 288 288 288 293 300 298 292 298 296 295 298 306 311 306 302 301 295 291 293 292 296 311 310 313 314 315 316 321 329
296 299 309 306 290 291 294 294 295 293 293 292 289 292 292 289 287 290 292 298 299 296 294 297 293 292 295 299 304 304 304 303 299 297 294 292 294 311 311 313 314 314 316 318 324
299 292 299 300 298 293 290 291 291 296 294 294 291 293 291 288 291 289 289 295 298 296 304 302 294 292 292 296 300 301 304 304 300 297 295 297 298 306 309 311 313 314 316 318 323
299 294 296 289 291 291 293 292 290 290 295 294 291 291 289 286 286 288 291 292 295 298 297 294 289 297 301 303 304 304 304 304 301 300 298 299 302 306 306 312 316 316 318 321 322
295 294 295 291 293 292 292 290 290 291 292 290 290 290 290 287 288 286 290 290 290 293 292 293 289 295 299 305 305 304 306 306 304 304 302 303 301 311 314 316 316 317 320 323 324
304 302 294 291 290 289 290 291 292 293 294 295 293 290 288 290 294 294 294 293 293 292 290 289 291 290 292 301 302 298 305 305 305 307 305 300 304 312 312 316 315 317 317 317 322

GFSSW_sfc_thetae_054.txt.gz
Theta_e
316 316 316 316 317 317 317 318 318 318 319 319 319 319 319 320 320 315 308 312 315 330 354 345 337 330 340 336 341 342 323 316 318 318 320 330 328 336 339 333 336 337 333 334 337
316 316 316 316 316 317 317 317 318 318 318 318 318 319 319 319 313 309 317 329 334 336 330 328 324 322 326 331 334 331 319 321 325 323 322 327 331 333 332 332 331 331 336 336 336
316 316 316 316 316 316 317 317 317 317 317 318 318 319 318 317 308 310 330 333 338 340 321 315 319 315 310 316 329 328 322 326 327 326 326 325 324 334 331 327 330 326 329 332 333
316 316 317 316 316 316 317 317 317 317 317 317 318 320 318 312 300 313 345 341 339 328 317 313 308 305 305 308 318 319 326 328 328 328 325 323 326 331 333 332 336 332 332 332 336
316 317 317 317 317 317 317 317 317 316 317 317 319 319 314 305 304 318 346 351 331 325 315 310 305 303 304 308 312 316 322 327 328 328 325 326 326 327 330 337 336 332 332 332 335
317 317 317 316 317 317 317 316 316 316 317 317 319 319 308 299 314 317 322 331 323 319 315 311 306 307 307 309 310 320 320 323 326 326 327 324 324 331 334 337 334 332 330 333 337
316 316 316 316 316 316 316 315 315 317 319 317 320 317 309 302 313 314 314 325 323 316 311 314 310 308 308 307 315 314 314 319 321 326 325 327 321 329 336 337 333 332 333 336 338
316 316 315 315 315 315 314 314 315 319 319 317 323 316 303 317 317 315 314 314 322 319 310 314 312 306 304 308 307 309 309 305 314 324 326 324 315 329 335 334 332 333 334 335 337
315 315 315 314 314 314 312 313 317 321 319 322 313 310 303 321 315 316 316 316 315 312 310 315 307 302 303 300 296 301 300 303 309 324 324 322 318 330 336 333 331 332 333 334 335
314 314 314 313 313 312 312 314 316 318 320 321 319 306 307 306 307 310 316 318 313 310 307 306 301 296 298 295 291 295 299 302 306 318 321 320 319 328 331 333 332 332 333 333 334
314 313 313 312 312 311 308 300 296 293 297 293 295 306 303 305 307 309 311 315 311 307 300 303 298 294 298 300 300 303 302 303 309 315 319 319 318 323 330 330 331 332 334 334 334
313 313 312 312 311 310 304 295 294 297 290 298 299 299 301 300 298 302 308 309 306 301 303 300 297 301 304 303 302 302 302 303 309 314 312 318 317 323 326 327 330 330 329 333 335
313 312 311 310 310 304 300 300 303 295 287 294 298 297 298 299 297 298 302 305 304 299 302 300 303 307 306 303 302 302 300 303 304 310 310 318 314 318 323 324 327 331 332 333 331
312 312 310 309 301 301 300 303 306 297 283 291 296 300 300 300 296 306 304 303 304 300 300 302 308 307 305 304 305 298 306 307 307 303 299 310 304 313 318 319 324 326 330 330 332
312 311 309 309 298 299 303 303 305 295 277 297 296 303 299 295 298 301 307 302 299 300 299 299 305 305 304 306 308 303 307 306 306 302 297 303 303 310 318 315 319 325 329 329 330
311 309 309 304 300 303 305 305 295 284 280 291 296 293 293 294 295 300 299 302 303 301 301 301 307 310 308 311 310 309 305 304 304 298 293 301 298 303 312 316 319 323 327 328 325
309 308 307 307 297 302 303 294 283 279 292 289 288 291 289 290 292 295 293 292 290 289 294 301 302 305 312 307 309 308 298 293 289 291 291 300 296 300 316 320 321 322 326 328 327
307 307 306 308 304 304 296 288 278 288 286 290 290 290 288 291 290 292 290 288 296 294 291 293 292 301 306 307 305 303 302 291 286 286 292 295 292 299 317 322 325 325 327 328 327
307 301 301 305 307 302 290 281 282 287 289 288 288 285 285 290 290 290 288 289 294 296 287 286 293 305 307 308 309 303 299 300 289 289 288 292 296 302 307 317 323 324 326 326 327
301 297 298 307 307 295 287 285 287 293 291 290 284 287 282 285 287 287 288 294 293 297 297 292 287 300 305 309 309 306 302 293 289 287 283 289 291 296 301 303 314 320 324 326 327
295 292 301 308 301 291 282 284 290 295 294 289 286 284 283 284 284 285 288 293 296 295 296 292 289 294 299 301 302 298 300 297 296 290 289 285 292 300 301 303 304 313 324 326 329
293 287 301 306 290 288 286 290 295 292 293 291 290 287 285 287 285 286 288 292 297 296 290 294 292 287 294 302 304 308 297 298 294 288 288 290 295 306 306 306 308 308 322 327 332
292 290 300 298 284 285 289 291 295 293 292 291 289 289 289 286 283 289 291 296 297 295 292 294 291 283 290 292 298 296 304 296 293 291 289 291 294 304 304 307 309 310 314 329 332
291 286 292 293 292 287 286 288 289 296 294 293 290 289 287 284 288 286 289 294 296 295 298 296 289 287 283 289 295 294 299 299 299 293 292 294 296 301 304 306 308 309 314 325 331
291 286 290 285 288 289 289 289 289 289 294 294 290 289 286 282 283 285 290 291 293 296 295 291 285 286 289 292 295 297 301 301 296 297 295 297 297 300 303 308 308 310 313 322 329
290 289 293 291 292 289 289 288 289 291 291 289 289 291 291 282 285 284 288 288 288 293 290 291 284 286 285 297 299 299 303 303 301 299 298 297 298 304 306 312 312 313 315 323 329
296 297 294 292 290 288 288 290 290 291 293 294 292 290 288 289 291 292 293 292 292 291 290 288 284 283 283 296 300 295 300 303 301 302 301 296 300 306 309 311 311 313 317 317 323

GFSSW_sfc_thetae_057.txt.gz
Theta_e
317 316 317 317 317 317 317 318 318 318 319 319 319 319 319 318 319 314 305 311 315 330 344 326 340 333 339 335 339 341 319 314 317 318 320 329 327 334 338 332 335 334 329 334 337
316 316 316 316 317 317 317 317 317 318 318 318 318 319 318 318 311 307 315 327 329 340 339 333 329 328 328 331 333 328 318 320 326 323 322 328 330 332 331 330 329 328 332 336 336
316 316 316 316 317 317 317 317 317 317 318 318 318 319 319 316 306 307 330 328 335 337 338 332 325 319 315 322 329 328 320 326 327 325 328 328 328 334 330 326 328 325 329 333 333
316 316 316 316 316 317 317 317 317 317 317 317 317 319 317 310 295 313 348 333 338 326 319 316 314 308 306 310 318 320 327 330 329 328 326 325 327 331 332 331 334 331 333 333 331
315 316 316 316 316 317 317 317 317 316 317 317 317 318 312 302 301 313 345 334 330 315 313 308 304 304 303 306 313 316 321 324 327 327 326 327 327 331 332 335 334 332 333 332 333
316 317 316 316 317 317 317 316 317 316 318 318 317 319 307 294 309 315 327 326 323 315 310 308 304 305 303 304 310 314 315 318 321 321 325 324 327 331 333 332 331 330 330 332 335
316 316 316 316 316 317 316 315 316 317 321 320 318 316 307 301 314 314 313 320 322 314 308 310 308 305 304 304 310 310 308 311 315 320 324 326 322 327 333 330 328 328 328 332 335
316 316 316 315 316 315 315 314 316 319 318 318 321 315 303 316 316 317 312 310 321 318 308 312 309 303 302 305 304 304 304 300 310 317 324 322 312 329 332 328 325 327 328 331 334
315 315 315 315 314 314 313 314 317 320 322 322 312 307 302 320 312 310 313 312 317 314 311 315 306 299 300 298 294 295 295 301 306 318 322 319 317 330 333 329 325 326 327 331 334
314 314 314 313 312 312 312 314 316 321 320 320 318 301 302 299 302 305 308 315 311 310 308 303 300 294 293 293 292 292 295 299 302 315 320 317 317 329 331 330 328 327 328 331 333
314 313 313 312 311 311 307 296 294 292 294 290 293 300 299 301 304 304 305 310 309 303 296 299 293 292 295 298 298 298 299 301 306 315 317 316 318 326 329 329 328 329 330 330 332
313 312 312 311 310 310 302 296 297 298 289 297 297 297 299 297 296 301 303 305 305 298 300 296 293 298 299 299 298 297 295 297 304 311 316 316 316 325 329 328 329 329 330 332 332
312 312 311 310 310 303 298 297 301 294 286 292 295 296 297 296 295 299 301 300 301 299 300 296 299 302 300 297 297 296 296 297 300 307 313 312 312 319 326 330 331 332 333 333 332
312 311 310 309 300 299 298 299 301 297 283 290 293 296 297 297 294 303 303 299 299 299 301 299 305 302 299 298 299 293 302 302 302 301 297 313 300 313 319 323 324 329 332 333 334
312 311 309 308 297 297 300 301 300 293 276 295 293 300 296 292 295 297 303 300 294 296 295 297 301 300 299 300 303 299 304 302 302 298 297 304 304 307 317 317 320 323 329 332 334
311 310 309 302 298 301 302 299 294 283 278 289 292 291 291 292 294 297 297 301 302 299 298 297 303 304 303 306 306 307 302 300 298 296 291 298 300 296 311 315 319 323 325 329 332
309 308 306 306 295 302 300 292 282 278 290 287 286 289 289 287 290 293 292 293 291 288 289 295 298 302 305 302 306 305 296 288 287 288 291 297 297 301 314 320 321 322 324 327 331
308 306 304 307 305 303 294 288 277 287 284 288 288 288 286 289 287 290 288 288 294 292 288 285 289 299 303 302 300 301 296 289 283 285 289 296 292 298 312 322 324 325 326 327 329
307 298 299 302 305 298 290 280 280 285 288 287 286 284 283 288 288 287 287 289 293 293 286 286 288 297 300 304 305 301 298 300 290 286 289 295 294 301 308 315 321 323 324 325 328
300 293 296 304 301 293 286 283 285 291 290 288 282 285 280 283 284 283 285 291 292 295 294 290 284 293 298 303 304 304 302 294 290 285 283 287 290 296 301 307 315 319 322 324 327
293 290 299 304 297 289 282 282 289 294 293 287 285 283 282 283 283 283 285 291 294 293 295 291 289 289 296 295 297 298 299 296 297 291 290 283 290 297 301 306 312 317 322 324 326
290 285 298 299 289 286 284 288 294 292 294 290 288 286 284 285 283 284 285 290 296 294 289 294 290 287 289 299 300 297 298 295 296 289 287 289 295 302 302 304 307 317 321 325 327
291 288 298 296 283 283 287 290 292 292 292 290 288 288 287 284 281 286 289 296 296 294 291 293 289 282 288 291 295 293 300 302 297 291 289 293 294 301 301 303 303 305 310 323 327
293 285 290 290 288 287 286 287 289 295 294 293 291 291 286 282 285 285 288 293 295 294 298 296 289 284 282 286 289 288 291 294 296 295 290 294 294 299 302 302 303 305 307 314 326
289 285 288 284 285 288 290 287 287 288 294 294 290 289 287 282 282 283 287 288 293 296 295 292 285 286 287 288 289 289 290 292 291 295 295 297 293 298 300 302 304 310 309 310 321
288 288 289 291 292 290 289 287 288 291 290 289 288 291 290 284 284 281 284 284 287 290 290 291 285 287 284 288 289 288 292 295 296 298 295 294 296 300 300 308 312 310 309 313 323
296 299 295 292 291 289 289 289 289 291 291 294 293 290 288 290 292 291 289 289 290 288 288 288 287 283 279 290 293 292 295 297 300 299 298 294 297 302 312 317 317 317 313 315 325

GFSSW_sfc_thetae_060.txt.gz
Theta_e
317 317 317 317 317 318 318 318 318 319 319 319 319 319 319 318 317 313 304 311 315 328 337 347 340 336 339 334 338 337 318 312 316 316 319 329 327 336 338 328 332 331 328 333 340
317 317 317 317 317 317 317 317 318 318 319 318 318 318 319 318 310 306 316 325 330 336 327 335 327 331 328 330 332 328 317 317 324 324 320 329 329 331 330 328 327 327 334 336 342
317 316 316 317 317 317 317 317 317 318 318 318 318 318 320 315 301 302 337 328 332 337 324 329 328 328 323 327 328 327 319 327 326 325 327 328 329 334 329 324 326 325 329 333 339
317 316 316 316 317 317 317 317 317 317 317 318 317 317 318 308 292 313 341 332 334 335 332 322 321 311 312 313 325 319 326 329 329 330 325 325 328 330 331 330 332 331 333 333 337
316 316 316 316 316 317 318 318 317 317 317 317 317 317 310 299 300 313 336 330 327 322 323 312 316 306 307 311 313 319 321 326 330 328 326 327 327 330 331 333 332 333 333 332 336
316 317 316 316 317 317 317 317 316 316 318 320 317 318 304 291 305 315 327 324 326 316 316 308 315 308 305 305 310 314 319 320 321 319 322 322 325 330 330 332 329 331 330 332 336
315 316 315 315 316 316 316 316 315 317 319 321 319 315 305 300 313 315 316 321 320 313 309 308 309 308 303 301 308 309 304 308 311 316 321 327 323 326 330 330 327 329 330 331 335
315 315 315 315 315 315 314 314 315 319 319 320 321 312 301 315 315 316 310 312 321 316 307 308 307 302 300 303 302 302 302 300 307 313 320 321 311 328 329 327 325 328 329 331 334
315 315 314 314 313 313 313 313 317 321 321 322 309 304 299 318 308 305 308 308 317 314 313 314 306 298 299 296 294 294 294 298 304 313 320 317 312 328 328 327 324 326 327 330 332
314 313 313 313 312 312 312 313 323 321 320 319 316 298 299 297 300 303 303 313 313 312 309 302 299 293 291 292 288 291 291 296 302 310 317 315 315 326 326 325 325 325 326 328 331
314 313 312 312 311 311 307 297 293 292 295 289 292 294 297 299 301 303 303 308 306 304 297 298 292 292 294 296 296 297 297 298 303 311 315 314 315 325 327 324 323 324 325 326 329
313 313 312 311 311 311 300 296 296 297 289 294 295 295 297 295 295 300 303 304 302 297 297 293 291 297 298 296 296 296 294 295 301 308 314 313 314 324 326 326 325 324 324 327 329
313 312 311 310 309 302 298 296 300 292 286 291 294 294 295 294 294 296 299 297 297 298 296 292 295 300 297 294 293 293 295 294 297 305 316 312 310 319 326 329 329 330 329 328 329
312 312 310 309 299 298 295 299 301 296 282 288 290 294 297 295 291 300 299 297 296 297 299 297 302 299 296 294 295 287 298 299 298 297 297 311 296 310 320 324 326 328 329 330 331
312 311 309 308 296 295 298 300 296 291 275 292 290 298 295 291 293 295 301 298 293 294 294 296 298 299 295 296 298 294 299 298 298 296 296 301 301 305 317 318 323 327 329 331 333
312 310 309 302 297 300 301 299 292 282 276 287 291 290 289 290 292 296 300 302 302 297 297 295 300 299 301 302 301 301 299 296 295 293 289 296 301 296 309 316 321 327 330 332 333
310 308 305 305 298 302 300 291 281 277 289 285 284 288 286 286 289 291 293 292 289 286 287 294 297 298 301 297 301 300 294 286 285 286 289 296 296 299 307 318 321 323 327 330 335
308 306 302 305 304 301 293 287 277 286 282 287 287 287 285 287 285 289 287 287 293 290 286 284 287 295 298 297 296 297 294 287 281 283 289 293 291 298 308 316 321 324 326 328 331
306 296 296 300 303 296 290 279 280 283 288 286 285 283 282 286 287 285 285 288 292 291 285 285 287 296 298 300 298 296 294 298 288 286 286 293 295 302 305 309 314 320 322 325 328
297 290 294 303 299 293 286 283 283 289 291 287 282 284 280 282 283 281 283 290 292 294 291 288 281 292 296 299 300 295 300 293 289 284 282 288 290 298 301 304 309 315 321 323 327
291 289 297 302 295 290 282 281 288 293 293 286 284 282 282 282 283 282 283 290 293 293 293 287 286 286 293 292 292 294 294 294 296 292 288 283 289 297 302 307 308 312 321 323 325
289 283 297 297 288 284 283 286 292 291 293 289 287 285 283 284 282 282 284 288 295 293 287 289 289 284 287 295 298 295 292 294 294 290 290 288 293 302 303 305 309 312 318 324 326
292 290 297 295 282 282 285 288 290 290 290 290 288 287 286 284 281 284 288 295 296 293 289 291 287 280 284 287 292 290 292 290 292 292 292 292 293 303 302 302 303 305 313 322 326
292 284 289 289 287 287 287 286 287 293 291 292 289 289 285 282 284 283 287 293 295 295 300 294 286 284 279 283 287 285 289 291 287 288 292 295 296 299 304 301 303 304 306 311 323
288 284 288 286 287 290 290 288 286 286 292 293 289 289 288 281 282 282 286 288 293 296 294 288 283 283 285 287 288 287 287 289 288 289 287 296 295 299 301 304 305 304 309 310 311
288 291 293 291 292 290 290 288 288 290 290 287 289 290 290 286 284 282 284 282 286 288 288 290 279 287 284 288 288 287 289 290 291 292 292 295 295 302 305 309 316 317 319 314 310
298 300 295 292 291 289 289 289 289 292 291 292 292 288 286 289 293 293 291 288 286 286 284 286 284 284 278 286 286 284 289 293 296 296 297 292 298 303 312 314 312 314 319 320 321

GFSSW_sfc_thetae_063.txt.gz
Theta_e
318 318 318 318 318 318 319 319 319 319 319 320 320 319 318 318 317 315 306 312 316 330 340 348 343 341 340 338 340 337 325 320 320 320 323 332 330 338 337 330 332 333 332 337 343
318 317 317 317 318 318 318 319 319 319 319 319 319 319 318 318 312 308 317 323 327 336 340 337 331 336 332 335 337 332 324 321 327 327 325 330 332 335 331 329 329 331 335 340 343
317 317 317 317 317 317 318 318 318 319 319 319 319 318 318 317 305 306 326 340 330 338 336 337 333 330 326 333 333 330 322 328 328 328 331 332 331 336 331 328 331 330 333 338 340
316 316 316 316 316 317 317 317 317 318 318 318 318 318 317 314 297 311 339 339 333 332 334 327 328 321 319 321 331 324 329 331 331 333 330 328 335 332 334 334 338 336 337 338 337
316 316 316 316 316 316 316 316 317 317 317 318 319 317 314 303 303 316 333 331 329 331 325 320 320 317 311 317 321 324 325 328 331 331 329 330 331 333 334 337 338 337 336 336 336
316 316 316 316 316 317 316 316 316 316 318 320 319 318 310 297 311 318 327 325 327 331 322 322 318 318 313 316 315 319 320 325 325 326 327 324 326 333 335 336 335 335 335 337 337
316 316 315 316 316 316 315 315 315 317 320 322 319 315 307 303 316 319 320 324 328 324 320 320 323 316 314 308 316 316 312 313 314 317 322 326 323 327 335 335 333 333 334 337 337
315 315 315 315 315 315 314 314 316 319 321 320 322 316 305 316 320 318 316 322 324 325 318 316 317 315 309 311 307 305 306 302 311 315 322 325 316 330 334 333 331 332 333 335 337
315 315 314 314 314 314 313 315 320 321 321 322 317 312 299 316 306 307 313 309 321 321 317 316 314 309 307 304 303 304 298 300 304 317 322 322 317 330 334 333 331 332 332 333 336
314 314 314 314 313 312 312 316 324 322 321 320 316 304 304 300 304 306 308 319 315 313 309 308 309 303 303 302 294 298 298 303 302 313 320 320 319 329 332 331 331 332 332 332 334
314 313 313 313 312 311 310 305 302 301 302 297 297 297 300 304 305 304 307 315 313 308 300 305 299 297 300 302 302 302 302 301 308 312 316 318 319 326 330 331 329 331 332 332 333
313 313 313 312 311 311 306 303 302 302 296 299 298 298 301 302 299 302 309 309 308 303 303 299 296 301 302 301 300 301 301 302 307 312 317 317 317 323 329 329 331 330 331 331 333
313 313 312 311 310 307 304 303 307 302 295 296 299 299 299 301 297 298 303 302 305 303 302 300 301 303 300 299 298 299 298 300 303 306 313 315 313 320 329 331 331 332 333 330 333
313 312 311 309 305 303 302 305 306 303 292 292 295 298 301 299 296 302 307 301 300 302 303 303 307 301 300 298 299 296 302 301 301 302 300 314 304 316 324 327 330 331 331 331 333
313 311 310 308 305 303 305 307 302 298 283 294 295 303 300 296 297 298 308 303 298 298 300 301 302 301 299 299 301 298 302 300 301 300 301 304 306 311 321 322 327 331 333 333 334
312 310 309 307 304 306 307 304 300 290 282 290 294 293 294 295 296 298 302 305 304 300 301 300 304 305 305 304 302 303 302 301 300 298 292 301 303 307 314 321 326 332 334 336 336
310 308 307 308 302 308 306 301 290 284 292 288 289 292 291 291 292 294 296 296 295 292 293 297 299 303 305 303 304 301 298 292 291 291 289 300 300 304 314 322 325 329 334 336 338
308 305 304 308 308 305 302 296 284 288 288 291 291 291 288 290 290 291 293 292 296 295 294 292 291 299 301 302 300 301 300 293 288 290 292 299 297 303 313 316 326 330 334 337 338
306 302 305 306 306 304 301 288 287 289 291 289 290 287 287 289 290 289 291 292 294 294 291 292 292 298 300 301 302 301 297 303 296 297 295 297 301 308 313 315 317 321 329 333 337
302 299 302 306 302 302 296 288 289 293 294 291 286 289 285 287 287 288 287 294 293 295 297 292 284 293 298 301 303 302 306 297 298 290 289 296 298 299 307 311 316 317 322 329 335
300 299 304 305 304 299 291 289 291 296 296 291 289 287 288 287 288 287 287 293 296 294 296 294 289 288 293 295 298 299 298 301 302 299 293 291 297 309 309 314 314 317 321 326 330
298 293 304 303 296 293 290 290 293 293 297 294 292 291 288 289 287 287 287 291 297 297 291 295 291 285 287 294 299 298 297 300 296 296 300 298 298 310 314 314 317 318 321 325 330
294 295 304 304 290 289 290 290 292 292 293 293 291 291 291 288 285 288 290 296 297 296 293 296 289 283 286 293 297 294 297 298 298 300 298 296 298 313 314 313 315 316 319 324 331
296 292 297 297 295 292 288 288 289 294 293 295 293 294 291 289 291 287 289 295 297 297 300 298 290 286 282 286 289 289 292 295 293 294 297 299 303 309 311 313 316 317 316 317 328
296 292 294 290 292 291 291 290 287 288 294 294 292 291 289 287 287 286 289 292 294 297 298 295 286 288 289 289 289 288 289 291 291 294 294 300 302 308 313 314 319 320 317 319 319
296 295 296 293 293 291 290 289 288 290 290 289 288 290 290 286 288 286 288 289 290 295 294 294 286 288 286 289 290 287 290 292 293 294 295 298 300 309 313 322 317 321 324 325 327
300 301 296 293 292 290 289 290 290 293 292 293 292 290 288 290 294 295 295 295 294 292 292 290 287 286 282 288 289 286 291 293 295 299 298 297 305 312 313 319 316 317 319 321 326

GFSSW_sfc_thetae_066.txt.gz
Theta_e
318 318 318 318 318 319 319 320 320 320 320 320 320 320 318 318 319 318 311 315 317 330 340 343 341 343 343 339 340 342 329 323 323 324 329 336 335 340 341 335 334 338 338 342 345
318 317 317 317 318 318 319 319 319 320 320 320 320 319 318 318 317 313 322 320 325 334 340 339 335 337 333 335 335 333 328 324 330 330 329 335 336 339 335 334 332 335 340 343 345
317 317 317 317 317 317 318 318 318 319 319 319 319 319 317 319 312 315 328 336 333 336 337 337 335 333 327 332 332 330 325 328 331 332 335 333 335 340 334 332 335 335 338 341 343
316 316 316 317 317 317 318 318 318 318 318 319 319 318 318 318 302 315 336 337 344 331 331 329 329 324 320 322 330 324 328 331 333 334 333 332 337 335 336 338 342 341 341 341 341
316 317 317 317 317 317 317 317 317 317 318 319 319 318 318 310 306 319 337 337 331 329 328 326 323 320 315 319 320 324 325 328 335 334 332 333 334 334 336 341 343 342 341 340 341
317 316 316 317 317 317 316 316 316 317 318 321 320 319 315 303 314 321 327 327 326 327 327 324 322 321 315 314 316 317 321 324 330 331 331 329 331 334 337 342 341 340 339 340 340
316 316 316 316 316 316 316 315 316 318 320 322 321 319 312 308 319 320 323 325 326 327 322 323 322 318 316 312 317 317 314 318 320 324 326 331 327 329 340 341 339 339 339 339 340
316 316 316 316 316 315 314 315 319 320 321 321 322 321 308 316 318 313 318 324 329 330 325 325 322 319 314 315 310 310 311 308 316 317 323 329 320 332 340 339 338 338 338 339 340
315 315 315 315 315 314 313 316 322 322 321 322 321 317 304 316 309 312 315 317 324 327 322 323 320 315 314 308 305 307 302 305 310 318 323 327 323 334 339 338 337 338 338 339 340
315 315 315 314 314 313 312 316 323 322 322 322 318 309 307 304 308 310 314 322 320 323 314 313 312 309 308 305 299 302 302 306 307 315 321 324 324 332 336 336 337 338 338 338 339
315 314 314 313 312 312 313 314 313 307 308 302 303 302 304 308 310 310 317 319 319 317 308 309 304 302 305 307 307 305 305 304 310 314 320 322 325 329 334 335 336 337 338 337 339
314 314 313 312 312 312 313 308 306 307 301 304 303 303 305 307 304 307 316 313 310 306 309 305 301 306 308 307 306 305 304 305 309 313 314 322 323 327 333 333 335 337 338 338 338
314 313 312 311 312 312 310 308 313 311 301 301 303 303 303 306 302 302 309 309 310 306 306 303 305 307 305 304 302 304 303 304 305 310 315 317 319 323 328 334 335 337 340 340 338
313 313 311 309 309 311 309 313 313 311 298 297 300 302 304 304 300 305 309 306 306 306 307 305 309 305 304 302 304 301 306 305 304 305 304 314 308 319 324 328 332 334 337 339 340
313 312 310 308 312 310 311 315 312 307 288 297 299 306 304 301 301 301 310 307 302 303 308 305 305 305 303 304 306 302 307 305 304 302 303 308 307 315 323 322 329 332 336 338 340
312 311 309 313 315 312 314 313 307 295 287 294 298 297 298 299 299 302 303 308 307 302 305 305 311 308 308 309 307 308 305 304 304 302 296 303 306 310 316 322 328 333 335 337 339
310 308 309 313 309 314 314 307 295 290 296 293 294 296 296 295 296 298 298 299 297 295 296 301 303 308 310 306 309 306 303 297 294 294 294 303 301 308 319 323 327 331 334 337 340
308 306 306 312 314 313 311 302 291 294 293 296 295 295 293 295 296 295 296 295 299 298 296 295 294 303 308 306 305 305 303 298 293 294 297 303 298 303 316 321 328 330 335 338 340
307 313 312 312 312 312 305 295 295 294 295 294 295 293 294 294 294 294 294 295 297 297 293 295 294 304 305 308 308 305 300 307 301 303 300 302 304 309 313 317 321 325 330 333 338
309 310 309 313 312 309 302 293 295 298 298 296 291 294 291 293 291 293 293 297 296 297 299 296 291 299 303 305 307 306 309 300 301 294 294 300 302 302 308 313 317 320 323 330 336
309 305 310 313 312 306 298 296 296 299 299 295 294 293 293 292 293 293 293 296 298 297 298 296 293 294 297 299 300 303 302 304 304 302 296 296 301 312 311 313 316 319 323 326 333
308 301 311 313 305 303 298 295 295 297 299 298 297 296 294 294 293 293 292 295 299 299 293 297 294 290 293 300 302 300 303 304 299 299 301 301 303 314 315 316 316 318 323 326 329
304 304 311 311 297 296 297 295 296 296 296 296 295 296 296 293 289 293 294 297 299 298 295 298 291 288 290 295 298 296 301 304 305 305 302 299 301 315 316 316 319 318 320 325 329
305 302 304 305 302 296 293 293 293 297 296 297 296 297 294 292 295 292 293 295 299 299 300 298 293 291 287 290 294 292 295 300 301 298 300 302 306 312 313 315 318 321 322 323 325
305 299 300 295 294 296 297 295 291 291 296 295 294 293 291 289 291 291 294 294 298 299 299 297 290 293 293 293 292 291 291 293 294 299 298 303 305 311 315 317 320 322 325 323 323
303 299 299 296 296 294 292 290 290 293 292 291 289 292 292 287 290 290 292 294 293 297 296 298 290 292 290 292 292 290 292 293 293 296 299 302 303 312 316 318 321 323 324 326 328
306 305 302 296 296 293 291 291 291 293 294 294 293 292 290 292 298 298 299 299 297 294 294 294 292 289 286 291 290 287 292 293 295 297 300 298 305 312 313 316 321 325 325 326 328

GFSSW_sfc_thetae_069.txt.gz
Theta_e
319 319 319 319 319 319 320 320 320 321 321 321 321 321 320 319 319 320 314 319 323 332 337 334 336 338 340 338 340 337 329 323 320 324 327 337 335 341 344 337 338 339 342 344 347
318 318 318 318 318 319 319 319 320 320 320 321 321 321 320 319 319 317 324 327 327 330 334 332 331 334 333 333 335 331 329 323 329 331 331 336 336 340 337 336 335 338 344 345 345
317 317 318 318 318 319 319 319 319 320 320 320 320 321 320 320 318 317 333 328 335 331 336 335 334 333 328 330 332 329 323 330 331 334 335 335 335 339 335 332 336 337 340 342 341
317 317 317 317 318 318 319 319 319 319 319 319 320 321 319 321 307 320 333 336 342 331 335 333 330 326 323 323 331 324 329 331 332 335 334 332 337 336 336 333 341 343 343 342 341
317 318 318 317 317 318 318 318 318 318 318 319 321 321 319 315 311 321 340 338 335 325 331 329 326 325 319 321 325 324 327 327 332 336 335 335 334 331 333 341 344 344 343 342 342
317 317 318 318 317 317 317 317 317 318 319 321 322 320 320 309 317 321 327 331 328 321 326 329 325 327 321 319 318 322 325 326 329 335 332 331 333 335 337 343 342 342 342 342 342
317 317 317 317 317 317 316 316 319 320 322 323 323 321 318 311 319 320 325 326 326 323 324 329 327 323 320 315 320 319 315 320 323 332 331 333 327 330 339 342 341 341 341 342 342
316 317 317 317 316 315 315 315 320 321 321 322 322 325 312 316 320 316 322 325 329 330 329 330 327 321 320 318 313 312 315 311 319 326 329 330 321 330 342 340 339 340 340 341 342
316 316 316 316 315 315 314 315 323 323 322 323 325 323 308 316 312 315 319 322 326 330 328 326 323 317 318 310 308 309 305 309 314 324 324 324 322 324 341 339 338 340 339 340 341
315 315 315 315 314 313 313 314 322 322 324 325 322 313 310 308 311 314 317 322 323 324 319 319 317 312 313 309 301 304 304 308 310 317 319 320 322 324 337 337 338 339 339 339 340
315 315 314 314 313 312 313 318 317 314 313 306 307 306 307 312 314 313 318 321 321 320 309 314 309 305 309 312 310 309 308 306 312 317 317 317 323 328 335 336 337 338 339 338 340
315 314 314 313 312 311 314 311 309 311 305 308 307 308 309 311 306 311 321 314 313 311 314 310 304 310 311 311 309 308 307 307 310 315 315 318 318 327 333 334 337 338 339 339 341
314 314 313 312 311 311 314 311 316 314 305 306 307 306 307 309 306 305 312 315 311 308 310 307 309 311 310 308 306 307 306 306 307 311 315 314 317 323 329 335 337 339 341 342 339
314 313 312 310 308 316 313 316 317 314 301 301 303 305 307 307 303 308 311 310 309 307 307 308 311 309 308 306 308 304 309 308 307 306 304 314 305 320 322 330 332 335 338 340 341
313 312 310 308 316 314 314 318 315 312 291 301 302 310 307 304 305 305 310 309 304 306 308 306 307 306 306 307 309 305 310 308 307 305 306 309 306 314 325 322 329 333 336 340 342
312 311 310 315 318 316 318 317 312 298 290 297 302 301 301 303 303 305 305 309 309 304 307 306 313 311 308 311 310 311 307 308 308 305 298 304 306 309 316 324 327 333 335 339 341
310 308 310 316 313 317 317 312 299 294 301 297 298 300 300 300 300 301 301 302 300 297 298 302 304 309 312 307 310 308 305 298 297 297 296 305 302 309 317 323 327 331 334 338 341
308 306 311 316 318 317 314 305 294 299 298 300 298 299 297 300 301 299 300 299 303 301 299 297 296 303 309 307 306 306 305 300 294 296 298 305 300 305 316 322 326 331 335 338 339
307 317 318 317 317 316 308 299 300 299 300 298 299 296 298 299 297 298 299 299 301 302 297 297 297 306 307 309 309 306 303 308 303 306 301 304 306 311 313 315 321 326 332 334 338
313 314 313 318 318 313 305 299 300 302 301 301 296 299 296 298 296 298 298 301 299 301 303 300 295 304 305 308 309 307 311 302 302 296 296 303 305 304 309 311 317 323 328 331 338
313 309 314 318 316 309 301 302 301 303 302 299 298 297 298 297 298 297 297 300 301 300 302 300 297 298 302 302 301 303 303 305 306 303 298 298 303 314 313 313 314 320 327 330 335
313 306 315 317 307 309 302 300 296 301 303 301 301 299 298 297 296 296 296 299 302 302 298 301 297 294 297 302 305 304 304 305 301 300 303 303 304 317 317 317 317 318 322 326 331
310 310 315 315 302 301 301 300 300 299 299 299 298 299 301 297 293 296 297 302 301 300 298 301 296 290 293 298 301 300 303 304 305 306 303 299 302 318 318 318 319 318 321 325 328
310 306 309 308 307 302 299 297 296 300 300 299 298 299 297 296 298 294 295 298 301 300 301 300 297 294 291 294 298 296 299 303 303 300 301 302 306 312 315 316 318 321 323 323 327
310 304 305 299 300 301 301 298 295 294 300 300 296 295 294 292 294 294 297 298 300 301 300 300 292 295 296 297 297 296 297 299 300 304 300 304 306 312 315 317 319 322 325 324 325
307 306 306 302 300 299 296 292 292 295 296 294 294 295 295 292 294 293 296 296 296 299 298 300 293 295 293 297 296 293 295 296 297 299 300 302 304 314 315 318 320 321 325 325 328
311 310 307 299 298 298 295 294 293 296 298 298 296 296 294 295 298 299 301 301 300 297 296 295 294 292 289 293 294 290 294 295 297 299 299 297 304 312 312 314 317 321 327 328 329

GFSSW_sfc_thetae_072.txt.gz
Theta_e
320 320 319 319 320 320 320 321 321 321 322 322 322 322 322 322 320 319 311 319 325 335 331 325 329 332 337 337 337 337 322 322 322 323 326 331 332 340 343 337 339 341 339 341 344
319 319 319 319 319 319 320 320 321 321 321 321 321 321 322 321 317 314 331 336 332 327 316 323 323 329 328 330 333 329 322 324 329 331 324 327 330 337 335 335 334 338 342 344 343
318 318 319 318 319 319 320 320 320 320 320 321 321 321 321 320 316 318 333 330 333 330 321 331 329 328 324 328 328 329 321 328 329 333 331 334 332 340 333 330 334 336 338 341 341
318 318 318 318 319 319 319 319 319 319 319 320 320 322 321 319 309 322 339 340 340 328 319 329 327 323 322 321 328 324 328 327 330 333 334 331 338 334 334 332 338 341 342 341 339
317 318 318 318 318 318 318 319 318 319 320 320 321 322 317 316 314 326 343 338 331 324 319 329 324 324 320 322 324 323 326 329 330 330 335 336 331 332 331 332 334 342 342 340 340
318 318 318 318 318 318 318 318 317 320 321 321 322 322 314 311 318 321 324 331 325 319 322 331 326 327 322 321 319 324 325 325 328 327 334 330 333 333 335 336 341 340 339 340 340
317 318 318 318 317 317 317 316 317 322 324 324 324 320 320 315 319 320 322 326 326 322 318 331 330 325 324 318 321 319 316 319 323 325 332 332 327 329 337 340 337 339 338 339 341
317 317 317 317 317 316 315 315 316 323 324 323 324 322 319 317 320 317 322 324 328 328 321 328 330 323 321 322 315 312 313 310 317 322 328 331 320 331 338 337 336 338 339 340 341
316 316 316 316 316 315 314 315 317 325 325 324 323 322 315 318 313 316 320 320 325 324 326 329 327 320 317 313 308 310 303 307 312 320 322 327 322 333 335 333 335 337 338 338 339
316 315 315 315 315 314 313 314 322 322 326 325 323 314 314 309 312 314 317 320 320 322 322 320 318 312 312 309 301 304 304 306 308 315 319 321 322 327 325 327 328 336 337 339 338
316 315 314 314 313 312 313 317 316 317 317 311 310 310 309 313 315 313 316 317 320 320 311 316 310 306 309 310 311 308 307 305 308 314 315 317 321 323 324 324 328 335 335 337 338
315 314 314 313 312 311 312 312 310 312 304 312 309 309 310 312 307 312 320 314 314 310 313 309 306 312 312 312 310 309 306 306 310 312 313 314 317 323 325 325 327 328 335 336 338
314 314 313 312 311 312 314 313 318 316 305 308 309 308 308 310 307 308 314 315 311 307 310 306 308 312 310 309 307 308 306 306 306 310 312 312 312 321 324 328 332 330 339 336 339
314 313 312 310 310 316 314 317 319 315 300 303 304 306 307 308 304 310 311 310 310 307 308 309 313 310 308 306 308 303 309 308 307 306 301 311 301 319 326 328 329 332 336 336 338
313 313 311 309 311 314 315 319 317 312 290 303 304 311 308 305 306 306 311 309 303 306 308 305 306 307 306 307 310 306 311 308 307 305 304 305 303 308 322 322 322 326 334 336 337
312 311 310 315 314 318 318 318 314 297 290 299 304 302 302 304 304 306 306 309 309 304 306 306 311 310 308 310 310 311 308 307 307 305 298 303 303 306 312 324 322 323 330 336 337
311 309 309 316 313 318 318 313 298 293 304 298 299 302 301 301 302 302 302 301 299 296 297 301 303 308 311 307 309 309 304 296 295 296 295 304 302 306 314 325 327 324 328 336 340
308 307 314 317 319 318 315 305 294 301 300 303 300 300 298 302 301 302 300 298 303 302 298 296 296 302 307 307 305 305 304 298 292 294 297 305 300 305 313 317 331 327 331 331 337
307 317 315 319 319 317 308 299 299 300 302 301 301 298 299 301 299 300 299 299 302 304 297 296 296 305 307 307 308 305 302 307 300 303 299 302 306 310 314 314 317 328 327 329 333
311 316 315 319 320 314 305 299 302 304 303 302 297 300 297 300 298 298 299 302 301 304 305 299 293 302 305 308 307 305 307 300 302 294 294 300 304 304 310 313 315 318 327 331 333
313 311 316 319 318 310 301 302 303 305 304 300 299 298 299 298 299 298 299 302 303 302 303 300 297 296 302 301 301 302 302 303 304 302 296 295 301 314 315 315 315 316 321 331 331
316 306 316 318 307 309 302 302 299 303 305 302 301 300 298 299 297 297 297 300 304 303 298 302 298 293 296 303 306 305 303 303 300 299 302 302 302 316 318 317 316 317 319 327 331
311 311 317 316 301 302 303 302 302 301 301 301 299 301 301 298 294 297 298 303 303 301 298 301 296 291 293 297 302 299 301 303 303 303 301 298 301 316 318 318 318 317 320 325 334
312 304 310 310 308 303 301 299 298 301 301 300 299 301 298 297 299 295 296 300 302 301 305 302 296 293 290 295 298 297 298 301 300 298 299 302 305 310 314 316 320 321 322 323 330
311 304 306 300 301 302 302 300 298 296 301 301 298 296 295 293 294 294 297 298 300 303 301 299 292 294 296 297 298 297 297 298 298 301 298 301 305 310 311 314 320 322 324 327 329
306 306 307 303 303 300 298 297 295 296 297 297 295 297 297 293 294 293 295 296 296 299 299 301 292 295 292 296 296 295 297 297 298 300 302 303 303 312 313 316 318 321 322 329 331
313 314 309 301 301 300 297 297 296 297 300 299 297 296 295 296 299 300 300 300 299 297 297 297 295 292 288 294 294 290 296 297 298 300 300 297 304 309 308 313 315 319 316 322 329

GFSSW_sfc_thetae_075.txt.gz
Theta_e
319 319 320 319 320 320 321 321 321 322 322 322 322 322 323 323 322 317 309 317 318 337 331 320 320 325 328 336 339 338 321 316 321 323 321 327 327 336 342 334 336 338 336 339 342
319 319 319 319 319 320 320 320 321 321 321 321 321 322 322 322 315 311 324 338 338 336 315 310 314 321 320 325 329 325 319 321 329 329 327 327 328 330 335 334 332 334 340 341 342
318 319 318 319 319 319 320 320 320 320 320 320 320 321 322 320 311 315 338 341 341 332 314 313 319 320 317 322 322 322 318 327 329 332 333 332 324 330 331 328 333 332 335 338 339
318 318 318 318 319 319 319 319 319 319 320 321 320 321 322 316 305 318 342 341 342 324 314 312 316 315 314 315 321 317 324 326 328 334 332 329 336 334 332 333 339 338 338 338 336
317 317 318 318 318 318 318 319 318 318 321 322 320 322 316 310 310 326 346 344 333 322 313 309 318 319 314 317 319 318 321 325 328 331 332 337 334 328 332 337 340 340 338 337 336
317 318 318 318 318 318 318 318 317 317 322 323 321 322 310 303 316 328 332 331 323 318 313 313 323 325 318 318 316 320 321 321 324 324 330 332 332 328 331 338 337 338 336 337 336
317 317 317 318 317 317 317 316 316 317 322 325 324 320 313 310 319 316 315 324 324 317 311 319 325 323 320 315 320 318 310 312 316 316 323 333 327 329 337 339 336 336 336 336 336
317 317 317 317 316 316 316 315 316 318 323 323 324 318 312 325 315 315 313 315 325 320 314 317 324 323 317 318 316 307 305 301 310 314 319 327 319 332 334 336 333 335 336 336 336
316 316 316 316 316 315 314 314 317 319 325 324 317 314 312 318 309 312 313 316 321 319 317 320 317 315 315 307 303 304 295 299 305 312 315 319 322 330 328 331 332 334 333 335 336
316 315 315 315 314 313 313 315 319 317 322 323 320 309 314 308 307 312 312 314 317 316 314 312 313 308 306 300 295 299 297 299 300 307 311 312 325 329 330 330 326 332 330 334 335
316 315 315 314 313 312 310 308 309 307 311 311 308 312 308 309 311 311 313 310 314 313 307 312 303 300 303 305 305 305 304 301 303 307 306 311 322 328 331 329 331 329 328 334 335
315 314 314 313 312 312 309 304 306 305 299 308 310 309 308 305 304 309 313 306 309 305 310 305 302 308 311 309 307 304 302 302 305 308 302 305 318 324 322 323 325 327 330 333 335
315 314 313 312 311 311 307 309 313 309 298 304 306 304 304 303 303 306 310 310 308 306 307 302 305 312 309 307 304 303 300 302 302 306 306 302 313 316 321 325 328 333 334 332 334
314 314 312 311 308 310 310 312 312 310 291 300 300 303 304 303 300 309 307 303 305 303 304 303 310 309 305 304 305 296 306 306 304 300 293 301 291 312 317 319 326 329 330 331 327
314 313 311 309 304 306 310 312 311 305 285 302 300 307 304 299 301 302 309 303 298 300 300 300 304 305 304 305 306 301 307 304 303 298 294 299 292 298 319 316 320 326 326 328 328
313 312 310 311 308 310 315 312 309 291 287 298 302 299 298 299 301 305 303 303 305 301 301 300 306 303 303 307 307 308 303 302 299 295 289 295 293 296 315 318 321 326 323 330 329
311 309 307 311 308 314 312 308 292 288 301 296 296 299 298 296 299 300 298 295 292 287 289 296 299 303 305 300 304 302 295 288 287 288 289 295 294 297 304 325 326 325 321 324 328
308 307 311 312 314 315 309 299 290 299 297 301 300 299 296 299 297 299 296 293 298 295 291 288 289 297 302 298 298 299 295 289 284 285 290 296 291 298 307 320 327 327 324 326 332
307 313 311 315 316 313 303 293 293 297 300 299 300 296 295 299 298 297 294 294 297 297 289 290 291 301 303 303 301 297 295 298 291 293 291 294 298 305 307 307 324 323 324 326 332
306 310 313 315 316 309 300 296 298 301 302 301 295 298 294 297 296 293 294 299 299 301 298 293 287 296 300 301 301 298 300 291 291 285 286 291 294 296 302 304 311 323 323 329 333
309 309 313 315 313 305 297 299 301 303 303 298 296 295 295 295 295 294 295 298 301 300 300 292 289 291 296 292 293 295 293 293 292 291 289 287 292 302 305 308 309 312 324 328 329
311 304 313 314 303 305 298 299 299 301 303 300 300 298 295 296 294 293 294 297 302 300 294 296 290 286 291 299 300 297 294 295 289 289 292 292 294 310 308 313 314 310 326 329 327
306 309 314 312 297 298 301 300 299 298 298 297 297 298 298 293 290 295 296 300 301 299 295 295 289 283 287 291 294 294 296 296 293 291 289 290 294 310 311 311 313 315 318 328 329
308 301 306 307 304 299 298 297 296 302 299 298 297 298 294 292 295 292 295 299 301 300 305 298 288 286 283 288 292 291 294 296 291 287 290 293 296 303 306 308 310 315 317 320 332
309 300 303 296 297 299 299 297 295 294 299 299 298 295 293 288 291 291 294 295 298 302 299 294 286 289 291 293 293 292 293 294 292 291 286 293 296 303 305 307 310 316 317 317 327
303 302 304 300 302 298 297 295 293 294 296 294 294 295 295 289 291 289 292 291 291 296 293 295 288 290 289 293 293 291 294 295 295 295 293 294 296 306 305 308 308 313 317 315 315
312 312 306 300 299 296 294 295 295 298 299 299 297 295 293 295 297 297 297 295 294 291 291 292 289 286 282 291 291 287 291 293 295 297 295 290 294 302 301 303 305 306 314 313 314

GFSSW_sfc_thetae_078.txt.gz
Theta_e
319 319 319 319 320 320 320 321 321 321 322 322 322 322 322 323 322 317 308 312 314 339 340 329 329 321 322 330 336 338 323 314 320 322 323 331 329 334 340 335 335 338 336 338 340
319 319 319 319 319 320 320 320 321 321 321 321 321 321 321 322 315 310 320 331 337 340 312 309 313 315 315 320 327 329 319 319 328 328 326 327 329 334 334 332 332 335 339 340 340
318 318 318 318 319 319 319 319 320 320 320 321 321 320 321 320 308 315 331 339 343 338 314 310 312 314 313 316 319 319 316 324 329 331 333 327 327 335 331 328 333 331 334 338 337
318 318 318 318 319 319 319 319 319 319 319 321 321 320 322 314 302 317 343 342 344 322 312 309 310 309 311 311 318 312 320 323 326 335 331 324 330 329 332 333 339 336 337 337 335
317 317 317 317 318 318 318 318 318 318 318 323 321 321 314 307 309 322 346 342 332 320 310 307 309 312 310 312 316 314 317 321 325 330 333 333 329 329 330 338 341 339 338 336 337
317 317 317 317 317 317 317 317 317 317 318 323 322 322 306 296 317 331 332 332 324 316 311 308 309 320 317 315 313 317 317 318 321 332 333 331 330 325 329 339 338 337 335 336 334
316 317 317 317 317 317 316 316 316 317 318 323 324 319 310 302 319 331 328 322 321 317 309 312 312 314 319 314 318 317 310 309 310 328 332 333 323 321 334 336 335 334 335 336 334
316 316 316 316 316 316 315 315 315 317 318 324 324 316 306 325 322 320 321 315 323 317 312 312 317 314 317 318 313 307 301 297 305 309 332 327 318 329 337 333 333 334 334 335 335
316 316 316 316 316 315 314 314 316 319 320 324 313 309 308 325 307 310 309 309 320 315 312 317 312 307 310 305 300 301 297 298 301 307 321 325 320 330 333 335 331 332 334 334 334
316 316 315 315 314 313 313 314 315 318 320 323 320 306 310 310 306 309 309 311 316 314 313 310 305 301 303 300 292 296 296 295 297 303 305 323 324 328 328 333 333 333 333 334 333
316 315 314 314 313 312 309 304 300 302 308 309 308 309 309 305 307 308 310 307 308 308 301 306 301 298 303 304 303 301 299 299 304 308 302 307 322 323 326 329 329 330 330 330 333
315 314 314 313 312 311 307 299 302 304 297 306 311 310 314 304 301 304 309 302 306 302 306 303 299 306 308 307 304 302 299 298 302 307 302 318 321 325 325 322 327 324 330 331 332
314 314 313 312 311 308 303 304 309 305 294 300 303 303 302 302 299 302 308 305 305 302 305 300 304 311 309 305 303 300 297 298 299 304 302 318 318 322 325 325 326 328 331 332 332
314 314 312 310 305 302 304 308 306 303 288 295 298 300 301 301 297 309 306 301 301 303 304 302 309 307 305 303 303 295 304 303 302 297 291 298 291 315 322 321 326 326 330 331 334
314 313 311 309 299 301 308 308 306 301 283 300 296 304 299 297 299 300 306 301 296 298 296 295 301 303 303 303 305 301 305 301 300 294 292 294 290 293 317 314 318 325 331 331 334
313 312 310 306 302 305 308 308 303 288 285 295 299 296 295 295 298 302 301 301 302 298 297 297 302 300 300 304 303 306 301 298 294 292 286 290 291 294 311 315 319 325 330 331 331
311 309 307 308 301 307 308 301 289 284 298 294 292 295 293 292 295 298 296 292 290 286 286 294 296 298 301 295 300 299 292 286 286 285 285 290 291 293 315 319 322 323 328 330 333
308 307 307 309 306 307 302 295 286 295 294 299 298 296 293 295 293 295 294 291 294 291 287 285 286 295 300 294 291 292 291 287 282 283 286 292 288 295 306 316 325 326 328 326 325
307 305 306 308 309 307 298 289 286 293 297 297 297 295 294 297 295 294 292 292 295 293 287 286 288 299 300 299 296 293 290 294 288 287 286 290 295 302 305 304 321 324 322 322 324
300 302 305 313 310 303 295 293 293 299 299 297 291 294 290 293 293 292 292 296 296 298 293 289 285 292 298 298 298 292 295 289 287 283 282 288 290 293 299 306 312 323 324 322 324
303 302 308 307 307 299 293 295 297 301 300 296 293 291 290 290 291 290 291 296 298 297 296 290 286 289 294 290 290 291 288 287 287 287 284 283 288 297 301 306 307 311 316 326 325
301 295 309 306 296 294 290 294 299 297 299 297 297 294 291 292 290 290 290 294 300 297 291 292 286 283 287 295 297 293 290 287 283 284 287 288 290 306 307 307 310 312 315 319 329
298 301 307 304 289 290 292 296 298 296 294 295 293 294 293 290 287 291 293 298 301 297 292 292 285 281 285 287 293 291 292 288 288 284 284 285 288 304 305 308 312 313 318 322 328
300 293 297 297 294 292 291 292 293 299 296 296 293 293 291 288 289 288 291 297 299 300 306 296 284 283 279 283 289 288 291 291 287 281 284 285 291 298 302 306 310 313 313 326 328
298 293 295 290 291 292 292 292 292 291 296 295 293 293 289 285 286 287 291 291 296 300 296 291 284 286 288 291 292 291 291 292 288 287 284 288 289 296 298 303 306 313 313 317 321
297 296 298 292 293 292 290 289 291 293 293 291 291 294 292 286 287 285 288 287 287 291 289 291 285 287 285 291 290 289 291 292 292 292 291 292 291 298 302 307 310 309 311 317 321
303 303 297 295 292 289 289 291 294 295 296 297 296 292 290 292 295 293 292 290 290 287 286 287 286 282 277 288 287 283 288 290 292 294 293 289 291 303 304 307 308 310 313 319 321

GFSSW_sfc_thetae_081.txt.gz
Theta_e
318 319 319 319 319 320 320 320 320 321 321 321 321 321 321 321 321 316 307 310 314 332 347 340 332 324 323 325 334 338 322 315 319 320 324 334 330 336 338 334 335 337 334 337 341
318 319 318 319 319 319 319 320 320 320 320 320 319 320 320 321 313 308 319 326 330 341 319 323 317 316 312 317 328 325 319 319 327 328 324 330 331 330 328 330 332 333 336 339 342
317 318 318 318 319 319 319 319 319 319 319 319 320 320 320 319 306 314 330 331 335 340 312 312 314 314 310 315 320 322 317 324 327 331 330 328 330 331 327 326 333 330 332 337 338
317 317 318 318 318 318 318 318 318 318 318 319 321 320 321 311 295 316 336 339 345 324 311 307 307 306 308 310 316 311 319 323 324 332 328 327 333 329 330 333 339 336 336 336 336
316 317 317 317 318 318 318 317 317 317 318 319 323 320 312 302 306 321 338 342 332 312 308 306 306 309 307 310 313 312 317 320 321 331 328 331 328 328 330 336 340 339 336 335 335
316 316 317 317 317 317 317 316 316 316 317 319 324 321 304 294 308 334 329 331 322 312 307 307 308 313 312 313 311 315 316 317 317 319 328 327 326 327 329 339 338 335 334 334 335
316 316 316 316 316 316 316 315 316 316 317 319 324 318 308 300 320 330 328 322 319 311 307 307 310 314 316 313 317 315 311 311 318 328 329 329 322 322 334 336 334 333 334 334 334
316 316 316 315 315 315 315 314 315 316 318 319 325 314 304 320 319 326 324 319 320 314 309 311 312 311 312 315 311 304 301 297 309 329 332 325 315 326 335 334 332 333 333 334 334
316 315 315 315 315 315 314 314 316 319 319 323 312 307 307 323 310 313 323 313 317 313 311 315 311 305 306 303 298 299 296 298 301 327 329 322 317 329 334 333 331 331 332 334 332
316 315 315 315 314 313 313 313 316 319 320 321 319 304 307 305 305 308 307 314 315 313 311 307 303 299 300 299 293 295 295 295 297 309 315 322 320 327 331 332 331 330 332 333 330
315 315 315 314 313 312 308 301 298 298 309 303 305 306 309 309 305 306 308 306 310 307 300 303 298 296 301 303 303 301 298 296 301 305 302 313 320 323 328 330 330 329 330 331 331
315 314 314 314 312 311 307 297 299 302 295 305 311 311 312 308 300 302 306 302 305 301 303 301 297 304 307 306 303 300 298 297 301 304 300 314 318 322 323 328 329 329 330 331 331
315 314 313 312 311 306 301 302 306 302 292 298 302 302 302 305 299 299 305 302 304 301 302 299 304 310 307 304 302 298 296 297 298 302 313 317 314 318 323 325 324 328 329 332 332
314 314 312 310 302 300 302 305 307 300 287 293 295 300 300 300 295 305 307 301 299 301 303 302 308 306 303 302 302 293 303 303 301 295 291 299 288 313 320 320 324 323 327 328 332
314 313 311 309 298 301 305 305 304 299 282 298 295 302 297 295 297 299 304 300 296 296 296 297 297 302 301 302 304 300 304 301 299 293 290 293 290 295 319 318 320 323 327 329 332
313 312 310 304 300 304 306 303 301 287 284 293 297 295 294 293 296 300 299 300 300 297 295 295 300 299 299 305 305 306 299 295 291 290 286 290 290 290 310 317 320 323 326 329 331
311 309 307 307 300 303 304 300 288 283 296 294 291 292 292 290 293 296 294 292 289 285 285 292 294 296 299 293 297 296 290 285 285 284 284 288 289 293 307 318 322 322 325 328 333
309 307 307 308 303 305 301 294 285 293 292 297 296 294 292 293 292 294 292 289 294 289 286 284 285 293 298 293 290 289 290 286 282 282 285 288 288 294 301 312 321 324 325 327 332
307 303 304 306 309 303 298 287 285 290 295 295 294 292 291 295 294 292 291 290 293 292 286 285 286 296 298 298 293 290 287 291 286 285 286 288 292 299 307 309 316 319 322 325 330
301 302 304 309 307 302 295 290 292 297 297 295 290 292 288 291 292 290 290 294 294 296 291 288 284 290 296 297 296 291 292 286 285 282 281 286 288 290 300 304 308 310 318 322 324
303 300 304 303 304 298 292 290 295 299 299 294 291 290 288 289 290 289 290 294 297 296 294 288 286 287 291 289 288 289 287 286 284 285 282 282 287 297 301 304 306 308 313 317 316
300 293 306 303 295 290 288 293 297 295 297 295 294 291 290 290 288 288 289 292 299 295 290 290 284 282 286 292 295 293 287 285 282 281 283 284 287 302 303 306 308 312 320 325 325
299 298 304 302 288 287 291 294 296 294 293 293 292 293 292 288 286 289 292 297 300 296 291 291 283 280 282 286 291 288 291 286 284 281 280 280 286 299 300 304 309 313 317 321 327
296 291 295 295 291 290 288 290 291 298 295 294 292 292 290 287 288 287 290 295 297 298 306 295 283 282 279 282 287 286 290 289 285 280 282 284 287 293 296 299 304 308 319 322 324
295 292 293 288 290 290 289 291 291 290 294 294 292 291 287 283 284 286 289 290 294 297 294 289 282 284 286 289 289 289 289 290 285 286 283 287 288 292 295 301 307 311 312 319 326
297 294 293 290 290 289 289 288 290 292 291 289 290 292 291 285 286 284 287 285 285 290 287 288 283 284 283 289 288 286 288 289 290 290 289 289 289 300 304 307 306 307 309 314 318
300 300 295 292 289 289 289 291 293 293 294 295 294 290 289 291 294 292 291 290 287 285 285 285 283 280 277 285 285 280 287 289 290 292 291 287 292 301 300 302 304 305 308 313 316

GFSSW_sfc_thetae_084.txt.gz
Theta_e
318 319 319 319 319 319 320 320 320 320 320 320 319 318 319 319 320 315 305 308 313 333 341 338 331 323 327 327 332 337 320 316 319 320 323 334 330 337 338 332 335 336 333 337 342
317 318 319 318 319 319 319 319 320 319 319 319 319 319 318 319 311 307 317 324 329 341 334 326 319 316 311 320 327 325 320 320 326 328 325 330 331 331 329 329 329 332 337 340 341
317 318 318 318 318 318 319 319 319 319 318 319 319 320 320 317 301 308 328 329 333 336 325 319 317 315 310 315 320 324 320 325 327 330 330 330 330 331 328 323 331 329 333 338 338
316 317 317 318 318 318 318 318 318 318 318 318 319 321 320 309 294 316 335 334 338 325 309 309 310 307 308 309 316 311 322 325 328 332 329 328 330 327 328 333 336 335 337 337 336
316 316 317 317 317 317 317 317 317 317 317 318 319 320 311 299 302 327 336 337 327 312 307 304 305 306 306 309 313 313 317 319 321 330 327 332 328 329 329 337 337 337 337 335 335
316 316 316 316 316 317 317 316 316 316 317 318 320 320 302 290 307 331 329 326 315 307 305 306 306 311 309 310 310 315 316 315 316 323 327 327 327 328 331 339 336 335 334 335 335
316 316 316 316 316 316 316 316 315 316 316 318 321 317 306 296 323 327 328 319 317 309 304 305 309 309 313 311 316 313 310 308 323 322 324 328 321 322 334 339 335 333 333 334 335
315 315 315 316 316 315 314 314 314 316 317 318 323 311 303 316 323 324 320 317 317 309 307 307 308 308 309 313 308 302 300 296 317 327 328 323 314 326 336 335 332 332 332 333 334
315 315 315 315 315 315 313 313 317 319 319 322 311 305 304 323 315 320 319 315 314 311 309 314 307 302 304 302 298 299 295 297 301 327 327 321 315 326 334 334 330 330 331 331 332
315 315 315 315 315 313 312 312 319 320 320 321 318 302 306 305 305 311 319 317 313 310 308 304 301 297 299 298 293 295 295 294 299 320 324 320 318 324 330 332 330 330 331 331 330
315 315 315 314 314 311 308 301 297 297 308 299 299 302 307 309 305 304 308 310 310 306 299 301 296 293 298 302 302 300 298 297 300 303 301 303 315 320 328 329 329 330 330 331 331
315 315 314 314 313 311 306 297 298 299 294 305 309 307 310 306 301 301 306 302 304 299 302 299 293 301 305 305 302 299 297 296 303 304 300 303 308 321 325 327 329 330 329 330 332
315 314 313 312 311 305 299 300 304 300 292 296 302 302 301 305 299 297 303 303 302 300 300 297 302 307 306 302 301 297 295 296 299 302 313 312 304 314 322 325 326 331 331 331 332
314 314 312 310 301 299 301 304 304 300 286 290 294 300 299 298 294 304 305 302 300 300 302 301 306 306 302 302 302 292 302 302 300 294 290 299 287 303 316 319 323 324 327 328 331
314 312 311 308 299 300 304 303 301 298 280 296 294 300 295 294 297 297 302 299 296 298 301 300 299 302 299 301 303 299 303 301 299 292 290 292 289 291 314 315 319 324 325 328 329
313 311 310 303 299 303 304 301 299 287 282 293 295 292 293 293 295 298 298 299 299 295 294 294 298 299 301 304 304 304 297 293 290 289 285 290 289 290 309 315 320 324 327 328 329
311 309 307 306 299 302 304 298 288 283 295 293 292 291 290 290 293 295 294 292 288 286 284 291 292 295 297 292 295 295 290 284 284 284 284 286 289 291 299 305 320 323 325 328 330
308 307 307 307 304 304 301 294 284 291 290 295 295 294 292 293 292 293 291 289 293 288 285 284 285 292 297 291 290 289 289 285 281 281 285 288 287 296 305 309 314 323 324 327 328
307 302 302 306 307 302 297 287 286 289 294 293 292 290 290 294 292 291 290 289 291 290 285 285 285 295 297 296 292 289 286 288 285 282 284 287 292 298 306 308 309 312 320 322 326
302 302 301 304 305 300 293 288 290 296 297 296 289 290 287 291 291 288 289 294 293 294 289 286 283 289 294 295 295 290 290 286 285 282 281 285 287 290 299 302 306 310 311 315 319
301 297 302 301 302 296 287 288 293 296 298 293 291 290 288 287 289 288 288 294 297 295 293 287 285 287 290 288 286 288 286 285 284 284 282 282 287 294 295 300 304 308 316 320 324
299 293 303 301 292 287 286 290 296 294 296 295 294 292 290 288 286 288 290 292 298 295 290 290 284 281 283 291 293 289 286 284 283 282 282 284 288 296 296 299 305 307 312 321 327
297 295 301 299 287 285 289 292 294 293 292 293 291 292 290 286 285 289 292 296 297 297 292 290 283 279 281 286 289 288 289 283 283 281 281 282 286 297 299 302 308 308 311 324 326
294 290 294 294 289 289 287 288 290 296 293 294 291 291 289 286 287 286 288 294 295 298 304 294 283 282 279 282 286 286 289 288 283 281 281 283 287 291 300 303 305 307 310 316 317
294 290 291 286 289 288 288 290 290 289 293 293 291 291 286 283 284 285 288 289 293 296 293 289 284 284 285 288 289 288 288 289 285 285 283 286 288 291 300 303 304 305 308 313 315
296 293 291 288 289 289 289 287 289 291 290 289 289 292 290 285 285 284 286 285 285 290 286 287 284 285 284 289 287 285 287 288 289 289 288 288 289 299 302 303 302 301 303 308 315
299 297 294 291 288 287 288 290 292 291 293 294 293 290 289 290 291 289 290 289 286 284 285 284 282 279 276 284 284 281 286 288 289 294 292 285 291 296 296 297 301 299 301 305 309

GFSSW_sfc_thetae_087.txt.gz
Theta_e
318 318 319 319 319 319 320 320 320 320 319 319 319 319 317 317 318 316 307 313 316 333 347 339 333 338 335 337 337 339 323 319 320 320 323 331 330 337 338 335 336 337 335 338 340
317 318 318 319 319 319 319 319 319 319 319 319 319 319 318 317 314 309 317 323 328 342 335 326 320 330 321 328 334 329 324 321 328 329 327 332 333 333 333 332 332 335 339 341 340
317 318 318 318 319 319 319 319 319 318 318 318 318 319 319 319 308 309 327 329 332 342 332 325 322 317 313 323 328 328 323 328 328 332 333 332 332 331 330 327 333 331 334 337 337
317 317 317 318 318 318 318 318 318 318 317 318 317 320 320 316 300 317 334 333 347 331 325 319 318 313 312 315 325 320 325 328 328 333 331 330 332 328 330 334 340 339 338 336 335
317 316 316 317 317 317 317 317 317 317 317 318 318 320 316 305 305 332 335 341 331 319 317 315 312 314 308 315 319 321 321 323 325 331 331 334 329 329 332 338 340 340 337 336 336
315 315 315 316 316 316 317 316 316 316 316 318 318 320 308 297 314 330 330 330 320 315 312 316 313 317 313 315 317 320 320 321 320 323 330 329 329 331 332 337 338 338 337 338 339
315 314 315 315 315 315 315 315 315 316 316 317 319 318 307 301 326 329 329 322 317 314 311 313 316 316 319 317 321 319 313 315 327 321 327 331 324 324 334 336 335 336 338 338 339
314 314 315 315 315 315 314 313 314 317 316 317 322 318 304 318 329 327 324 319 318 316 314 313 316 316 316 318 313 312 309 306 326 326 329 328 319 328 337 334 333 334 335 336 338
315 315 315 314 314 313 312 313 320 320 319 322 318 315 308 325 321 322 321 315 317 316 315 314 312 311 312 312 308 308 308 304 318 329 328 326 321 331 338 336 333 334 334 335 337
314 315 315 314 314 312 312 312 318 322 322 322 319 309 312 311 316 321 323 319 314 312 310 308 307 307 309 310 302 305 305 304 310 325 327 324 323 329 335 335 334 334 335 334 335
316 315 314 313 312 311 310 312 306 309 314 305 304 305 309 314 312 318 320 317 315 312 304 305 303 301 309 310 309 308 307 306 308 317 312 310 312 322 331 334 333 334 333 334 336
315 315 313 312 311 310 309 304 306 306 301 307 310 310 312 313 304 309 320 310 310 304 307 302 300 306 310 310 308 308 306 305 307 308 307 308 314 325 330 332 334 334 334 335 336
315 313 313 311 310 308 305 306 309 308 301 301 306 306 307 311 303 304 314 310 309 306 305 300 303 308 309 308 307 307 306 304 305 307 320 313 312 321 327 331 334 335 336 337 337
314 314 311 310 305 305 306 310 309 308 296 295 300 305 306 307 301 307 311 310 308 306 307 305 309 307 308 307 309 305 308 307 305 305 301 307 300 310 323 327 330 333 335 335 337
314 312 310 308 306 307 309 309 307 305 286 299 300 306 303 302 304 303 307 306 305 306 307 304 307 307 307 308 310 307 309 308 306 304 302 301 301 304 320 320 327 332 335 336 338
312 310 309 307 307 310 309 308 306 295 285 296 299 298 299 300 300 303 303 306 305 305 305 301 305 308 310 310 311 309 304 302 302 302 297 301 301 301 310 313 315 328 334 336 337
310 308 308 308 307 309 310 307 295 289 299 295 296 297 298 296 298 300 299 298 297 298 299 298 298 301 302 303 306 307 303 295 294 294 295 298 299 305 311 314 318 317 330 336 338
308 307 309 311 313 311 309 300 290 293 294 299 298 299 296 297 297 298 297 295 299 297 295 294 291 298 301 299 301 305 304 297 291 292 295 298 298 304 312 317 322 325 330 333 337
307 312 311 310 311 310 305 292 290 293 296 296 297 295 295 297 297 297 296 295 297 298 296 294 293 299 300 301 300 298 298 300 296 295 296 298 300 307 310 313 318 320 325 326 331
313 310 309 308 311 308 300 291 294 297 298 297 293 295 293 294 295 295 294 297 296 299 298 295 293 296 298 300 301 300 299 297 299 292 292 295 298 299 303 306 314 317 321 328 331
309 307 310 308 309 303 294 294 296 299 299 296 294 293 293 293 294 292 292 297 298 299 299 297 296 295 298 295 293 298 297 295 299 296 294 292 295 300 303 308 314 318 321 327 332
307 301 310 309 300 297 294 295 296 297 299 297 297 295 293 293 293 293 292 295 299 299 295 297 295 291 292 296 298 297 294 295 297 294 295 298 295 304 308 312 314 315 319 323 331
305 303 310 307 295 294 297 296 297 296 296 295 294 295 295 292 291 294 295 298 300 301 296 297 292 289 290 295 297 295 295 295 293 296 295 295 294 305 311 312 314 315 317 324 328
304 298 303 301 297 296 294 294 294 298 296 297 295 296 294 293 295 292 293 296 298 302 303 299 293 291 290 291 295 292 293 294 294 294 293 295 295 300 307 309 311 313 316 322 324
303 297 297 294 296 296 295 295 293 293 297 297 295 294 292 291 292 291 293 295 298 299 298 298 292 293 293 293 293 292 292 293 292 294 293 295 295 301 306 307 308 312 315 317 313
304 300 299 296 296 297 295 294 294 294 295 293 293 295 296 292 293 291 293 293 292 297 294 296 291 292 289 291 291 289 292 292 292 293 293 294 294 303 306 307 306 308 312 309 308
307 303 304 295 296 296 296 295 294 296 298 298 296 296 294 295 298 298 298 297 296 295 293 293 292 290 286 290 289 286 291 291 293 297 296 292 297 302 302 303 303 304 306 304 303

GFSSW_sfc_thetae_090.txt.gz
Theta_e
318 318 319 319 320 320 320 320 320 320 320 320 320 319 319 317 317 319 310 317 319 337 346 341 336 336 343 340 343 341 329 322 323 322 328 332 331 337 340 337 338 340 339 338 341
318 318 319 319 319 319 319 319 320 320 319 319 320 319 319 317 317 312 325 326 327 342 339 330 325 333 329 335 337 331 331 325 330 332 329 331 335 333 333 335 336 338 339 340 340
318 318 318 318 318 318 319 319 319 319 318 318 319 319 320 321 313 312 334 330 337 344 336 327 329 326 317 326 331 331 329 330 330 332 334 333 336 336 333 333 338 336 336 336 338
318 317 316 317 317 318 318 318 318 317 318 318 318 319 320 320 303 323 332 333 339 335 331 324 323 316 313 314 325 326 331 331 330 331 330 332 336 332 335 337 343 342 339 336 336
316 316 315 316 316 316 317 317 317 316 317 318 318 320 320 311 308 332 334 337 334 330 323 321 317 315 312 315 320 326 327 327 326 329 330 335 331 332 335 340 345 343 337 336 336
315 315 315 315 316 316 316 316 315 315 316 317 318 320 315 303 320 328 330 329 327 325 320 320 316 317 313 314 317 325 328 327 325 323 329 330 332 333 336 342 341 339 336 336 336
315 315 315 315 316 316 315 315 314 314 316 317 319 320 312 306 328 327 332 326 324 322 317 319 318 317 315 315 319 324 318 322 326 323 326 333 328 328 336 340 338 336 335 336 338
315 315 315 315 315 315 314 313 315 317 317 317 320 320 308 323 330 326 328 322 321 322 320 320 320 319 318 323 318 321 315 315 324 325 330 332 323 332 336 337 337 335 335 337 339
315 314 315 315 315 314 313 313 320 322 319 321 321 318 310 324 323 324 324 318 318 319 319 318 318 315 317 314 311 318 314 314 320 328 329 330 325 334 338 335 335 336 336 338 340
314 316 315 315 315 313 312 313 320 323 323 323 322 314 317 313 322 321 323 320 316 315 313 312 312 309 313 311 304 312 314 314 317 325 326 326 326 333 339 335 334 336 337 337 336
316 316 315 315 313 312 312 319 316 313 315 308 308 309 313 318 324 319 322 319 317 313 307 310 305 303 308 313 314 315 316 312 318 324 321 323 320 329 335 337 335 336 336 335 334
316 315 315 313 312 310 316 312 311 311 306 313 312 312 315 317 310 316 322 314 311 305 309 306 303 308 312 314 313 313 313 313 313 314 313 313 314 322 331 334 338 338 338 336 337
315 315 314 312 311 312 314 312 316 315 306 306 311 310 312 315 308 313 317 314 310 306 306 304 306 310 311 314 310 312 312 311 311 312 317 315 314 321 328 333 336 339 340 340 339
315 314 313 310 308 316 313 315 317 315 300 300 304 309 311 312 305 317 319 315 311 308 307 306 310 308 309 311 312 308 313 313 310 309 307 315 306 316 326 328 333 337 339 340 340
315 313 310 308 316 315 313 318 316 312 290 301 305 313 312 307 307 308 318 313 309 309 309 305 306 307 308 311 314 310 315 312 312 310 308 309 306 313 320 323 329 334 339 340 341
313 311 310 312 317 316 317 318 312 299 289 298 304 303 303 305 306 308 308 312 313 310 311 309 312 312 313 315 315 314 312 311 311 310 301 307 306 308 314 316 319 325 338 341 341
311 310 310 315 314 318 320 314 299 294 302 297 299 303 302 301 303 305 304 304 304 302 303 305 308 309 311 312 315 313 308 300 299 299 299 309 306 310 316 321 324 320 330 340 343
309 308 313 317 319 319 317 306 294 297 298 302 301 302 299 302 302 303 303 301 304 304 304 300 296 305 306 310 309 310 308 301 295 296 300 307 302 309 319 325 327 331 333 336 341
307 320 319 316 319 319 311 300 295 297 299 298 300 298 298 300 302 302 302 301 302 304 302 300 297 303 304 306 307 309 306 310 302 305 302 303 309 313 317 321 326 329 332 333 336
322 319 314 317 319 315 308 295 298 301 300 301 296 299 296 298 299 300 299 301 301 303 305 303 297 302 303 305 306 308 312 302 303 297 296 301 304 305 311 317 322 324 328 334 338
318 312 315 317 316 312 301 298 299 302 302 300 298 297 299 298 299 298 297 301 302 302 305 304 303 299 303 301 301 303 304 305 306 304 299 297 301 308 312 319 320 323 328 334 334
315 308 316 317 309 307 300 300 298 300 303 301 301 300 299 299 299 298 297 299 304 304 300 303 303 298 299 302 303 303 304 306 301 301 303 303 299 312 315 320 322 323 330 327 330
311 309 316 315 301 300 302 299 301 300 299 299 297 300 300 299 298 300 299 301 305 303 302 303 301 295 296 300 302 301 302 304 305 306 303 299 298 314 317 320 321 322 326 324 324
311 304 308 309 308 303 301 299 297 301 300 301 298 301 300 299 302 299 298 299 302 304 304 305 302 298 295 298 302 298 299 301 303 301 302 303 303 308 311 314 318 321 324 323 323
310 303 304 301 302 302 302 299 296 296 301 301 299 299 299 297 298 297 299 300 301 302 303 303 298 300 299 298 299 298 298 298 300 301 300 303 304 308 310 312 315 319 321 319 319
308 307 307 303 303 301 299 299 297 298 299 297 298 299 300 298 299 297 299 301 299 302 301 302 297 299 295 296 297 295 297 297 297 298 300 302 302 309 311 312 311 314 316 315 315
316 312 309 299 302 302 300 299 298 300 301 301 300 299 298 299 302 303 303 302 302 301 298 299 299 296 293 295 294 291 297 297 297 300 300 298 304 306 306 306 308 310 312 312 313

GFSSW_sfc_thetae_093.txt.gz
Theta_e
319 319 320 320 320 320 320 320 321 321 321 321 320 320 320 320 318 319 311 322 324 341 347 333 337 337 340 339 343 343 330 321 322 324 326 332 332 337 342 339 339 341 338 337 341
319 319 319 319 319 319 319 320 320 320 320 320 320 320 321 320 317 315 331 334 339 350 341 331 330 332 334 334 338 333 331 323 329 330 332 333 334 333 334 335 336 338 339 339 341
319 318 318 317 318 318 319 319 319 319 319 319 319 319 321 321 317 314 339 338 334 349 336 333 328 330 326 331 336 333 327 329 330 335 335 332 334 336 333 333 337 334 335 337 339
317 317 317 316 317 318 318 318 318 318 318 318 319 319 321 322 308 330 335 338 337 339 335 327 324 323 319 319 331 328 332 331 331 332 334 334 337 335 336 336 343 341 338 338 337
316 316 316 316 316 317 317 317 317 317 317 318 319 320 321 313 312 335 334 335 326 334 330 322 320 320 314 318 324 327 330 330 331 332 335 338 334 334 335 342 345 343 338 336 337
316 316 316 316 317 317 317 317 316 316 316 317 319 320 317 307 322 330 326 323 322 329 327 323 320 321 317 317 320 322 331 329 329 329 335 332 333 336 338 344 342 339 336 336 336
316 316 316 316 316 317 317 315 315 316 316 317 320 321 315 310 327 329 328 322 326 329 323 323 322 318 319 316 323 325 326 328 325 326 329 335 329 330 340 342 338 337 336 336 336
316 316 315 316 316 316 315 314 316 319 319 318 320 321 313 319 328 328 329 323 326 328 324 323 321 319 319 322 319 321 325 318 325 326 330 332 321 334 339 339 335 335 335 335 336
316 315 316 317 316 315 314 314 318 322 321 319 321 320 309 327 323 327 326 320 322 324 324 322 319 316 319 315 314 318 316 316 321 328 329 329 323 335 340 337 333 334 334 335 336
317 316 317 316 316 314 314 314 319 321 321 324 323 313 319 312 321 325 325 321 318 318 316 315 314 311 314 314 307 311 316 316 318 325 327 326 328 334 337 338 335 334 334 334 335
317 317 316 314 314 312 313 320 318 317 316 312 311 313 314 319 323 320 322 319 317 315 309 312 307 305 309 312 316 316 318 316 319 326 323 324 325 334 337 336 336 336 334 334 337
317 316 315 314 313 312 316 316 314 315 309 313 312 313 317 321 314 317 323 315 313 307 311 309 305 311 312 313 312 314 315 316 319 325 323 323 325 330 336 336 334 337 336 336 337
316 315 314 313 312 313 319 315 320 318 308 310 312 312 315 318 313 314 318 316 311 307 308 306 309 313 310 311 311 314 315 315 317 317 320 317 318 323 329 334 338 340 340 337 334
316 314 313 311 307 320 315 319 320 319 304 303 306 310 315 315 309 318 319 316 312 307 308 309 312 310 309 311 314 310 317 317 315 313 310 318 308 320 325 327 333 338 340 336 336
315 313 312 308 318 316 317 321 320 316 293 304 306 317 314 310 310 312 319 316 310 309 310 306 308 308 307 311 314 310 315 315 315 312 313 313 309 314 325 324 329 334 338 337 337
314 312 312 315 319 320 321 321 316 300 292 300 307 306 307 309 308 314 314 317 316 312 312 310 313 312 311 314 316 317 314 314 314 312 304 310 310 312 315 322 324 333 337 340 339
312 310 312 321 317 321 321 316 300 296 304 300 302 305 305 304 306 307 308 306 305 303 305 309 309 312 315 312 316 315 311 302 301 302 302 311 308 314 320 323 324 325 335 339 341
309 308 316 321 324 322 319 309 295 300 300 305 303 304 301 304 305 305 305 303 308 309 306 303 300 309 314 314 311 312 311 303 297 298 302 310 306 312 323 327 330 331 334 338 340
308 322 322 324 323 323 314 298 297 301 302 302 303 299 300 303 304 305 305 304 307 309 304 303 302 309 311 316 313 311 308 313 306 307 303 308 313 318 323 326 329 331 335 337 337
321 321 319 322 323 318 309 298 302 304 304 303 298 301 298 301 301 303 304 306 305 307 310 307 300 307 307 310 312 310 315 306 307 300 298 304 307 308 317 321 326 330 334 334 338
319 314 319 323 321 313 302 302 303 306 306 303 301 300 301 300 302 301 302 304 306 307 309 309 305 303 306 305 305 308 307 310 309 307 301 300 304 317 320 322 325 327 330 332 334
317 308 319 322 309 310 304 304 299 304 306 305 303 303 301 301 301 301 301 304 307 308 305 308 306 301 302 307 309 309 309 310 304 303 306 304 303 320 322 323 328 325 323 326 329
313 311 319 318 304 303 305 302 304 303 303 302 301 302 304 301 299 302 302 304 307 307 307 307 303 299 299 303 307 305 307 309 310 309 305 302 303 320 323 323 326 326 327 324 326
312 307 311 313 311 306 303 301 299 303 303 304 301 305 303 302 305 301 301 303 306 306 306 309 303 302 296 301 305 302 304 306 307 303 305 305 307 315 319 320 323 324 325 326 327
311 306 309 304 304 305 304 302 298 299 303 305 303 302 302 300 301 301 303 303 305 304 307 307 301 302 302 302 304 304 304 303 303 306 303 307 309 313 317 318 321 323 323 322 323
311 310 310 308 306 304 301 302 300 300 302 300 300 302 304 303 303 301 303 305 304 306 306 307 302 303 300 300 300 299 302 301 302 303 306 309 307 316 316 316 317 318 318 318 320
319 317 312 303 305 304 302 302 301 303 303 304 302 302 301 302 306 307 308 307 308 306 303 304 303 301 296 301 299 295 301 302 302 304 305 305 310 313 312 311 313 315 315 315 317

GFSSW_sfc_thetae_096.txt.gz
Theta_e
320 320 320 320 320 320 320 321 321 321 321 321 321 321 321 322 321 317 309 318 323 346 345 327 325 326 335 335 342 342 325 319 320 320 324 334 331 335 340 337 338 342 334 335 339
319 319 319 318 318 319 320 320 320 320 321 320 320 321 321 322 317 312 327 342 345 344 321 325 322 328 329 331 335 332 323 323 330 330 328 332 329 332 333 335 336 333 335 337 338
318 318 318 318 318 319 319 319 319 319 319 319 320 320 321 323 315 313 341 343 345 341 328 331 331 330 325 331 332 333 325 330 331 334 334 332 330 332 332 331 335 329 331 334 336
317 317 317 317 318 318 318 318 318 318 318 319 320 320 321 320 309 325 343 342 342 323 330 330 327 322 323 323 329 325 325 328 334 336 334 332 334 332 334 334 339 335 334 335 334
317 317 317 317 317 317 317 317 318 317 318 318 319 320 319 313 310 334 338 336 319 318 327 328 322 320 319 320 323 324 323 330 331 335 335 337 332 334 328 336 341 337 335 335 334
317 317 317 317 317 317 317 317 317 317 317 318 319 320 315 308 323 331 323 318 315 321 330 327 321 324 321 317 318 328 331 329 329 332 336 332 332 335 333 341 337 336 334 334 334
316 316 317 316 316 317 317 316 316 316 317 319 319 319 317 312 325 329 324 320 318 324 327 326 324 321 320 316 322 324 322 329 327 330 332 335 328 330 339 340 336 334 334 334 334
316 316 316 316 317 316 316 316 315 318 320 321 319 319 312 321 322 326 326 319 321 325 328 327 325 319 318 320 320 317 322 320 325 326 332 331 322 333 338 337 333 332 333 332 334
317 317 316 316 316 315 315 315 316 322 324 321 317 317 310 325 317 325 327 319 322 326 327 324 320 315 316 312 313 315 313 317 319 326 330 329 322 332 338 335 332 332 331 332 333
317 317 316 317 315 314 314 314 318 319 321 320 322 313 314 313 317 323 326 323 319 320 318 316 313 309 310 311 304 309 311 317 318 322 326 325 326 331 335 334 333 332 332 332 332
317 317 317 315 314 313 313 319 316 317 315 310 312 313 315 320 322 322 322 318 318 316 309 313 306 304 307 312 315 316 315 317 319 323 324 317 316 327 334 333 332 332 330 331 332
317 317 316 315 314 313 314 318 314 316 309 313 314 313 317 319 313 317 322 312 312 307 311 309 304 309 311 312 311 313 312 316 319 322 323 318 318 327 333 334 334 332 332 334 335
316 316 315 314 313 312 318 318 319 318 307 312 312 311 315 318 313 313 317 314 309 307 307 306 308 311 310 309 308 310 310 317 314 318 324 323 317 312 331 334 336 336 337 336 336
316 315 314 312 307 319 317 318 320 318 302 306 306 310 315 316 312 318 319 314 312 307 308 307 312 310 309 307 310 306 315 315 318 315 309 319 308 322 328 327 326 333 336 337 338
316 314 313 310 315 316 318 319 319 314 292 305 307 316 314 310 312 313 319 315 309 308 308 305 308 308 307 308 312 310 316 316 317 315 311 312 311 317 323 322 317 326 336 337 337
315 314 311 314 316 319 320 320 316 299 291 301 306 306 308 309 310 313 313 316 316 311 310 309 313 311 310 312 316 316 313 313 315 312 304 310 309 313 319 318 322 325 337 337 338
313 311 311 320 316 322 320 314 300 294 306 300 302 306 306 305 306 309 308 306 305 303 303 308 308 311 313 309 314 313 310 302 302 302 301 311 309 315 319 321 326 330 335 333 333
310 309 314 319 324 322 318 308 296 300 302 306 304 304 302 305 305 307 306 304 308 308 306 302 301 309 312 310 309 310 310 302 297 298 301 310 306 313 324 326 326 332 334 338 331
309 320 319 324 325 323 313 301 296 301 305 303 304 300 301 304 304 304 304 305 306 309 303 303 303 312 312 314 313 310 307 313 305 306 302 307 314 319 323 324 328 335 337 335 339
317 319 321 321 323 319 307 295 301 305 305 304 299 302 298 301 301 302 303 307 306 309 311 308 300 309 310 313 314 312 314 305 307 298 297 305 308 310 317 324 330 331 333 336 338
318 315 321 323 321 310 298 300 304 306 307 304 302 300 301 300 302 302 303 306 308 308 310 308 305 304 308 306 306 308 307 309 309 306 300 300 304 319 321 327 327 327 328 331 334
319 308 319 319 309 310 303 305 301 305 307 304 304 304 302 302 302 300 302 304 308 308 305 309 305 300 303 308 310 309 309 309 303 303 306 304 306 318 323 327 326 325 327 328 330
314 312 319 318 300 304 305 304 305 305 304 303 301 303 304 302 300 303 304 306 308 307 306 309 304 299 300 304 307 305 308 309 309 309 303 301 304 322 324 324 326 324 326 327 328
315 305 311 313 310 306 303 302 301 305 305 306 303 305 301 300 303 301 302 304 307 307 309 311 304 301 295 300 305 302 305 308 307 302 304 303 307 316 318 318 322 324 325 326 326
312 305 310 303 304 305 305 302 299 300 305 306 304 304 301 299 300 301 303 303 305 305 307 306 299 302 304 304 304 304 303 305 304 306 304 307 310 313 318 318 320 322 323 322 322
310 309 310 307 307 306 302 302 301 301 304 301 302 304 304 302 303 299 303 303 303 306 306 307 301 303 301 302 302 301 304 305 305 305 308 309 308 315 318 319 318 320 320 320 320
318 317 313 305 306 304 302 303 302 304 303 305 304 303 304 305 307 308 309 308 308 306 304 304 302 301 296 301 299 296 301 302 303 306 310 306 310 315 315 315 315 316 317 316 317

GFSSW_sfc_thetae_099.txt.gz
Theta_e
320 320 319 319 319 319 320 320 320 321 321 321 321 321 322 322 322 317 306 313 317 341 345 322 320 315 318 327 336 341 323 318 319 321 326 334 330 337 340 335 336 334 331 334 337
319 318 318 318 319 318 319 319 320 320 320 320 320 321 322 322 316 310 322 336 340 341 317 312 315 316 313 321 328 332 320 322 329 328 328 332 329 330 332 332 334 329 334 336 338
318 318 318 318 318 318 319 319 318 318 318 319 320 320 322 321 312 310 343 336 345 342 316 315 321 317 315 323 324 332 318 327 329 331 333 329 329 332 331 328 329 326 329 333 335
317 317 317 317 317 317 318 318 318 318 318 319 319 320 322 315 305 320 351 341 347 322 314 313 322 315 317 316 327 324 329 329 328 334 331 327 330 329 334 333 340 331 332 331 330
317 317 317 317 317 317 317 317 317 317 318 318 319 320 316 310 308 328 345 342 322 315 311 317 319 318 314 316 325 323 327 330 332 335 334 333 331 333 330 339 339 333 332 330 329
317 316 317 316 316 316 317 317 317 317 317 318 319 319 312 302 324 330 322 320 314 308 312 321 323 321 315 316 316 328 324 326 331 333 333 330 329 328 328 335 334 331 330 330 329
316 316 316 316 316 316 316 316 316 317 317 318 319 317 310 308 323 326 318 311 310 309 316 326 328 317 316 313 315 329 324 329 329 331 331 334 328 324 331 333 333 331 330 330 330
317 316 316 316 316 316 316 315 316 316 318 319 320 315 304 318 317 322 319 315 313 314 320 328 325 315 310 314 313 310 314 314 323 331 332 330 319 330 334 333 331 330 330 330 331
317 317 316 316 316 315 314 315 316 318 323 324 313 310 307 322 314 316 320 314 313 312 316 326 319 308 310 304 301 306 301 310 319 330 328 327 318 322 335 335 328 329 329 328 330
317 316 315 316 314 314 314 314 316 318 320 318 315 307 312 311 312 316 322 318 313 313 314 315 307 301 301 298 294 301 303 309 314 326 326 320 320 329 335 330 328 328 327 326 329
316 315 315 315 315 314 312 313 309 311 313 304 307 313 312 315 315 316 321 316 314 311 304 308 299 295 300 303 305 308 307 308 318 326 323 321 320 327 332 330 328 327 325 326 327
316 315 316 316 314 313 310 310 315 309 303 310 309 310 315 312 310 315 317 309 307 303 306 302 297 305 306 307 306 306 305 313 320 323 321 318 321 328 332 330 329 327 326 326 329
315 315 315 314 313 308 310 314 320 313 300 306 311 308 310 313 309 311 312 309 305 303 303 299 304 309 306 304 303 303 300 311 314 319 322 318 315 317 326 332 330 329 330 330 330
315 315 314 312 308 313 311 317 319 313 294 302 305 308 310 313 308 317 315 309 305 302 303 302 308 307 304 303 303 296 307 310 316 311 309 322 304 311 321 327 329 328 330 330 332
315 315 313 311 308 308 314 316 312 307 287 305 304 312 308 307 310 310 316 311 304 305 303 300 303 303 303 304 306 302 308 316 314 310 309 311 307 308 318 320 326 331 331 332 332
315 314 312 311 311 312 316 317 310 293 289 300 305 303 303 307 307 311 310 311 311 307 304 304 309 305 304 308 308 309 306 313 313 307 301 306 307 308 314 320 321 328 333 335 335
313 312 310 315 310 318 318 309 294 290 305 299 299 303 302 301 304 306 305 302 298 293 296 302 304 306 308 301 305 306 300 293 296 298 297 304 306 309 320 322 322 323 325 331 336
311 309 311 315 317 318 316 305 293 300 300 306 305 302 300 303 302 304 303 299 303 302 298 295 294 303 307 302 299 301 299 294 291 293 297 306 305 309 320 326 326 327 327 332 331
309 315 315 318 318 317 310 295 296 301 304 301 300 298 297 302 302 302 301 300 303 303 293 298 297 308 308 308 305 301 299 303 296 297 294 304 309 317 320 320 327 323 328 331 333
311 314 315 323 322 315 303 296 300 306 306 302 297 300 296 299 299 297 300 304 304 305 304 301 294 304 308 308 307 305 307 297 296 291 289 301 303 305 316 323 328 329 331 334 336
315 310 319 321 320 308 297 298 304 307 305 302 299 299 299 299 300 298 299 303 305 304 305 300 298 300 303 299 299 302 300 301 298 298 292 295 303 318 320 322 323 326 329 331 327
313 307 318 318 306 306 300 302 303 303 304 303 302 301 299 301 300 299 300 301 306 304 300 303 297 293 298 303 305 303 302 300 294 293 302 301 300 321 323 322 322 323 325 328 332
310 311 313 313 300 300 302 302 304 303 303 302 300 301 301 301 297 301 303 305 306 304 301 302 296 292 294 296 299 297 301 298 298 299 300 296 298 323 322 321 323 322 324 325 328
312 303 310 309 306 302 301 300 299 304 304 304 301 303 300 299 301 300 300 304 305 303 316 308 298 295 291 293 298 296 300 301 296 295 299 302 308 316 318 319 321 320 320 321 322
314 301 306 298 301 302 303 302 299 299 304 306 302 303 300 296 298 299 303 301 304 310 305 299 295 295 297 301 300 299 300 301 296 302 300 301 307 312 315 316 317 318 318 317 317
308 307 309 303 306 305 301 299 299 300 301 300 301 303 305 299 299 298 300 300 300 304 299 301 296 296 296 302 300 297 300 301 301 308 306 309 308 318 318 317 316 316 316 315 315
317 318 313 306 304 300 299 301 301 306 303 303 303 303 300 301 304 304 303 302 302 299 300 299 299 296 289 298 297 292 297 299 307 312 311 303 308 316 314 314 313 312 313 312 312

GFSSW_sfc_thetae_102.txt.gz
Theta_e
319 319 319 319 319 319 319 320 320 320 320 320 320 321 321 322 322 317 306 309 313 330 345 327 325 317 313 317 334 341 322 317 319 321 325 333 330 336 337 331 331 333 331 333 338
318 319 318 318 318 319 319 319 319 319 318 318 320 320 321 322 315 310 319 328 336 336 324 312 313 312 307 313 318 329 317 319 327 328 329 331 331 331 329 331 333 329 332 338 341
317 317 317 317 317 317 318 318 318 318 319 318 319 320 320 320 307 310 333 336 338 341 316 311 313 313 307 314 321 326 320 324 328 332 334 330 329 333 327 324 328 326 329 337 337
317 317 317 317 317 317 317 317 317 317 318 318 317 320 320 313 298 319 349 338 346 331 313 309 308 309 309 310 325 320 326 327 330 334 331 328 331 325 327 330 333 332 333 336 336
317 316 316 316 316 316 316 317 317 317 316 317 318 319 314 307 305 319 348 341 336 316 310 308 309 313 308 314 327 325 328 327 333 332 330 331 329 332 330 337 339 333 333 334 335
316 316 316 316 316 316 316 316 316 316 316 317 318 319 309 296 313 329 330 324 314 309 308 310 317 320 316 316 317 324 327 328 331 332 331 329 330 329 331 337 336 331 329 332 336
316 316 316 316 316 316 316 316 316 315 316 317 318 316 310 302 318 324 317 310 309 306 308 311 317 319 316 309 315 316 319 326 328 332 330 330 322 325 332 335 331 329 328 328 333
317 316 317 316 317 316 315 315 314 316 316 317 318 312 300 316 315 312 316 310 310 305 308 319 321 320 314 311 309 306 318 313 326 330 331 329 314 325 331 332 330 328 328 328 334
316 317 316 315 315 315 314 315 316 318 318 320 309 304 302 321 312 313 316 312 308 305 309 320 318 311 306 301 297 300 297 312 321 331 329 325 315 327 333 332 331 330 327 327 333
317 316 315 315 314 314 314 315 315 316 320 319 314 304 307 308 308 312 315 314 308 307 308 307 307 299 299 296 291 295 299 306 315 325 325 320 319 326 330 331 332 330 326 325 331
316 316 315 315 315 313 309 308 307 307 308 300 302 308 312 311 312 310 316 311 307 305 300 306 297 294 298 299 301 300 300 315 321 326 321 319 317 322 327 330 331 326 323 325 331
315 315 314 314 314 312 306 304 310 306 299 310 308 311 314 308 305 309 316 307 305 301 303 299 295 301 304 303 302 300 300 314 319 324 321 321 320 327 328 329 328 325 322 325 328
315 314 314 313 313 305 304 308 315 311 298 302 307 306 306 307 305 306 311 306 303 300 301 296 301 306 304 301 300 298 297 312 313 319 321 319 315 320 325 329 328 327 325 327 327
315 315 314 312 306 306 306 310 311 310 290 296 299 307 307 308 305 315 311 306 303 300 301 300 305 305 302 301 300 292 302 314 316 312 308 317 300 312 318 323 326 327 326 325 326
315 315 313 311 302 301 307 308 313 301 283 303 302 311 304 305 307 308 314 307 300 302 300 298 301 301 300 302 303 299 305 311 315 309 310 312 305 306 318 320 324 328 328 329 329
315 314 312 307 304 307 310 311 304 290 286 301 303 299 299 303 304 309 308 308 308 303 302 301 306 302 301 305 305 306 311 311 309 305 298 306 307 308 313 320 324 328 328 331 332
313 311 309 312 304 309 310 304 292 290 303 300 299 301 298 298 302 305 303 299 296 291 291 300 301 304 305 299 301 302 296 290 294 298 296 307 306 307 319 325 327 329 331 333 333
310 309 307 312 309 310 307 299 289 299 298 303 303 300 295 299 298 302 300 297 300 297 293 292 292 300 305 301 297 297 297 291 289 291 294 307 302 309 320 323 326 329 329 332 333
308 304 305 310 312 309 300 290 290 297 302 301 299 294 294 301 299 300 299 298 300 299 293 292 294 305 305 305 302 296 294 299 294 293 296 302 307 314 322 321 323 322 329 332 332
304 305 306 313 314 307 298 293 296 303 305 301 294 297 294 298 297 296 297 301 301 304 300 297 292 299 305 304 303 300 302 298 294 289 288 299 301 303 313 322 326 323 327 330 328
307 303 310 315 311 303 293 293 300 306 306 298 296 294 295 297 299 298 298 300 303 301 302 296 295 296 300 297 297 300 298 297 296 293 291 293 298 319 320 324 325 328 329 327 327
304 299 314 309 299 297 295 299 303 299 302 299 299 296 297 298 297 299 298 298 303 300 299 299 294 290 295 301 303 302 299 296 293 291 299 297 303 322 321 323 324 325 326 329 330
301 303 307 307 293 293 297 299 298 299 298 299 297 297 299 296 295 300 301 304 303 301 295 298 292 290 293 295 299 295 297 294 295 297 294 294 300 322 322 322 324 324 326 328 328
303 294 298 298 294 294 293 294 294 301 301 300 296 298 294 296 296 298 300 303 304 300 316 306 291 292 290 290 295 293 297 296 293 291 295 299 307 315 318 318 321 322 322 323 326
305 295 296 292 294 294 295 296 296 296 299 300 298 299 295 291 297 296 299 301 303 309 302 299 291 292 294 298 297 296 297 298 294 298 295 305 308 315 318 316 316 317 317 316 317
302 302 304 297 296 296 294 291 296 297 297 295 298 300 299 296 296 294 295 296 297 302 298 297 292 294 293 298 297 295 298 302 305 309 307 308 307 316 316 315 313 313 313 313 314
310 309 306 301 293 292 292 295 299 301 300 302 301 298 296 298 300 297 300 298 297 296 296 295 293 293 290 295 294 290 295 299 307 309 310 304 310 315 313 312 311 312 312 312 311

GFSSW_sfc_thetae_105.txt.gz
Theta_e
318 318 318 318 317 318 318 319 319 319 319 318 319 320 320 321 320 316 303 307 312 331 347 335 325 318 314 317 332 337 320 315 319 321 324 329 326 334 337 330 331 332 331 334 340
317 317 317 317 317 317 317 317 317 317 318 318 317 319 320 321 313 309 317 326 330 340 322 318 315 312 305 309 316 326 317 317 325 326 328 329 329 330 329 328 327 329 333 338 340
317 317 317 317 317 317 317 317 317 317 317 317 318 317 320 319 303 301 329 331 337 337 316 311 314 309 305 310 317 326 319 324 326 330 332 329 328 331 327 326 326 325 329 336 336
317 317 317 317 317 316 316 316 316 317 317 317 317 318 320 311 289 314 345 335 339 326 312 308 307 306 306 307 321 318 325 327 329 333 332 328 331 326 329 331 334 331 334 335 334
316 316 316 317 316 316 316 316 316 316 316 316 317 318 313 303 299 311 350 335 330 320 309 305 305 309 306 309 325 321 327 328 334 332 331 331 328 326 328 336 335 336 336 334 334
317 317 316 316 316 316 317 316 315 316 316 316 316 318 306 291 304 321 329 331 323 311 307 307 308 313 313 312 319 326 327 328 331 331 329 328 327 331 330 338 333 334 333 334 335
316 317 317 316 316 316 316 315 315 315 315 316 317 316 308 299 319 323 321 316 311 308 305 308 312 317 316 310 313 315 321 326 328 330 327 329 322 324 332 335 329 330 332 334 336
317 316 316 316 315 315 314 314 314 314 315 316 317 310 297 311 314 311 314 308 308 303 304 311 316 316 316 316 307 305 316 316 325 330 328 327 314 326 332 332 329 327 330 333 335
316 316 316 315 314 314 314 315 316 316 317 318 306 303 298 316 310 311 312 311 306 302 303 312 317 312 309 300 296 298 298 312 319 330 327 323 316 326 332 331 329 326 325 330 333
316 316 315 315 314 315 314 315 315 316 319 318 314 301 306 304 308 311 311 313 305 304 304 305 305 299 296 295 291 294 296 307 317 325 327 320 318 325 329 330 330 329 324 329 331
316 314 314 314 313 313 308 307 305 303 307 297 298 303 308 311 311 308 313 309 305 302 297 302 297 294 298 299 299 299 299 315 320 323 319 317 319 322 327 329 330 331 321 328 330
316 315 314 313 312 312 304 301 307 306 299 308 306 307 311 308 303 305 311 304 302 297 302 297 294 300 303 302 300 299 307 313 319 324 321 316 318 323 326 327 329 330 321 327 329
315 315 314 313 311 306 302 304 310 307 297 301 306 305 305 306 302 303 310 306 301 298 299 296 299 304 302 300 299 294 297 312 313 318 322 319 315 319 324 328 330 333 323 329 329
315 314 314 312 303 304 303 306 308 307 289 296 298 305 306 305 302 311 311 307 301 300 300 298 304 303 299 299 299 290 300 314 315 310 304 317 301 312 321 324 328 328 323 327 329
315 315 313 310 301 301 306 306 306 300 284 303 301 307 303 303 305 306 310 305 299 300 299 297 299 300 298 300 301 298 303 311 315 309 308 312 303 304 320 319 323 327 324 326 330
315 313 311 306 304 307 309 307 301 290 287 300 303 302 298 301 303 308 306 307 306 301 299 300 303 301 300 303 303 306 311 310 307 304 297 308 305 305 312 318 322 327 327 326 330
313 310 308 310 304 307 307 302 292 287 301 298 297 300 296 294 300 303 301 297 295 291 290 298 300 302 303 296 299 299 300 293 294 295 295 303 304 304 317 322 325 326 327 328 329
310 308 307 310 307 309 304 297 288 297 296 301 301 298 293 297 298 300 298 296 297 296 291 290 290 299 301 299 295 295 297 290 288 291 294 304 298 305 319 324 327 331 331 333 333
308 303 304 308 310 306 298 288 289 294 300 300 297 294 293 300 299 298 297 295 299 297 292 289 292 303 303 302 301 295 293 297 292 291 296 300 304 313 320 319 325 327 330 332 332
303 305 304 311 311 304 296 291 293 301 303 298 292 295 292 296 296 294 296 298 299 301 296 293 290 297 303 302 304 297 300 294 291 287 287 297 298 302 314 318 319 324 325 328 332
304 304 309 310 308 300 292 291 298 303 304 297 294 294 293 296 297 296 293 299 300 299 300 295 293 295 298 294 296 299 297 294 293 291 291 292 298 318 318 324 324 325 326 328 331
302 298 309 308 298 294 292 297 301 298 300 298 298 296 296 298 296 297 295 296 302 299 296 297 291 289 293 299 300 298 297 295 291 291 294 296 301 322 323 325 325 325 327 328 327
299 300 306 306 291 292 294 299 298 297 297 297 295 297 299 296 295 299 300 303 301 300 295 296 291 289 291 293 298 294 294 292 293 295 293 294 301 322 323 322 325 325 326 328 330
301 292 296 296 292 291 291 292 293 300 299 298 295 296 295 295 296 294 299 304 304 303 315 303 290 290 288 290 293 291 295 294 291 290 294 298 309 316 318 317 319 321 324 325 325
300 294 295 291 294 292 292 294 294 294 297 299 298 297 293 291 293 295 298 299 304 309 300 297 292 292 295 296 296 295 297 296 291 295 294 306 309 315 318 318 316 318 320 320 320
301 300 302 296 293 292 291 290 294 295 295 295 296 298 297 294 294 292 294 295 296 301 299 297 291 293 294 299 296 294 296 303 305 308 306 310 310 319 319 314 313 314 313 313 314
307 306 303 297 292 292 291 294 298 297 298 300 300 297 296 297 298 297 300 295 293 293 294 296 293 291 289 294 295 290 294 296 306 308 311 307 312 315 312 312 311 312 312 311 312

GFSSW_sfc_thetae_108.txt.gz
Theta_e
317 317 317 317 317 317 317 317 317 317 318 318 318 317 318 319 319 314 301 306 311 329 335 334 328 320 325 324 333 336 318 314 319 321 321 329 326 334 337 328 331 332 330 334 340
317 317 317 317 317 317 317 317 317 317 317 317 317 318 317 319 311 306 315 323 328 340 331 320 313 310 304 309 320 325 316 318 324 327 324 327 328 330 327 326 326 328 334 338 340
317 317 316 316 317 317 317 316 316 316 316 317 317 317 319 318 300 296 324 329 333 341 321 316 314 307 304 309 314 325 318 325 327 330 329 328 328 331 326 322 325 326 331 335 336
317 317 317 316 316 316 316 316 316 316 316 316 316 317 319 310 287 310 336 332 336 328 310 308 308 305 304 306 317 319 326 326 328 334 332 327 329 327 329 329 331 333 335 335 334
317 316 316 316 317 316 316 316 316 316 316 316 316 317 311 299 298 306 349 334 329 317 307 304 306 306 305 308 322 319 326 329 333 334 332 331 327 326 328 334 332 335 335 333 333
316 316 316 316 315 316 316 316 316 315 315 315 316 317 304 291 302 320 327 325 322 310 305 305 306 312 310 311 317 321 325 329 331 331 331 327 326 327 329 336 330 333 332 333 333
316 316 316 315 315 315 314 314 314 314 314 315 315 315 306 297 314 320 323 318 315 308 304 305 310 311 315 310 313 319 320 326 328 328 328 329 321 324 333 333 328 331 332 333 333
316 316 316 315 314 314 314 314 314 314 315 315 316 309 294 308 312 310 312 308 309 303 304 307 312 313 314 315 305 309 317 314 325 328 329 325 314 327 333 331 328 330 331 332 333
315 315 315 314 314 314 315 315 316 316 316 317 304 300 294 315 308 312 310 308 304 301 302 311 311 308 309 299 296 297 302 312 319 328 326 323 315 325 332 331 326 328 330 331 333
316 315 314 314 313 312 313 314 317 317 317 317 313 299 304 303 307 308 308 308 303 302 302 301 303 299 296 295 292 292 294 310 316 324 326 321 319 325 329 330 328 327 329 331 331
315 315 315 313 312 311 306 307 302 300 305 298 297 301 304 309 309 307 310 308 302 297 294 299 298 295 295 298 299 298 311 314 320 322 320 317 316 322 327 328 328 325 324 328 330
315 315 314 313 312 311 304 299 302 304 298 306 306 304 307 306 302 304 310 304 300 294 298 297 295 301 303 300 299 304 312 313 319 323 317 316 317 323 326 327 329 329 320 326 329
315 314 314 313 311 306 300 302 307 306 295 300 305 303 303 306 302 302 307 303 299 297 298 297 300 303 301 298 298 294 307 311 312 319 319 317 314 319 325 328 330 332 324 328 330
315 314 313 312 302 303 302 306 306 305 290 297 297 303 304 303 300 308 309 306 300 298 300 298 303 301 299 298 298 290 301 317 315 308 303 315 301 314 320 322 326 328 323 326 329
315 313 311 311 301 301 303 304 303 298 283 302 302 307 301 299 302 304 309 304 298 300 299 297 299 299 297 299 300 297 302 316 314 308 305 311 302 306 320 318 322 326 325 327 330
314 312 311 306 304 305 308 303 299 291 286 298 303 301 297 298 301 305 304 305 304 300 298 299 302 300 300 302 302 309 311 309 306 304 297 305 304 304 313 317 321 325 328 327 329
312 310 308 309 302 306 306 302 291 286 299 296 295 298 295 293 299 302 299 296 294 290 289 296 298 300 301 295 297 300 299 294 293 294 294 300 303 303 315 322 324 324 326 326 330
310 307 306 309 306 306 302 296 287 296 295 299 299 296 292 294 295 299 298 295 297 294 289 289 289 297 300 298 294 296 298 294 288 290 294 302 299 304 319 322 326 327 329 325 328
308 301 302 306 308 304 297 287 288 292 299 298 296 293 293 298 297 297 296 295 297 296 291 288 291 300 300 299 300 294 294 298 293 289 294 298 304 312 320 322 325 327 329 327 328
303 303 304 309 309 302 295 290 291 299 301 297 290 294 291 295 296 294 294 297 297 299 295 293 288 295 300 302 302 296 299 292 290 286 287 296 298 302 314 317 324 325 328 329 330
302 301 307 308 305 298 290 290 296 301 302 295 293 293 293 296 296 294 293 297 299 299 298 293 292 294 296 293 296 297 294 293 293 291 291 291 297 317 317 318 322 326 329 330 331
300 297 307 304 297 292 291 296 300 296 299 296 297 296 296 296 296 296 293 295 300 299 296 296 290 289 294 297 297 296 295 294 291 292 293 295 298 323 323 326 324 325 328 329 331
298 299 306 304 291 290 293 295 297 296 296 296 296 297 296 292 293 297 298 302 303 299 296 296 290 287 290 292 295 293 293 292 293 296 294 294 298 322 323 323 326 324 326 327 328
298 293 296 295 291 292 290 291 292 299 297 297 296 296 293 294 294 296 298 303 305 306 310 303 291 289 287 288 292 291 295 293 291 290 292 296 306 317 318 320 323 325 326 327 328
298 294 294 291 293 290 291 292 293 292 296 298 296 295 292 291 293 294 296 299 303 306 300 297 291 292 293 294 295 294 296 299 291 293 295 299 307 314 318 319 321 323 324 324 323
300 299 298 293 290 290 291 291 292 294 295 294 295 296 295 292 292 292 293 293 295 298 298 298 294 293 294 297 296 293 300 297 306 304 305 308 309 319 320 318 319 320 320 318 318
304 304 300 294 291 291 290 292 296 296 296 297 298 296 294 294 295 295 295 295 293 293 294 295 294 292 288 294 296 292 297 295 304 308 309 304 310 317 313 315 314 313 314 314 314

GFSSW_sfc_thetae_111.txt.gz
Theta_e
317 317 317 317 317 317 317 317 318 317 317 317 317 318 317 317 318 317 305 310 315 331 340 330 331 327 335 335 337 336 322 317 319 320 323 329 327 333 335 329 331 333 332 337 342
317 317 317 317 317 317 317 317 317 317 316 317 317 317 318 319 313 308 317 322 327 339 327 321 318 320 320 325 332 330 323 318 325 327 325 327 328 328 327 329 329 331 337 340 342
317 317 317 317 316 316 316 316 316 316 316 316 317 317 318 319 304 301 322 327 330 338 327 321 318 317 312 318 322 327 321 326 328 329 330 327 327 332 327 324 329 328 333 337 339
317 317 317 317 317 317 316 316 316 316 316 316 316 317 319 315 295 316 334 330 337 333 323 317 314 311 311 313 322 323 327 328 330 332 328 327 329 328 330 330 333 334 336 337 336
317 316 316 316 316 316 316 316 316 315 315 316 316 317 315 305 303 310 337 331 333 320 316 314 311 312 311 315 322 323 326 330 333 331 331 331 327 327 327 333 335 336 336 335 335
317 317 316 315 315 315 315 315 315 315 315 315 316 316 310 298 311 329 336 326 326 316 311 314 312 317 315 315 319 322 328 331 332 329 330 326 326 328 329 334 333 334 333 334 334
316 316 316 315 315 314 314 313 313 313 313 314 315 316 308 303 314 328 327 322 320 315 310 311 315 317 320 316 320 326 325 327 330 330 328 328 322 323 331 331 330 331 332 334 336
316 316 316 315 314 314 315 315 315 314 314 314 316 315 301 310 315 324 317 316 314 312 312 313 316 318 319 322 310 320 323 316 327 330 329 327 317 327 333 330 329 330 332 334 337
316 315 315 314 314 313 313 315 315 315 316 317 313 310 300 318 310 318 317 310 314 312 312 313 313 314 317 311 305 310 309 315 321 329 327 324 319 328 333 328 330 331 333 334 336
316 315 314 314 313 312 312 314 318 318 317 317 315 306 309 308 312 313 314 314 309 309 307 307 310 310 311 307 302 302 305 317 318 325 326 322 319 324 330 328 330 332 333 334 335
316 315 314 314 313 311 310 315 309 308 311 306 306 305 307 313 313 310 314 309 308 306 300 307 306 306 310 310 306 306 312 317 321 325 323 319 317 323 328 330 330 331 332 334 336
316 315 314 313 312 311 309 307 309 311 304 309 309 307 309 311 306 308 314 308 304 298 304 304 301 310 310 305 306 321 318 317 321 323 321 319 319 324 327 328 330 331 332 334 336
315 314 313 313 311 309 307 308 312 312 304 305 308 308 308 310 306 307 311 309 301 300 303 302 305 311 307 304 304 308 312 317 317 320 322 321 317 321 327 329 331 332 332 334 336
314 314 312 311 306 309 307 311 312 312 300 303 305 308 309 308 305 312 314 309 305 300 305 306 307 308 304 304 306 302 309 320 317 314 309 317 304 314 322 324 327 329 331 330 335
314 313 311 310 307 308 309 313 310 306 289 305 306 312 308 306 308 307 315 312 304 304 306 304 304 304 303 305 306 304 309 320 317 314 313 312 308 312 321 320 324 329 331 331 334
313 312 311 308 308 312 313 311 307 298 289 301 305 304 302 305 307 309 309 312 310 305 306 305 308 308 307 307 308 313 318 318 316 314 301 309 309 310 316 318 324 328 331 333 333
311 309 309 311 310 312 312 309 299 292 303 299 301 304 302 302 305 306 305 305 302 299 300 304 304 306 307 304 307 311 309 302 302 302 300 310 310 311 321 324 326 327 330 332 335
309 308 309 312 314 313 310 305 293 298 299 303 303 302 299 301 303 305 304 302 303 302 300 299 296 304 306 305 302 312 308 301 294 296 301 311 306 312 324 327 330 331 331 332 334
308 309 310 313 313 312 308 296 296 298 302 301 301 299 299 302 301 303 303 303 305 305 299 298 297 305 306 307 307 302 300 309 304 304 304 309 312 318 325 324 328 329 330 331 332
312 313 313 315 314 311 304 295 299 302 304 303 296 299 297 300 299 300 300 302 302 304 306 302 297 304 306 307 306 305 308 299 302 298 297 305 307 312 318 321 325 327 328 331 334
311 311 314 315 313 309 299 299 301 305 304 301 298 298 299 299 301 299 298 301 303 303 305 304 301 302 304 303 302 303 302 303 304 303 300 300 307 320 321 324 326 329 330 333 333
309 307 314 311 306 301 301 301 299 301 303 301 301 302 300 300 299 299 297 300 305 305 302 304 302 299 301 304 305 307 305 307 300 301 307 307 309 325 327 328 329 329 332 333 334
309 309 312 312 300 301 302 300 302 302 302 302 300 301 302 300 299 301 301 306 307 303 303 304 300 297 298 301 303 302 302 306 309 310 307 303 307 325 328 328 330 327 330 332 334
306 303 307 303 300 301 298 298 298 302 302 303 301 301 301 300 302 300 301 305 307 308 310 308 299 299 297 299 302 300 302 303 305 303 306 307 311 319 322 325 325 327 329 330 332
308 303 302 301 300 299 300 299 298 298 302 304 302 300 300 299 299 298 299 302 305 307 305 304 298 300 300 301 303 304 303 303 301 304 303 308 313 318 323 325 326 327 328 328 327
310 308 305 300 298 301 298 299 298 299 300 297 300 301 301 299 299 297 299 299 298 303 306 306 300 301 299 301 300 303 306 308 308 306 311 313 314 325 326 326 324 325 325 323 324
312 312 307 298 299 300 300 300 300 301 301 301 301 301 300 300 302 302 302 301 299 299 300 303 303 300 296 300 299 298 305 308 309 312 313 310 317 324 321 322 321 321 321 319 321

GFSSW_sfc_thetae_114.txt.gz
Theta_e
318 318 318 317 317 318 317 317 317 317 317 317 318 318 318 319 320 319 309 314 317 332 335 333 328 335 343 339 341 341 328 321 320 321 324 332 328 334 337 334 333 335 334 341 345
318 318 318 318 318 317 317 317 317 317 317 317 317 317 318 319 317 313 327 322 324 341 327 324 321 329 328 332 337 334 328 322 329 329 326 329 329 330 331 332 332 333 339 342 343
318 318 318 317 318 318 317 317 317 317 317 316 317 317 318 321 312 307 327 330 329 340 327 325 323 321 318 328 332 330 325 329 331 332 331 328 330 332 331 329 332 332 335 339 339
318 318 317 317 317 317 317 317 317 316 316 316 316 317 318 319 301 319 336 332 336 329 325 321 320 315 316 321 330 326 330 331 330 332 328 326 329 330 331 332 337 337 339 339 337
318 317 317 316 316 316 316 316 316 316 316 316 316 317 319 311 309 315 335 332 330 323 321 318 315 315 313 323 328 328 329 333 332 330 331 330 330 328 330 335 337 337 337 336 335
317 317 316 316 315 315 315 315 315 314 315 315 316 317 314 306 317 328 330 324 327 323 319 319 316 317 320 324 326 326 329 332 330 329 330 327 327 329 332 336 335 335 333 335 334
317 316 316 315 315 315 314 315 314 314 313 314 316 318 312 310 317 332 328 323 325 321 318 321 319 318 325 323 326 327 324 330 329 329 326 328 320 324 332 334 331 331 334 335 336
316 316 316 315 314 314 314 314 316 316 315 315 316 317 308 313 319 324 325 319 325 320 320 321 320 321 325 326 321 322 323 319 327 327 328 325 317 327 332 329 328 331 333 335 336
316 316 315 315 314 313 312 313 316 317 316 317 317 314 306 317 313 320 319 313 319 318 316 317 318 316 323 319 313 320 313 316 322 329 326 323 319 327 331 327 328 330 332 336 338
316 315 315 315 315 313 312 315 318 318 319 319 318 311 313 311 314 317 319 316 313 313 310 311 312 311 319 317 308 311 312 320 318 324 326 325 321 326 330 330 329 331 334 336 338
316 315 315 314 314 312 313 321 317 316 316 312 311 310 311 316 318 315 318 313 311 309 304 308 306 305 315 319 313 313 312 319 323 326 324 322 320 325 328 328 328 329 333 335 337
315 315 315 314 313 312 314 314 314 315 309 314 313 312 314 315 309 315 318 310 308 302 307 306 303 310 318 319 310 315 313 320 325 329 324 323 322 328 328 326 331 331 332 335 336
315 314 313 313 312 312 316 315 319 319 310 310 312 311 313 315 309 312 315 312 307 304 304 304 306 313 315 313 309 319 316 319 318 324 326 323 320 324 326 329 332 333 336 335 335
315 314 312 312 309 320 315 318 319 318 306 305 309 311 313 314 307 316 317 312 305 302 305 306 311 310 314 313 312 310 315 320 322 319 312 325 305 321 324 326 330 331 333 335 336
314 313 311 309 317 316 316 320 320 316 294 306 309 316 314 310 310 310 317 313 305 303 306 305 308 310 311 313 313 310 316 319 320 318 317 316 307 314 325 321 324 329 332 333 335
313 312 311 313 318 319 320 320 316 302 292 303 308 307 307 309 310 311 312 316 313 307 308 309 315 315 313 315 313 312 315 316 316 316 305 313 313 313 320 323 328 330 331 333 335
311 310 311 317 318 321 321 316 304 297 305 301 304 306 305 306 307 308 307 307 305 301 300 307 309 312 314 311 313 314 313 304 303 304 304 312 310 315 323 326 329 330 331 335 335
309 308 312 319 322 320 318 309 296 300 301 307 306 305 302 306 308 307 306 304 308 306 303 301 299 309 311 310 308 310 311 304 298 302 305 314 307 314 324 329 332 334 333 337 337
308 320 321 324 322 321 313 301 299 301 304 304 305 302 302 304 306 307 306 306 308 308 302 301 302 310 311 312 310 309 307 314 307 310 306 310 315 321 326 327 330 332 333 332 336
322 323 321 323 323 318 309 298 302 306 306 306 300 303 300 302 303 305 305 309 307 309 311 306 300 307 309 311 311 309 315 307 308 301 300 307 309 314 321 325 329 330 332 331 335
320 316 322 324 321 313 303 302 303 308 307 304 302 302 304 302 304 303 303 306 308 308 310 309 305 304 308 305 305 306 305 308 309 307 303 302 308 326 326 328 329 332 331 333 335
318 310 322 322 310 310 304 304 300 305 308 306 305 305 304 305 303 303 301 305 309 310 306 310 306 303 303 309 311 309 307 308 303 304 307 308 312 328 330 331 331 334 334 336 339
317 315 323 319 305 306 306 304 305 304 306 306 304 305 308 305 301 304 303 308 310 308 308 310 305 300 302 306 309 307 308 309 309 309 307 303 309 330 332 332 334 332 334 336 337
315 307 313 316 313 307 304 303 301 306 305 307 306 307 306 304 306 301 303 307 309 310 311 311 307 304 298 303 307 305 306 309 308 305 306 308 314 324 328 329 329 331 333 335 338
318 309 309 307 307 307 307 304 300 300 305 308 306 305 305 303 304 303 303 307 308 309 311 310 304 306 305 307 307 306 306 307 306 308 305 308 310 321 328 330 329 331 333 334 334
315 313 313 310 307 306 303 302 299 301 303 300 304 305 307 304 304 302 302 305 303 309 310 310 303 306 303 304 307 306 307 307 308 308 309 310 315 328 332 332 331 330 329 329 333
323 322 314 302 305 305 304 302 302 304 305 305 302 306 304 304 307 307 308 306 305 304 306 306 305 304 300 304 304 303 308 310 311 314 315 308 321 329 327 327 327 325 326 326 326

GFSSW_sfc_thetae_117.txt.gz
Theta_e
319 318 319 319 318 318 318 318 318 318 318 318 319 319 319 320 320 321 313 320 322 334 336 333 333 331 338 337 340 342 329 322 322 322 325 333 330 337 341 334 335 337 336 339 343
319 319 319 318 318 318 318 318 317 318 318 318 318 318 319 320 320 317 330 332 327 338 330 328 323 328 332 332 335 335 329 325 330 332 329 332 331 333 334 333 333 335 339 341 342
319 319 318 318 318 317 318 318 318 317 318 318 318 318 318 320 319 316 331 335 333 332 328 328 325 326 325 326 332 331 327 329 332 334 333 330 329 336 333 330 333 334 336 338 339
318 318 317 317 317 316 317 317 317 318 317 317 317 318 319 320 306 322 335 339 336 322 327 323 322 319 317 322 333 325 330 335 333 333 332 329 333 331 332 334 338 339 338 337 336
318 317 317 317 317 316 316 316 316 316 317 317 317 318 319 316 314 329 334 333 320 326 324 321 319 318 315 324 330 326 330 335 335 329 329 331 330 330 333 336 339 339 337 335 335
317 317 317 317 316 316 316 315 315 315 315 317 317 317 317 310 321 325 328 320 317 320 322 322 319 321 319 327 327 331 331 333 331 331 331 329 330 332 332 336 336 336 334 334 334
317 317 317 317 316 316 316 316 316 315 315 315 317 319 315 313 319 329 329 319 323 321 320 322 322 318 324 327 332 329 326 330 329 328 326 329 321 326 334 334 333 332 332 333 334
317 317 317 316 316 315 315 314 315 317 316 317 318 320 314 318 322 326 326 322 325 325 324 324 323 320 325 330 327 326 326 319 325 326 327 325 313 327 333 332 329 329 331 332 334
317 317 316 316 316 315 314 314 316 318 318 318 319 319 310 315 315 324 325 319 320 321 323 322 320 317 324 323 320 322 313 320 319 328 325 324 317 329 332 329 327 329 331 333 334
317 316 316 316 315 315 314 314 319 318 320 322 320 313 315 313 319 319 321 320 317 316 314 315 314 312 318 320 312 313 314 320 317 323 324 320 320 327 331 327 327 329 331 333 334
316 316 316 316 316 313 314 323 319 320 320 314 313 313 313 318 321 318 318 315 316 313 307 311 307 306 313 321 319 317 315 318 323 327 321 319 320 323 327 326 326 328 330 332 334
316 315 315 315 315 313 315 317 316 318 312 316 314 314 317 318 313 316 318 310 308 305 309 307 304 311 315 321 320 316 314 319 323 325 319 320 322 326 321 323 332 327 328 331 333
315 315 314 314 314 314 320 319 324 322 313 312 314 314 315 316 312 313 316 313 307 305 306 306 308 311 312 317 316 315 314 318 319 322 322 321 319 322 323 321 325 331 332 332 334
315 314 314 313 310 324 319 323 324 323 307 307 311 313 315 316 310 318 318 314 309 306 306 307 312 309 310 314 317 311 322 321 320 320 312 323 310 320 324 320 324 327 329 331 336
314 314 312 309 319 319 321 325 325 321 294 308 310 319 317 312 313 313 319 314 307 306 307 305 308 308 309 314 318 312 317 317 317 318 313 317 311 320 325 316 319 324 330 332 334
314 313 312 316 320 323 325 325 322 304 294 305 310 309 309 311 311 313 312 317 316 308 308 309 314 313 312 317 319 317 314 318 318 316 308 312 312 318 315 317 322 330 332 334 336
312 311 312 323 321 325 325 320 306 300 307 303 305 308 308 308 309 309 307 307 307 302 302 306 310 313 316 312 318 315 311 305 304 304 304 316 312 315 326 328 329 327 331 333 333
310 308 315 323 326 325 322 312 299 301 303 308 307 307 305 308 309 309 307 305 310 308 305 300 301 310 315 313 311 313 312 307 301 303 307 315 308 316 329 333 334 333 335 332 333
308 323 325 329 328 326 317 304 302 304 306 304 307 304 304 305 308 308 307 306 309 310 304 302 303 312 313 315 314 312 309 318 309 312 304 311 319 325 328 329 332 333 333 332 334
325 324 321 327 327 322 312 299 304 307 307 307 302 304 302 304 303 306 306 310 308 311 313 308 302 310 311 313 313 311 316 308 311 303 301 308 308 314 322 325 329 330 334 335 338
323 318 322 326 324 316 305 304 305 309 308 306 304 304 304 304 305 304 306 309 312 311 312 310 307 306 310 307 307 307 307 311 311 310 302 303 306 327 326 328 328 331 335 336 336
322 314 323 325 312 312 306 306 304 306 310 308 307 307 306 307 305 306 303 305 312 312 308 310 307 303 305 311 312 311 308 311 306 307 309 305 309 329 331 331 332 332 336 338 339
318 315 322 320 307 308 308 306 306 306 306 307 306 307 309 306 304 306 308 311 311 310 309 311 305 301 303 307 310 307 309 309 310 310 307 304 310 326 333 332 334 334 334 335 337
317 309 314 314 314 309 306 305 304 308 306 308 308 309 308 306 309 304 305 308 312 313 316 314 308 304 300 304 308 305 307 309 308 304 306 308 319 327 330 332 335 336 337 336 339
316 312 313 310 309 309 308 305 302 301 306 308 307 306 306 305 306 305 307 307 311 312 312 312 305 308 308 310 310 307 306 308 307 309 305 307 311 325 330 333 333 336 337 337 338
317 313 313 314 309 308 303 305 301 303 305 303 306 306 308 306 308 300 306 307 305 312 310 314 305 309 303 307 309 306 307 308 308 309 310 310 312 327 335 336 333 332 334 335 336
325 322 315 305 309 307 306 304 303 305 306 306 304 307 307 307 311 311 312 310 310 308 308 308 307 307 301 307 307 302 307 308 309 311 311 310 318 326 331 331 330 330 330 333 332

GFSSW_sfc_thetae_120.txt.gz
Theta_e
320 319 320 319 319 319 319 318 319 319 319 319 319 320 320 320 320 320 312 319 324 338 335 328 328 329 333 333 339 341 327 321 320 323 325 333 331 336 338 333 333 336 332 335 339
320 319 319 319 319 318 318 319 319 319 319 319 319 319 320 320 318 316 330 338 335 335 324 327 325 328 324 330 333 332 327 325 330 331 328 332 332 334 333 332 332 332 335 337 339
319 319 318 318 318 318 318 319 319 319 319 319 319 319 320 320 317 317 343 341 336 330 322 329 326 323 323 329 331 332 326 330 333 333 335 332 331 335 331 328 331 330 332 336 337
319 318 318 318 318 318 318 318 318 318 319 319 319 319 320 318 307 321 339 339 339 315 316 323 322 318 320 320 330 327 332 334 332 334 331 328 332 330 333 333 337 336 335 335 335
318 318 318 318 317 317 317 317 317 317 318 318 319 319 318 315 315 328 339 338 323 312 315 321 319 318 316 319 329 329 331 335 335 333 331 332 331 330 332 337 338 337 335 334 334
318 318 318 318 318 318 318 317 316 316 316 317 318 318 315 310 323 330 326 323 313 313 319 323 320 322 318 318 328 329 331 331 331 330 329 329 330 333 332 336 335 335 332 333 332
318 318 318 317 317 317 317 316 317 318 317 317 318 318 315 314 321 324 326 318 315 316 320 324 323 320 319 317 332 330 326 329 329 328 328 329 322 326 331 333 332 332 331 332 332
318 318 318 317 318 317 316 315 315 317 318 319 319 318 314 321 324 324 327 320 318 317 321 325 324 319 317 324 327 326 327 319 323 327 327 326 316 328 332 331 329 329 329 331 332
318 318 317 317 317 316 316 315 317 319 320 320 319 317 313 315 314 322 325 317 320 322 323 324 321 316 317 315 318 321 315 317 319 327 324 324 318 329 333 329 328 327 328 329 331
318 317 316 316 316 316 315 315 320 319 321 323 320 314 317 312 318 322 325 321 316 317 317 316 315 310 312 315 310 312 315 319 317 322 323 320 319 325 332 327 326 327 328 329 330
318 317 316 316 316 315 313 320 319 318 322 316 314 314 314 318 321 317 319 318 316 313 307 312 307 304 310 316 318 317 317 317 320 324 320 319 319 321 330 326 324 327 327 329 330
317 316 316 316 315 315 314 316 317 319 312 320 314 315 317 318 312 315 318 310 310 305 309 307 303 309 313 314 317 317 319 316 321 324 320 318 318 323 326 327 327 326 328 329 331
316 316 315 315 314 312 317 319 325 323 313 312 314 314 314 316 312 312 313 311 307 305 305 304 307 310 310 311 313 317 316 318 317 319 319 317 314 320 324 323 327 331 332 331 332
315 315 314 313 311 323 320 324 325 325 307 307 311 313 315 315 310 318 317 313 309 304 305 306 311 309 307 308 312 313 323 322 319 314 308 319 306 316 319 319 323 328 331 328 333
315 314 313 312 316 317 322 325 325 321 294 308 310 319 316 312 312 313 317 314 308 306 307 304 306 307 306 308 314 315 324 322 320 316 314 314 311 316 320 316 318 323 330 331 331
314 313 312 317 317 320 325 325 322 305 294 304 311 309 309 311 312 314 313 315 315 309 308 307 311 311 310 312 316 319 319 319 316 312 302 312 313 315 318 322 321 324 330 333 331
313 312 311 320 321 325 324 319 305 298 308 304 305 308 308 307 308 309 307 306 305 301 301 304 306 312 314 309 314 316 311 303 303 302 302 314 312 315 325 327 324 325 329 332 333
311 309 315 320 325 325 322 312 300 302 303 308 307 307 304 309 308 308 306 304 308 308 304 299 298 309 312 311 309 314 312 305 300 300 304 314 307 314 329 330 327 328 331 333 334
309 321 322 328 327 326 316 305 302 303 306 304 306 305 303 306 308 308 306 305 308 309 303 302 301 312 313 314 314 312 307 314 309 311 306 310 313 325 328 325 324 327 331 332 333
319 324 323 324 326 322 312 302 305 307 307 307 302 305 302 305 305 306 306 309 308 311 312 307 302 309 311 313 314 312 315 307 309 302 299 306 310 312 320 322 326 329 331 333 334
319 318 321 324 324 316 306 305 305 309 307 306 305 304 305 304 305 305 306 310 311 311 314 309 307 306 310 308 306 307 306 309 311 309 302 301 305 323 319 320 329 331 332 334 333
320 312 324 322 311 311 307 306 303 307 310 308 308 307 306 307 304 304 304 308 313 311 308 311 307 302 306 311 312 310 307 308 303 304 308 307 308 320 319 326 328 331 335 334 337
316 318 322 320 307 307 309 307 307 306 306 307 307 308 309 306 304 308 307 311 312 310 309 311 305 300 302 307 310 306 308 308 308 309 307 303 309 321 322 327 332 330 336 336 342
317 309 314 315 312 309 307 306 304 309 305 307 307 310 307 306 310 305 306 309 311 312 322 315 307 304 298 303 308 304 306 308 306 303 305 306 314 322 323 330 332 333 337 340 340
316 312 315 307 310 309 308 307 303 302 307 308 308 307 306 303 307 306 308 309 310 317 312 310 304 307 307 308 309 308 306 306 306 306 304 309 315 321 320 328 333 335 337 337 338
314 315 316 310 311 308 303 306 302 304 304 305 304 308 308 306 308 303 306 308 305 311 311 313 305 308 305 309 309 307 309 307 307 308 307 309 315 317 318 322 330 335 336 335 337
324 323 316 307 310 307 307 306 304 306 307 307 304 304 307 309 311 312 312 312 311 308 308 310 309 307 302 307 305 302 309 311 309 310 310 309 321 318 315 315 321 330 336 337 338